     2.10           OBSERVATION DATA    G (GPS)             RINEX VERSION / TYPE
teqc 2000Jul20 Karen Wendt 20020923 21:06:08UTC             PGM / RUN BY / DATE
Linux 2.0.36|Pentium II|gcc -static|Linux|486/DX+           COMMENT
teqc 2000Jul20 Karen Wendt 20020923 21:06:07UTC             COMMENT
BIT 2 OF LLI FLAGS DATA COLLECTED UNDER A/S CONDITION       COMMENT
a300 A300_stmpd_D183_1934_USC&GS                            MARKER NAME
CWW USGS                                                    OBSERVER / AGENCY
LP019992809 ASHTECH Z-XII3 CD00                             REC # / TYPE / VERS
CR14244 ASH700936D_M NONE                                   ANT # / TYPE
 -2484539.0000 -4316550.0000  3974406.0000                  APPROX POSITION XYZ
        1.0546        0.0000        0.0000                  ANTENNA: DELTA H/E/N
     1     1                                                WAVELENGTH FACT L1/2
     5    C1    L1    L2    P1    P2                        # / TYPES OF OBSERV
    30.0000                                                 INTERVAL
                                                            COMMENT
National Earthquake Hazard Reduction Program                COMMENT
Crustal Strain Project                                      COMMENT
345 Middlefield Road, MS/977                                COMMENT
U.S. Geological Survey, Menlo Park, California 94025        COMMENT
Contact: kwendt@usgs.gov (Ph: 650-329-4866)                 COMMENT
Antenna height is vertical to base of antenna               COMMENT
                                                            COMMENT
SNR is mapped to RINEX snr flag value [1-9]                 COMMENT
L1: 1 -> 1; 90 -> 5; 210 -> 9                               COMMENT
L2: 1 -> 1; 150 -> 5; 250 -> 9                              COMMENT
  2002     9     9    14    34    0.0000000     GPS         TIME OF FIRST OBS
                                                            END OF HEADER
 02  9  9 14 34  0.0000000  0  4G21G 3G18G15
  20794727.648      -31617.24749    -22964.61947  20794726.780    20794732.764
  21389810.900       -5540.15649     -3725.30047  21389809.513    21389815.394
  20898687.545      108410.92249     78058.18147  20898686.361    20898691.024
  20885837.678      118576.55249     80268.68347  20885836.816    20885843.562
 02  9  9 14 34 30.0000000  0  5G21G 3G18G17G15
  21092132.148      -44163.65449    -32741.01248  21092131.741    21092137.774
  21689429.814       -6447.91249     -4432.68947  21689429.380    21689435.104
  21206921.779      152774.15049    112626.90847  21206920.944    21206925.580
  21953008.225      184830.77149    131460.28546  21953006.420    21953013.677
  21195184.810      168788.60349    119394.88947  21195184.269    21195191.053
 02  9  9 14 35  0.0000000  0  6G21G14G 3G18G17G15
  20973805.511     -665974.00549   -517268.57747  20973805.107    20973811.105
  21675475.099     -859798.35349   -661263.08347  21675474.841    21675480.876
  21573387.700     -616252.33249   -479605.01547  21573387.405    21573393.154
  21099425.703     -412120.02949   -327550.42147  21099425.152    21099429.835
  21849145.686     -360962.94049   -293833.62646  21849145.182    21849152.518
  21088829.969     -390109.72249   -316110.37147  21088829.407    21088836.274
 02  9  9 14 35 30.0000000  0  7G21G14G 3G18G17G15G 9
  20972180.230     -674516.04449   -523924.70647  20972179.602    20972185.602
  21659296.459     -944823.87049   -727516.71147  21659295.162    21659301.106
  21574116.827     -612420.95149   -476619.56847  21574116.390    21574122.231
  21108631.595     -363742.94749   -289854.08247  21108630.979    21108635.685
  21862007.633     -293374.95049   -241167.76446  21862006.787    21862014.206
  21099205.196     -335588.96949   -273626.74547  21099204.435
  21099211.324     -693951.01749   -536725.98143
 02  9  9 14 36  0.0000000  0  7G21G14G 3G18G17G15G 9
  20970595.546     -682844.47249   -530414.42048  20970594.829    20970600.881
  21643190.834    -1029458.11849   -793465.46647  21643189.741    21643195.821
  21574956.429     -608008.62549   -473181.43947  21574955.939    21574961.858
  21117878.742     -315149.37449   -251989.03147  21117878.047    21117882.779
  21874931.781     -225459.40749   -188246.66046  21874930.810    21874938.329
  21109649.809     -280702.97049   -230858.50347  21109648.934
  21109655.845     -729518.51249   -564440.79145                  23462623.978
 02  9  9 14 36 30.0000000  0  7G21G14G 3G18G17G15G 9
  20969049.056     -690971.91149   -536747.49748  20969048.300    20969054.374
  21627158.098    -1113711.15649   -859117.16447  21627157.031    21627163.022
  21575904.346     -603027.85549   -469300.36347  21575903.812    21575909.765
  21127164.554     -266352.77049   -213965.76347  21127163.779    21127168.531
  21887915.806     -157228.38149   -135079.72346  21887914.822    21887922.354
  21120161.442     -225464.33549   -187815.47647  21120160.507    21120167.366
  23455942.147     -764586.87249   -591766.68845  23455940.560    23455949.769
 02  9  9 14 37  0.0000000  0  7G21G14G 3G18G17G15G 9
  20967540.768     -698898.08349   -542923.75247  20967539.954    20967545.982
  21611198.310    -1197580.01149   -924469.51147  21611197.309    21611203.282
  21576960.692     -597478.26449   -464976.05747  21576960.071    21576965.788
  21136488.911     -217353.23449   -175784.35547  21136488.104    21136492.895
  21900959.853      -88681.82949    -81666.93446  21900958.822    21900966.325
  21130740.292     -169872.32149   -144497.09247  21130739.323    21130746.098
  23449364.066     -799153.26849   -618701.46245  23449363.024    23449372.006
 02  9  9 14 37 30.0000000  0  7G21G14G 3G18G17G15G 9
  20966071.952     -706616.90449   -548938.40647  20966071.131    20966077.100
  21595313.397    -1281056.24049   -989515.91147  21595312.336    21595318.312
  21578126.108     -591353.78049   -460203.77247  21578125.475    21578131.299
  21145852.853     -168145.37549   -137440.63047  21145852.091    21145856.890
  21914065.147      -19813.26149    -28003.22346  21914064.148    21914071.709
  21141387.700     -113920.65749   -100898.46447  21141386.692    21141393.409
  23442883.309     -833209.02749   -645238.40645  23442882.280    23442891.166
 02  9  9 14 38  0.0000000  0  8G21G14G 3G31G18G17G15G 9
  20964642.731     -714127.78349   -554791.05347  20964641.880    20964647.858
  21579503.802    -1364136.41049  -1054253.69547  21579502.751    21579508.658
  21579401.079     -584653.67149   -454982.93947  21579400.462    21579406.470
                   -639973.87749   -490346.24045                  22960663.858
  21155256.513     -118729.03249    -98934.45547  21155255.751    21155260.539
  21927231.904       49377.95749     25911.89746  21927230.894    21927238.536
  21152103.730      -57608.34649    -57018.81147  21152102.664    21152109.460
  23436500.686     -866750.48849   -671374.54345  23436499.718    23436508.613
 02  9  9 14 38 30.0000000  0  8G21G14G 3G31G18G17G15G 9
  20963252.702     -721432.35049   -560482.96447  20963251.843    20963257.887
  21563769.551    -1446819.73749  -1118682.23847  21563768.584    21563774.492
  21580785.574     -577379.28849   -449314.63547  21580784.923    21580790.862
  22949759.685     -697251.89349   -534978.46846  22949757.753    22949764.045
  21164699.537      -69106.21349    -60267.39547  21164698.644    21164703.506
  21940459.787      118890.63249     80077.52446  21940458.836    21940466.374
  21162888.077        -936.75749    -12859.18747  21162887.018    21162893.780
  23430216.032     -899776.85849   -697109.33045  23430215.260    23430223.971
 02  9  9 14 39  0.0000000  0  8G21G14G 3G31G18G17G15G 9
  20961900.817     -728536.18349   -566018.44447  20961899.969    20961906.114
  21548110.343    -1529109.06849  -1182803.77847  21548109.434    21548115.384
  21582278.308     -569536.25149   -443203.23047  21582277.520    21582283.422
  22938953.714     -754032.51949   -579223.13046  22938952.963    22938958.864
  21174180.473      -19283.48249    -21444.56947  21174179.551    21174184.540
  21953747.810      188719.12949    134489.20546  21953746.897    21953754.544
  21173739.686       56088.93849     31576.34047  21173738.636    21173745.439
  23424028.725     -932291.36349   -722445.25345  23424027.873    23424036.479
 02  9  9 14 39 30.0000000  0  8G21G14G 3G31G18G17G15G 9
  20960588.744     -735431.32449   -571391.29248  20960587.907    20960594.055
  21532528.247    -1610994.00649  -1246610.21747  21532527.232    21532533.217
  21583880.367     -561116.95749   -436642.80647  21583879.641    21583885.584
  22928245.239     -810305.63349   -623072.33046  22928244.486    22928250.427
  21183700.865       30746.52349     17539.78447  21183699.950    21183705.033
  21967097.400      258871.27049    189153.09546  21967096.375    21967104.151
  21184660.267      113476.61149     76293.92947  21184659.225    21184666.084
  23417940.713     -964283.44249   -747374.10345  23417939.987    23417948.699
 02  9  9 14 40  0.0000000  0  8G21G14G 3G31G18G17G15G 9
  20959315.347     -742123.64649   -576606.09648  20959314.478    20959320.590
  21517022.421    -1692477.83749  -1310104.09447  21517021.416    21517027.330
  21585591.124     -552126.98349   -429637.67747  21585590.387    21585596.429
  22917633.267     -866074.66149   -666528.73146  22917632.173    22917638.078
  21193259.443       80977.48449     56680.73947  21193258.642    21193263.745
  21980507.429      329341.50549    244064.84146  21980506.451    21980514.261
  21195648.699      171220.49449    121289.08747  21195647.648    21195654.427
  23411951.564     -995756.16049   -771898.29145  23411950.894    23411959.774
 02  9  9 14 40 30.0000000  0  8G21G14G 3G31G18G17G15G 9
  20958080.683     -748612.11749   -581662.14948  20958079.783    20958085.934
  21501593.773    -1773556.47249  -1373282.23647  21501592.757    21501598.576
  21587410.924     -542564.61249   -422186.54047  21587410.127    21587416.267
  22907117.619     -921335.48349   -709589.14446  22907116.453    22907122.465
  21202856.710      131410.68849     95979.29747  21202855.858    21202860.965
  21993978.573      400131.72849    299225.91646  21993977.516    21993985.329
  21206705.370      229322.91949    166563.61747  21206704.294    21206710.966
  23406061.948    -1026705.18549   -796014.42445  23406061.261    23406070.369
 02  9  9 14 41  0.0000000  0  8G21G14G 3G31G18G17G15G 9
  20956883.493     -754903.11949   -586564.31548  20956882.612    20956888.872
  21486241.244    -1854234.39949  -1436148.13447  21486240.216    21486246.095
  21589338.059     -532437.23349   -414295.13047  21589337.283    21589343.508
  22896697.610     -976093.00649   -752257.37646  22896696.456    22896702.574
  21212490.899      182038.28249    135429.30247  21212490.069    21212495.144
  22007508.955      471234.87449    354630.84646  22007507.989    22007515.999
  21217828.838      287776.82049    212112.04647  21217827.783    21217834.458
  23400271.443    -1057135.11949   -819725.99445  23400270.709    23400279.724
 02  9  9 14 41 30.0000000  0  8G21G14G 3G31G18G17G15G 9
  20955725.230     -760989.85449   -591307.22948  20955724.394    20955730.671
  21470966.674    -1934502.61949  -1498694.77547  21470965.720    21470971.567
  21591374.011     -521738.42949   -405958.45647  21591373.253    21591379.350
  22886375.039    -1030338.50849   -794526.61346  22886373.823    22886380.198
  21222163.268      232866.32949    175035.51447  21222162.393    21222167.432
  22021100.430      542657.34449    410284.60446  22021099.440    22021107.367
  21229020.431      346588.89449    257939.57447  21229019.385    21229026.087
  23394581.664    -1087037.15949   -843026.25245  23394580.848    23394589.445
 02  9  9 14 42  0.0000000  0  8G21G14G 3G31G18G17G15G 9
  20954605.363     -766875.26649   -595893.31148  20954604.509    20954610.710
  21455769.969    -2014361.49349  -1560922.44747  21455769.050    21455774.878
  21593518.091     -510471.12249   -397178.78947  21593517.339    21593523.441
  22876149.696    -1084072.46949   -836397.25246  22876148.512    22876155.039
  21231873.120      283891.56749    214795.37847  21231872.221    21231877.269
  22034752.139      614396.75249    466185.31246  22034751.149    22034759.055
  21240279.798      405756.72249    304044.29647  21240278.721    21240285.430
  23388992.056    -1116411.44549   -865915.31745  23388991.258    23388999.773
 02  9  9 14 42 30.0000000  0  8G21G14G 3G31G18G17G15G 9
  20953523.940     -772558.62949   -600321.97247  20953523.058    20953529.249
  21440652.093    -2093807.38649  -1622828.31847  21440651.086    21440656.807
  21595770.471     -498634.37449   -387955.40047  21595769.790    21595775.980
  22866022.429    -1137291.60449   -877866.74146  22866021.253    22866027.863
  21241620.545      335114.23349    254709.08247  21241619.682    21241624.677
  22048464.345      686453.98649    522333.69746  22048463.396    22048471.117
  21251607.126      465281.38049    350427.06347  21251606.039    21251612.746
  23383503.336    -1145254.45349   -888390.39645  23383502.658    23383511.300
 02  9  9 14 43  0.0000000  0  8G21G14G 3G31G18G17G15G 9
  20952480.567     -778041.78349   -604594.58648  20952479.670    20952485.878
  21425612.724    -2172839.73349  -1684411.94847  21425611.688    21425617.443
  21598131.120     -486230.09549   -378289.78247  21598130.405    21598136.608
  22855993.474    -1189995.55349   -918934.81146  22855992.216    22855998.714
  21251405.144      386531.90649    294774.74647  21251404.219    21251409.154
  22062236.924      758827.28049    578728.34546  22062235.842    22062243.286
  21263001.967      525161.15749    397086.56947  21263000.821    21263007.661
  23378115.865    -1173565.73049   -910451.10145  23378115.188    23378123.728
 02  9  9 14 43 30.0000000  0  8G21G14G 3G31G18G17G15G 9
  20951475.373     -783324.87749   -608711.30348  20951474.436    20951480.612
  21410652.391    -2251456.30049  -1745671.57947  21410651.424    21410657.192
  21600599.684     -473258.67849   -368182.23547  21600598.946    21600604.935
  22846062.653    -1242182.28249   -959599.82846  22846061.450    22846067.831
  21261226.748      438143.97249    334991.86447  21261225.759    21261230.683
  22076069.196      831516.46749    635369.15346  22076068.146    22076075.757
  21274464.292      585396.01049    444022.76347  21274463.176    21274470.138
  23372830.219    -1201343.13849   -932095.75645  23372829.298    23372837.595
 02  9  9 14 44  0.0000000  0  8G21G14G 3G31G18G17G15G 9
  20950507.733     -788409.73649   -612673.54048  20950506.846    20950513.072
  21395771.406    -2329656.71349  -1806606.92547  21395770.436    21395776.093
  21603175.671     -459722.12849   -357634.33147  21603174.913    21603180.864
  22836230.328    -1293851.43049   -999861.53246  22836229.158    22836235.423
  21271084.834      489948.21449    375358.76047  21271083.885    21271088.792
  22089961.296      904519.77449    692254.75146  22089960.309    22089968.081
  21285993.948      645984.25749    491234.27947  21285992.834    21285999.679
  23367646.085    -1228585.76749   -953323.80645  23367645.326    23367653.405
 02  9  9 14 44 30.0000000  0  8G21G14G 3G31G18G17G15G 9
  20949577.895     -793295.83849   -616480.90847  20949577.070    20949583.309
  21380970.277    -2407437.60949  -1867215.41747  21380969.203    21380974.899
  21605859.172     -445620.38749   -346646.00447  21605858.445    21605864.447
  22826496.886    -1345000.34049  -1039717.78446  22826495.706    22826502.193
  21280979.513      541944.63249    415875.41247  21280978.525    21280983.436
  22103913.450      977837.76049    749385.52746  22103912.410    22103920.240
  21297590.946      706926.71149    538721.83947  21297589.815    21297596.760
  23362564.456    -1255290.80649   -974132.93545  23362563.664    23362571.588
 02  9  9 14 45  0.0000000  0  8G21G14G 3G31G18G17G15G 9
  20948685.930     -797983.29149   -620133.46648  20948685.117    20948691.339
  21366248.959    -2484797.23949  -1927495.64247  21366248.034    21366253.848
  21608650.224     -430954.09849   -335217.77647  21608649.463    21608655.431
  22816862.681    -1395627.27849  -1079167.37846  22816861.616    22816868.119
  21290910.461      594132.16349    456540.95047  21290909.510    21290914.483
  22117925.235     1051469.99649    806761.18646  22117924.259    22117932.135
  21309255.195      768222.93749    586485.05647  21309254.150    21309261.147
  23357585.302    -1281456.43749   -994521.76245  23357584.501    23357592.317
 02  9  9 14 45 30.0000000  0  8G21G14G 3G31G18G17G15G 9
  20947831.884     -802471.88449   -623631.11048  20947831.018    20947837.223
  21351608.629    -2561733.08649  -1987445.63047  21351607.709    21351613.438
  21611548.602     -415723.33349   -323349.71147  21611547.817    21611553.777
  22807328.012    -1445730.07949  -1118208.54046  22807327.106    22807333.766
  21300877.725      646510.49249    497355.15447  21300876.800    21300881.826
  22131996.966     1125416.63749    864381.80646  22131995.958    22132003.829
  21320987.012      829873.21349    634524.14847  21320985.938    21320992.857
  23352709.338    -1307080.18449  -1014488.32545  23352708.535    23352716.282
 02  9  9 14 46  0.0000000  0  8G21G14G 3G31G18G17G15G 9
  20947015.158     -806764.01149   -626975.70448  20947014.304    20947020.432
  21337048.962    -2638244.79149  -2047065.12047  21337048.009    21337053.729
  21614553.799     -399930.25849   -311043.48147  21614553.106    21614559.130
  22797893.220    -1495308.44849  -1156841.08146  22797892.497    22797899.232
  21310880.831      699077.17549    538316.12747  21310879.935    21310885.008
  22146127.969     1199675.73049    922245.89646  22146127.015    22146134.871
  21332785.761      891875.71949    682837.70247  21332784.700    21332791.581
  23347936.464    -1332161.61349  -1034032.29045  23347935.701    23347943.293
 02  9  9 14 46 30.0000000  0  8G21G14G 3G31G18G17G15G 9
  20946236.360     -810857.34949   -630165.36748  20946235.473    20946241.527
  21322570.750    -2714327.34449  -2106350.21647  21322569.872    21322575.687
  21617666.386     -383573.02249   -298297.64147  21617665.741    21617671.937
  22788559.320    -1544357.75449  -1195061.33346  22788558.640    22788565.581
  21320920.269      751834.14849    579425.36547  21320919.325    21320924.436
  22160318.939     1274249.84049    980355.47346  22160318.021    22160326.029
  21344652.035      954233.02849    731427.71247  21344650.976    21344657.899
  23343267.720    -1356695.89449  -1053149.91645  23343266.902    23343274.665
 02  9  9 14 47  0.0000000  0  8G21G14G 3G31G18G17G15G 9
  20945494.760     -814754.87449   -633202.44448  20945493.866    20945499.897
  21308174.190    -2789981.81149  -2165301.73947  21308173.299    21308179.082
  21620885.749     -366655.27249   -285115.03847  21620885.073    21620891.307
  22779325.896    -1592879.48349  -1232870.47646  22779325.131    22779332.249
  21330995.095      804777.66749    620679.97147  21330994.180    21330999.383
  22174569.270     1349135.22449   1038707.58746  22174568.365    22174576.362
  21356585.128     1016941.96749    780291.73847  21356584.104    21356591.127
  23338702.659    -1380684.49549  -1071842.34945  23338701.883    23338710.075
 02  9  9 14 47 30.0000000  0  8G21G14G 3G31G18G17G15G 9
  20944790.506     -818455.48749   -636086.07447  20944789.604    20944795.716
  21293859.766    -2865205.20249  -2223917.35247  21293858.828    21293864.573
  21624211.980     -349176.41949   -271495.21947  21624211.290    21624217.460
  22770193.587    -1640870.63849  -1270266.22546  22770192.903    22770199.894
  21341105.483      857907.85049    662080.03947  21341104.621    21341109.817
  22188878.993     1424332.86749   1097303.02346  22188878.039    22188886.222
  21368585.475     1080003.31549    829430.36747  21368584.416    21368591.449
  23334242.359    -1404124.06449  -1090106.98046  23334241.580    23334249.931
 02  9  9 14 48  0.0000000  0  8G21G14G 3G31G18G17G15G 9
  20944122.766     -821964.12149   -638820.08847  20944121.906    20944128.067
  21279626.657    -2939999.75549  -2282198.81947  21279625.782    21279631.627
  21627643.926     -331141.70049   -257442.24447  21627643.214    21627649.507
  22761161.845    -1688334.01649  -1307250.69446  22761161.086    22761168.000
  21351250.386      911219.56149    703621.53947  21351249.587    21351254.832
  22203247.237     1499838.07549   1156138.12846  22203246.312    22203254.548
  21380651.854     1143412.10249    878839.72847  21380650.763    21380657.795
  23329886.010    -1427017.22749  -1107945.78046  23329885.237    23329893.752
 02  9  9 14 48 30.0000000  0  8G21G14G 3G31G18G17G15G 9
  20943492.440     -825277.03949   -641401.58448  20943491.582    20943497.695
  21265476.520    -3014359.71849  -2340141.62247  21265475.667    21265481.432
  21631182.141     -312547.84849   -242953.58047  21631181.435    21631187.919
  22752231.698    -1735264.01749  -1343819.55046  22752230.847    22752237.648
  21361430.453      964715.89549    745306.90947  21361429.650    21361434.879
  22217674.581     1575654.09549   1215215.42846  22217673.624    22217681.969
  21392785.084     1207172.20449    928522.84347  21392783.993    21392790.933
  23325634.485    -1449358.18549  -1125354.31545  23325633.870    23325642.406
 02  9  9 14 49  0.0000000  0  8G21G14G 3G31G18G17G15G 9
  20942898.965     -828396.29549   -643832.18948  20942898.093    20942904.171
  21251409.009    -3088284.71649  -2397745.51047  21251408.116    21251413.912
  21634826.329     -293397.54549   -228031.33247  21634825.652    21634832.011
  22743402.995    -1781660.64849  -1379972.77846  22743402.080    22743408.787
  21371645.178     1018394.33849    787134.19447  21371644.398    21371649.519
  22232160.699     1651779.07449   1274533.46346  22232159.836    22232168.157
  21404984.804     1271281.75849    978478.25247  21404983.708    21404990.689
  23321488.231    -1471146.91449  -1142332.53145  23321487.501    23321496.008
 02  9  9 14 49 30.0000000  0  8G21G14G 3G31G18G17G15G 9
  20942341.965     -831323.48849   -646113.15047  20942341.069    20942347.205
  21237424.332    -3161774.32249  -2455010.12247  21237423.517    21237429.234
  21638576.126     -273693.04249   -212677.24347  21638575.426    21638581.662
  22734675.749    -1827523.83449  -1415710.35846  22734674.782    22734681.310
  21381894.165     1072252.55949    829101.58247  21381893.323    21381898.369
  22246705.475     1728211.05449   1334090.70646  22246704.507    22246712.812
  21417250.598     1335738.78749   1028704.42647  21417249.497    21417256.619
  23317447.140    -1492383.00049  -1158880.12246  23317446.497    23317454.807
 02  9  9 14 50  0.0000000  0  8G21G14G 3G31G18G17G15G 9
  20941822.535     -834053.23049   -648240.27348  20941821.678    20941827.714
  21223524.083    -3234820.82549  -2511929.47747  21223523.241    21223529.015
  21642432.287     -253429.18249   -196887.29347  21642431.537    21642437.845
  22726051.386    -1872845.87349  -1451026.27746  22726050.402    22726056.723
  21392178.339     1126295.72949    871213.05447  21392177.473    21392182.514
  22261309.294     1804955.27349   1393891.24946  22261308.436    22261316.807
  21429583.696     1400549.05849   1079205.83647  21429582.579    21429589.817
  23313512.825    -1513058.56449  -1174990.94946  23313512.121    23313520.408
 02  9  9 14 50 30.0000000  0  8G21G14G 3G31G18G17G15G 9
  20941340.033     -836589.22849   -650216.39347  20941339.162    20941345.064
  21209707.687    -3307425.90049  -2568504.85847  21209706.905    21209712.735
  21646393.747     -232611.00749   -180665.39447  21646393.054    21646399.600
  22717529.365    -1917629.20049  -1485922.40546  22717528.443    22717534.745
  21402496.743     1180518.98549    913464.86347  21402495.900    21402500.987
  22275972.272     1882007.66849   1453931.92446  22275971.375    22275979.623
  21441983.097     1465708.10949   1129979.02347  21441981.985    21441989.225
  23309684.620    -1533175.90049  -1190666.79646  23309684.002    23309692.368
 02  9  9 14 51  0.0000000  0  8G21G14G 3G31G18G17G15G 9
  20940893.943     -838933.67349   -652043.27147  20940893.041    20940898.954
  21195975.328    -3379589.72349  -2624736.39147  21195974.622    21195980.328
  21650460.372     -211241.05249   -164013.54447  21650459.728    21650466.269
  22709110.027    -1961873.88149  -1520398.79146  22709109.051    22709115.305
  21412849.010     1234920.11749    955855.28847  21412848.164    21412853.363
  22290693.330     1959366.06349   1514211.05246  22290692.275    22290700.722
  21454448.486     1531214.16549   1181022.61547  21454447.365    21454454.583
  23305962.514    -1552735.04149  -1205907.68245  23305961.919    23305970.357
 02  9  9 14 51 30.0000000  0  8G21G14G 3G31G18G17G15G 9
  20940484.634     -841084.20849   -653719.06147  20940483.775    20940489.810
  21182327.931    -3451307.37049  -2680620.26747  21182327.170    21182332.900
  21654632.614     -189317.13549   -146930.03647  21654631.870    21654638.277
  22700793.936    -2005575.41349  -1554451.96946  22700792.928    22700799.045
  21423235.472     1289501.07449    998385.82547  21423234.643    21423239.922
  22305472.663     2037032.96949   1574730.57246  22305471.743    22305480.338
  21466980.330     1597069.86349   1232338.67147  21466979.259    21466986.653
  23302347.478    -1571731.22449  -1220709.89845  23302347.011    23302355.319
 02  9  9 14 52  0.0000000  0  8G21G14G 3G31G18G17G15G 9
  20940111.901     -843043.29249   -655245.71548  20940111.033    20940117.125
  21168765.398    -3522579.27149  -2736156.80647  21168764.659    21168770.339
  21658909.407     -166842.29249   -129417.23947  21658908.729    21658915.089
  22692581.080    -2048734.62549  -1588082.54346  22692580.014    22692586.182
  21433655.651     1344258.86949   1041054.18947  21433654.789    21433660.132
  22320310.613     2115005.71649   1635488.39846  22320309.670    22320318.145
  21479578.462     1663272.56449   1283925.10747  21479577.447    21479584.732
  23298839.735    -1590165.20749  -1235073.99945  23298839.219    23298847.350
 02  9  9 14 52 30.0000000  0  8G21G14G 3G31G18G17G15G 9
  20939775.449     -844811.71849   -656623.77448  20939774.585    20939780.671
  21155288.053    -3593404.04849  -2791344.93147  21155287.189    21155292.836
  21663290.755     -143818.20349   -111476.45047  21663290.056    21663296.461
  22684471.493    -2091350.49349  -1621289.74146  22684470.398    22684476.728
  21444109.081     1399192.04049   1083859.21147  21444108.203    21444113.696
  22335206.572     2193283.07949   1696483.60446  22335205.579    22335213.986
  21492242.429     1729821.28549   1335781.16147  21492241.281    21492248.512
  23295439.344    -1608035.55849  -1248998.91945  23295438.683    23295446.599
 02  9  9 14 53  0.0000000  0  8G21G14G 3G31G18G17G15G 9
  20939475.594     -846388.17149   -657852.17948  20939474.673    20939480.698
  21141896.414    -3663778.45049  -2846182.11647  21141895.381    21141900.977
  21667776.892     -120244.26649    -93107.20447  21667776.121    21667782.533
  22676465.947    -2133420.01049  -1654071.25846  22676464.760    22676471.117
  21454596.018     1454301.58049   1126801.66247  21454595.213    21454600.783
  22350160.543     2271866.15449   1757717.04146  22350159.486    22350168.036
  21504972.147     1796717.17549   1387907.74847  21504971.118    21504978.443
  23292146.542    -1625339.41949  -1262482.45846  23292145.913    23292153.905
 02  9  9 14 53 30.0000000  0  8G21G14G 3G31G18G17G15G 9
  20939211.863     -847774.36849   -658932.35548  20939210.966    20939216.943
  21128590.352    -3733702.24249  -2900668.18647  21128589.362    21128594.978
  21672367.139      -96123.13149    -74311.57947  21672366.393    21672372.763
  22668564.063    -2174943.32149  -1686427.08946  22668563.041    22668569.741
  21465116.137     1509585.04049   1169879.59846  21465115.320    21465120.886
  22365172.344     2350752.83849   1819187.00846  22365171.334    22365179.760
  21517767.893     1863958.23949   1440303.30147  21517766.790    21517774.142
  23288961.515    -1642076.86949  -1275524.61346  23288960.868    23288968.744
 02  9  9 14 54  0.0000000  0  8G21G14G 3G31G18G17G15G 9
  20938984.485     -848969.60049   -659863.70147  20938983.553    20938989.507
  21115370.700    -3803172.42949  -2954800.78047  21115369.654    21115375.225
  21677061.431      -71454.58749    -55089.39647  21677060.683    21677066.978
  22660766.926    -2215917.70949  -1718355.22546  22660766.027    22660772.794
  21475669.432     1565042.90149   1213093.45546  21475668.574    21475674.133
  22380241.732     2429943.77849   1880894.10246  22380240.673    22380249.430
  21530629.212     1931545.24949   1492968.43747  21530628.166    21530635.670
  23285884.903    -1658244.87749  -1288123.06946  23285884.297    23285891.865
 02  9  9 14 54 30.0000000  0  8G21G14G 3G31G18G17G15G 9
  20938792.942     -849975.78849   -660647.77747  20938792.066    20938798.040
  21102237.196    -3872188.90549  -3008579.84247  21102236.236    21102241.821
  21681859.202      -46241.60849    -35442.98147  21681858.541    21681864.809
  22653074.480    -2256343.66149  -1749856.00246  22653073.433    22653080.225
  21486255.367     1620672.34049   1256440.98846  21486254.575    21486260.107
  22395368.603     2509436.84249   1942836.62146  22395367.819    22395376.670
  21543556.038     1999476.13149   1545901.52247  21543555.047    21543562.569
  23282916.609    -1673843.81849  -1300278.08446  23282916.023    23282923.270
 02  9  9 14 55  0.0000000  0  8G21G14G 3G31G18G17G15G 9
  20938637.452     -850793.34049   -661284.90148  20938636.553    20938642.491
  21089190.560    -3940749.82349  -3062003.92347  21089189.568    21089195.116
  21686760.753      -20485.00149    -15372.96547  21686760.048    21686766.305
  22645486.400    -2296219.54349  -1780928.13246  22645485.436    22645492.300
  21496873.987     1676472.99149   1299921.93347  21496873.104    21496878.657
  22410553.578     2589231.43249   2005014.06046  22410552.488    22410561.251
  21556548.283     2067750.70849   1599102.41447  21556547.303    21556554.810
  23280056.824    -1688872.13749  -1311988.48545  23280056.113    23280063.370
 02  9  9 14 55 30.0000000  0  8G21G14G 3G31G18G17G15G 9
  20938517.995     -851421.41049   -661774.32548  20938517.086    20938523.082
  21076231.005    -4008852.78549  -3115071.14947  21076229.990    21076235.499
  21691765.712        5814.93049      5120.43347  21691764.934    21691771.319
  22638003.505    -2335543.12849  -1811569.92846  22638002.517    22638009.280
  21507525.100     1732444.84349   1343536.28747  21507524.231    21507529.923
  22425795.117     2669327.77149   2067426.63546  22425794.186    22425803.190
  21569606.142     2136369.35449   1652571.38747  21569605.133    21569612.531
  23277306.015    -1703327.48549  -1323252.40445  23277305.257    23277312.675
 02  9  9 14 56  0.0000000  0  8G21G14G 3G31G18G17G15G 9
  20938434.468     -851860.33649   -662116.36748  20938433.544    20938439.596
  21063358.806    -4076496.21849  -3167780.30747  21063357.881    21063363.412
  21696873.504       32656.86949     26036.17347  21696872.768    21696879.210
  22630625.848    -2374313.32749  -1841780.53346  22630624.745    22630631.447
  21518208.639     1788587.15949   1387283.48847  21518207.835    21518213.636
  22441094.347     2749725.33049   2130073.91946  22441093.354    22441102.476
  21582729.218     2205331.28449   1706307.89547  21582728.158    21582735.772
  23274664.414    -1717208.65449  -1334068.87345  23274663.725    23274671.248
 02  9  9 14 56 30.0000000  0  8G21G14G 3G31G18G17G15G 9
  20938386.794     -852110.93249   -662311.68347  20938385.867    20938391.946
  21050574.299    -4143678.67849  -3220130.26948  21050573.461    21050579.014
  21702084.070       60038.96549     47372.80947  21702083.400    21702089.740
  22623353.380    -2412529.25549  -1871559.18746  22623352.300    22623359.169
  21528924.471     1844898.44949   1431162.34747  21528923.636    21528929.436
  22456450.575     2830422.95249   2192955.00846  22456449.772    22456458.805
  21595917.387     2274635.70649   1760311.25947  21595916.348    21595924.068
  23272132.417    -1730514.47949  -1344437.05345  23272131.678    23272139.232
 02  9  9 14 57  0.0000000  0  8G21G14G 3G31G18G17G15G 9
  20938375.068     -852172.26549   -662359.50947  20938374.165    20938380.366
  21037878.330    -4210397.22249  -3272118.72348  21037877.430    21037882.869
  21707397.554       87961.50049     69130.56847  21707396.892    21707403.196
  22616186.701    -2450188.27749  -1900903.89446  22616185.761    22616192.731
  21539672.581     1901379.49249   1475173.48947  21539671.715    21539677.460
  22471864.329     2911421.57449   2256070.69346  22471863.383    22471872.348
  21609171.125     2344283.34549   1814582.04947  21609170.023    21609177.652
  23269710.310    -1743242.11849  -1354354.66946  23269709.556    23269717.322
 02  9  9 14 57 30.0000000  0  8G21G14G 3G31G18G17G15G 9
  20938399.166     -852045.92649   -662261.08148  20938398.258    20938404.473
  21025270.301    -4276652.25549  -3323746.01848  21025269.439    21025274.978
  21712813.343      116421.45149     91307.09447  21712812.682    21712819.015
  22609126.228    -2487290.93549  -1929815.08446  22609125.279    22609132.175
  21550452.515     1958027.49349   1519314.71847  21550451.573    21550457.243
  22487334.579     2992718.57449   2319418.84146  22487333.623    22487342.761
  21622489.457     2414271.78249   1869118.42347  21622488.392    21622496.160
  23267397.943    -1755392.24449  -1363822.30646  23267397.187    23267405.443
 02  9  9 14 58  0.0000000  0  8G21G14G 3G31G18G17G15G 9
  20938458.871     -851732.67749   -662017.02947  20938457.907    20938464.068
  21012750.884    -4342442.03549  -3375010.76848  21012750.116    21012755.587
  21718331.302      145417.67249    113901.49647  21718330.543    21718336.928
  22602171.981    -2523836.16849  -1958291.89646  22602170.982    22602177.981
  21561264.020     2014841.62549   1563585.40347  21561263.048    21561268.704
  22502861.423     3074313.20649   2382998.92846  22502860.534    22502869.949
  21635872.741     2484600.54049   1923919.97547  21635871.658    21635879.429
  23265195.854    -1766963.56149  -1372838.92546  23265195.260    23265203.638
 02  9  9 14 58 30.0000000  0  8G21G14G 3G31G18G17G15G 9
  20938553.947     -851232.89549   -661627.63847  20938552.991    20938559.152
  21000320.436    -4407764.84849  -3425911.65148  21000319.552    21000325.052
  21723950.768      174948.61449    136912.56547  21723950.072    21723956.673
  22595324.103    -2559822.56949  -1986333.29146  22595323.143    22595330.001
  21572106.863     2071821.49049   1607985.21947  21572105.992    21572111.726
  22518445.051     3156204.79049   2446810.39646  22518444.175    22518453.705
  21649320.610     2555269.39849   1978986.52147  21649319.548    21649327.177
  23263104.224    -1777954.64649  -1381403.40746  23263103.638    23263112.328
 02  9  9 14 59  0.0000000  0  8G21G14G 3G31G18G17G15G 9
  20938684.287     -850547.84049   -661093.87547  20938683.361    20938689.560
  20987978.665    -4472620.79149  -3476448.74548  20987977.815    20987983.438
  21729671.478      205011.69049    160338.28647  21729670.812    21729677.511
  22588582.548    -2595250.51249  -2013939.52646  22588581.540    22588588.375
  21582980.995     2128964.66149   1652512.29547  21582980.064    21582985.756
  22534084.861     3238391.59949   2510851.93146  22534083.918    22534093.377
  21662832.963     2626276.20049   2034316.41747  21662831.873    21662839.515
  23261123.001    -1788365.51949  -1389515.81246  23261122.519    23261131.327
 02  9  9 14 59 30.0000000  0  8G21G14G 3G31G18G17G15G 9
  20938850.546     -849674.67049   -660413.53447  20938849.596    20938855.819
  20975726.755    -4537005.23249  -3526618.42648  20975725.877    20975731.486
  21735493.963      235608.36049    184179.77847  21735493.261    21735499.820
  22581947.932    -2630115.96949  -2041107.43846  22581946.903    22581953.734
  21593886.416     2186273.08049   1697168.13747  21593885.564    21593891.201
  22549781.350     3320875.51449   2575124.93946  22549780.441    22549789.642
  21676409.867     2697623.26349   2089911.46347  21676408.784    21676416.579
  23259253.095    -1798192.44749  -1397173.19646  23259252.524    23259261.369
 02  9  9 15  0  0.0000000  0  8G21G14G 3G31G18G17G15G 9
  20939051.547     -848618.01049   -659590.18947  20939050.637    20939056.936
  20963564.074    -4600920.21749  -3576422.29248  20963563.217    20963568.838
  21741417.069      266733.85549    208433.35247  21741416.330    21741422.834
  22575420.047    -2664421.33749  -2067838.91546  22575418.963    22575425.648
  21604822.582     2243742.78649   1741949.66247  21604821.773    21604827.431
  22565533.396     3403652.26049   2639626.14046  22565532.467    22565541.834
  21690050.749     2769306.23849   2145768.23947  21690049.691    21690057.472
  23257493.864    -1807437.77049  -1404377.35746  23257493.321    23257501.982
 02  9  9 15  0 30.0000000  0  8G21G14G 3G31G18G17G15G 9
  20939287.903     -847375.93249   -658622.40447  20939287.033    20939293.370
  20951491.457    -4664362.27749  -3625857.65548  20951490.585    20951496.234
  21747440.866      298388.83149    233099.50047  21747440.130    21747446.731
  22568999.398    -2698163.32549  -2094131.40646  22568998.307    22569004.681
  21615789.773     2301374.98749   1786857.80147  21615788.901    21615794.539
  22581341.222     3486723.49549   2704356.83646  22581340.463    22581349.979
  21703755.863     2841326.67649   2201887.98447  21703754.783    21703762.516
  23255846.049    -1816098.09649  -1411125.65646  23255845.492    23255853.649
 02  9  9 15  1  0.0000000  0  8G21G14G 3G31G18G17G15G 9
  20939559.043     -845951.49049   -657512.50648  20939558.136    20939564.481
  20939508.636    -4727332.83749  -3674925.60348  20939507.760    20939513.310
  21753564.546      330568.78049    258174.72447  21753563.821    21753570.550
  22562685.362    -2731344.14149  -2119986.61546  22562684.269    22562690.576
  21626787.022     2359165.69049   1831889.43447  21626786.187    21626791.842
  22597204.593     3570085.14149   2769313.82246  22597203.781    22597213.127
  21717524.443     2913681.00349   2258267.86447  21717523.431    21717531.060
  23254309.197    -1824175.34949  -1417419.58346  23254308.557    23254316.535
 02  9  9 15  1 30.0000000  0  8G21G14G 3G31G18G17G15G 9
  20939866.080     -844338.22749   -656255.45648  20939865.193    20939871.604
  20927616.875    -4789824.10149  -3723620.08448  20927616.013    20927621.610
  21759789.041      363278.66949    283662.89147  21759788.302    21759795.165
  22556479.256    -2763956.20249  -2145398.60946  22556478.235    22556484.916
  21637815.573     2417120.57549   1877049.00947  21637814.712    21637820.338
  22613124.461     3653743.01149   2834501.59246  22613123.620    22613132.884
  21731357.780     2986375.25849   2314912.63747  21731356.715    21731364.355
  23252884.320    -1831662.05149  -1423253.42346  23252883.715    23252891.941
 02  9  9 15  2  0.0000000  0  8G21G14G 3G31G18G17G15G 9
  20940207.788     -842542.35649   -654856.09848  20940206.907    20940213.447
  20915815.672    -4851839.78049  -3771943.98048  20915814.843    20915820.422
  21766113.073      396511.82049    309558.77747  21766112.424    21766119.311
  22550380.896    -2796003.73849  -2170370.74246  22550379.867    22550386.611
  21648874.258     2475233.91249   1922332.05047  21648873.407    21648879.049
  22629099.297     3737691.12349   2899915.53846  22629098.431    22629108.022
  21745254.576     3059403.48449   2371817.68147  21745253.494    21745261.384
  23251571.030    -1838562.20349  -1428630.24346  23251570.443    23251578.969
 02  9  9 15  2 30.0000000  0  8G21G14G 3G31G18G17G15G 9
  20940584.662     -840561.62349   -653312.72247  20940583.835    20940590.386
  20904105.748    -4913376.36949  -3819894.54748  20904104.879    20904110.301
  21772536.988      430268.93149    335862.94447  21772536.277    21772543.096
  22544390.611    -2827483.67849  -2194900.60446  22544389.603    22544396.256
  21659963.348     2533507.02549   1967739.60547  21659962.440    21659968.161
  22645129.704     3821930.86149   2965556.71646  22645128.833    22645138.459
  21759215.292     3132767.07549   2428984.00447  21759214.259    21759222.041
  23250370.193    -1844872.71349  -1433547.59046  23250369.554    23250378.212
 02  9  9 15  3  0.0000000  0  8G21G14G 3G31G18G17G15G 9
  20940996.343     -838398.71149   -651627.37747  20940995.470    20941001.963
  20892486.670    -4974435.01749  -3867472.71148  20892485.773    20892491.229
  21779059.715      464545.86749    362572.16347  21779058.971    21779065.827
  22538508.008    -2858397.54149  -2218989.33946  22538507.036    22538513.597
  21671082.079     2591936.52549   2013268.99447  21671081.242    21671086.995
  22661215.110     3906458.76749   3031422.46446  22661214.178    22661223.706
  21773239.271     3206462.81849   2486409.13747  21773238.141    21773245.870
  23249281.389    -1850595.13049  -1438006.63646  23249280.837    23249289.217
 02  9  9 15  3 30.0000000  0  8G21G14G 3G31G18G17G15G 9
  20941442.915     -836051.97749   -649798.79948  20941442.081    20941448.557
  20880959.053    -5035012.65249  -3914676.05148  20880958.273    20880963.692
  21785681.309      499342.72149    389686.52247  21785680.567    21785687.588
  22532733.670    -2888742.70849  -2242634.95146  22532732.534    22532738.991
  21682230.885     2650523.36249   2058920.99547  21682230.004    21682235.746
  22677355.397     3991276.13549   3097513.74546  22677354.444    22677364.132
  21787326.433     3280491.63049   2544093.83647  21787325.338    21787333.133
  23248305.030    -1855726.80349  -1442005.34246  23248304.394    23248312.654
 02  9  9 15  4  0.0000000  0  8G21G14G 3G31G18G17G15G 9
  20941924.828     -833520.18249   -647826.00048  20941923.948    20941930.396
  20869523.796    -5095105.90449  -3961501.94448  20869522.920    20869528.277
  21792401.980      534659.88549    417206.31647  21792401.244    21792408.374
  22527067.486    -2918516.41549  -2265835.25746  22527066.527    22527073.171
  21693409.834     2709268.74649   2104696.54747  21693408.935    21693414.599
  22693550.862     4076383.75749   3163831.20846  22693549.963    22693559.619
  21801477.251     3354854.69749   2602038.98347  21801476.232    21801484.100
  23247441.347    -1860264.78249  -1445541.45846  23247440.802    23247449.055
 02  9  9 15  4 30.0000000  0  8G21G14G 3G31G18G17G15G 9
  20942441.321     -830806.09549   -645711.18148  20942440.450    20942446.931
  20858180.263    -5154716.16749  -4007951.48348  20858179.473    20858184.812
  21799221.065      570493.36649    445128.42347  21799220.293    21799227.306
  22521509.860    -2947720.26149  -2288591.54646  22521508.925    22521515.696
  21704618.148     2768169.30949   2150593.01647  21704617.286    21704623.025
  22709800.930     4161778.19249   3230372.16646  22709800.072    22709809.862
  21815691.278     3429548.96849   2660242.19947  21815690.212    21815697.988
  23246690.509    -1864210.63949  -1448616.16846  23246689.841    23246698.406
 02  9  9 15  5  0.0000000  0  8G21G14G 3G31G18G17G15G 9
  20942992.562     -827909.60949   -643454.22548  20942991.698    20942998.201
  20846929.130    -5213841.42749  -4054023.10248  20846928.292    20846933.622
  21806138.156      606842.02449    473451.97547  21806137.345    21806144.165
  22516060.976    -2976353.06049  -2310902.85246  22516060.075    22516067.008
  21715856.029     2827224.91849   2196610.29847  21715855.236    21715860.991
  22726105.696     4247459.26849   3297136.43846  22726104.825    22726114.682
  21829968.167     3504574.17149   2718703.30247  21829967.098    21829974.884
  23246052.348    -1867563.33349  -1451228.69446  23246051.704    23246060.363
 02  9  9 15  5 30.0000000  0  8G21G14G 3G31G18G17G15G 9
  20943578.536     -824830.77249   -641055.15048  20943577.633    20943584.139
  20835770.515    -5272480.16849  -4099715.61348  20835769.707    20835775.000
  21813152.912      643704.67049    502176.05447  21813152.129    21813158.985
  22510721.370    -3004413.24249  -2332767.95546  22510720.482    22510727.369
  21727123.481     2886435.14549   2242748.05747  21727122.646    21727128.305
  22742464.971     4333426.65249   3364123.86946  22742464.039    22742473.759
  21844307.902     3579930.29649   2777422.28147  21844306.931    21844314.730
  23245527.626    -1870321.20549  -1453377.72446  23245527.006    23245535.590
 02  9  9 15  6  0.0000000  0  8G21G14G 3G31G18G17G15G 9
  20944198.755     -821571.72849   -638515.64948  20944197.804    20944204.316
  20824704.238    -5330633.38049  -4145029.79548  20824703.458    20824708.736
  21820264.844      681077.11349    531297.37147  21820264.045    21820270.896
  22505490.563    -3031902.67949  -2354188.33346  22505489.553    22505496.372
  21738419.689     2945796.70849   2289003.73847  21738418.836    21738424.420
  22758878.151     4419676.86649   3431331.64046  22758877.187    22758886.876
  21858710.309     3655614.00749   2836396.49347  21858709.220    21858716.984
  23245115.882    -1872486.07149  -1455064.65446  23245115.241    23245123.810
 02  9  9 15  6 30.0000000  0  8G21G14G 3G31G18G17G15G 9
  20944853.327     -818131.96149   -635835.34248  20944852.400    20944858.887
  20813730.783    -5388299.07349  -4189964.09648  20813730.035    20813735.372
  21827473.441      718958.12049    560814.97247  21827472.645    21827479.482
  22500368.434    -3058820.09449  -2375162.96646  22500367.340    22500374.209
  21749744.705     3005310.06549   2335377.71547  21749743.886    21749749.358
  22775344.691     4506209.60949   3498759.58946  22775343.597    22775353.592
  21873174.799     3731625.05149   2895625.79347  21873173.717    21873181.435
  23244817.420    -1874056.31849  -1456288.25946  23244816.698    23244825.174
 02  9  9 15  7  0.0000000  0  8G21G14G 3G31G18G17G15G 9
  20945542.475     -814510.63149   -633013.53748  20945541.573    20945547.978
  20802850.653    -5445474.64349  -4234516.47748  20802849.877    20802855.212
  21834778.709      757347.85949    590728.97747  21834777.978    21834784.742
  22495355.424    -3085162.92949  -2395689.88246  22495354.480    22495361.509
  21761098.702     3064975.58949   2381870.25347  21761097.905    21761103.368
  22791865.197     4593025.62449   3566408.27446  22791864.349    22791874.099
  21887701.599     3807964.28349   2955110.81247  21887700.560    21887708.426
  23244632.194    -1875029.86849  -1457046.91746  23244631.516    23244640.017
 02  9  9 15  7 30.0000000  0  8G21G14G 3G31G18G17G15G 9
  20946266.215     -810707.65549   -630050.19548  20946265.312    20946271.676
  20792064.071    -5502158.40249  -4278685.61248  20792063.314    20792068.570
  21842180.672      796245.18649    621038.51247  21842179.884    21842186.744
  22490452.253    -3110929.96149  -2415768.12946  22490451.245    22490458.316
  21772481.784     3124793.25749   2428481.35347  21772480.925    21772486.370
  22808439.796     4680124.93149   3634277.67846  22808438.956    22808448.772
  21902291.213     3884631.63149   3014851.49947  21902290.120    21902297.848
  23244560.812    -1875405.10549  -1457339.34246  23244560.086    23244568.510
 02  9  9 15  8  0.0000000  0  8G21G14G 3G31G18G17G15G 9
  20947024.026     -806725.14349   -626946.96447  20947023.148    20947029.535
  20781370.841    -5558351.14949  -4322472.15848  20781370.117    20781375.460
  21849678.136      835646.07749    651740.45147  21849677.473    21849684.543
  22485658.281    -3136122.71849  -2435398.89346  22485657.293    22485664.280
  21783893.188     3184760.06549   2475208.67447  21783892.225    21783897.793
  22825067.604     4767503.85849   3702364.99245  22825066.774    22825076.535
  21916942.426     3961624.01249   3074845.47047  21916941.337    21916949.117
  23244602.809    -1875183.78849  -1457166.93546  23244602.137    23244610.550
 02  9  9 15  8 30.0000000  0  8G21G14G 3G31G18G17G15G 9
  20947816.443     -802560.77849   -623702.03647  20947815.579    20947822.009
  20770771.924    -5614049.22749  -4365873.23248  20770771.184    20770776.441
  21857271.987      875551.30549    682835.34447  21857271.315    21857278.159
  22480974.109    -3160738.12349  -2454579.75346  22480973.146    22480980.162
  21795333.101     3244877.69649   2522053.52347  21795332.196    21795337.853
  22841749.121     4855164.53149   3770671.87945  22841748.127    22841757.760
  21931655.731     4038942.87949   3135093.84547  21931654.641    21931662.578
  23244758.881    -1874362.79949  -1456527.24445  23244758.368    23244766.562
 02  9  9 15  9  0.0000000  0  8G21G14G 3G31G18G17G15G 9
  20948642.806     -798218.50249   -620318.47747  20948641.917    20948648.331
  20760266.735    -5669254.57049  -4408890.37948  20760265.907    20760271.278
  21864960.972      915955.94149    714319.40647  21864960.153    21864966.833
  22476399.233    -3184778.49649  -2473312.54646  22476398.433    22476405.400
  21806801.156     3305142.55449   2569013.09247  21806800.256    21806805.927
  22858483.302     4943102.58749   3839194.84545  22858482.361    22858491.832
  21946430.611     4116584.67949   3195593.84547  21946429.493    21946437.526
  23245029.073    -1872944.20649  -1455421.92445  23245028.502    23245036.267
 02  9  9 15  9 30.0000000  0  8G21G14G 3G31G18G17G15G 9
  20949503.235     -793696.99149   -616795.27747  20949502.301    20949508.717
  20749855.640    -5723965.17149  -4451522.00448  20749854.844    20749860.175
  21872744.352      956859.14749    746191.97747  21872743.664    21872750.557
  22471934.461    -3208242.29649  -2491596.08046  22471933.554    22471940.476
  21818297.320     3365554.83949   2616087.53147  21818296.418    21818301.955
  22875270.395     5031318.12549   3907934.06045  22875269.460    22875278.830
  21961266.835     4194549.46049   3256345.52447  21961265.752    21961273.819
  23245413.171    -1870926.39549  -1453849.65546  23245412.575    23245420.151
 02  9  9 15 10  0.0000000  0  8G21G14G 3G31G18G17G15G 9
  20950397.988     -788995.21949   -613131.60447  20950397.092    20950403.484
  20739539.051    -5778179.28949  -4493766.75748  20739538.226    20739543.510
  21880623.029      998259.92649    778452.24547  21880622.270    21880629.085
  22467579.646    -3231128.15249  -2509429.24846  22467578.689    22467585.572
  21829821.618     3426114.48349   2663276.78247  21829820.659    21829826.105
  22892110.242     5119811.00949   3976889.39545  22892109.163    22892118.698
  21976164.592     4272837.12349   3317348.79747  21976163.488    21976171.530
  23245911.584    -1868308.30649  -1451809.62146  23245910.960    23245918.332
 02  9  9 15 10 30.0000000  0  8G21G14G 3G31G18G17G15G 9
  20951326.465     -784116.22949   -609329.81147  20951325.569    20951331.961
  20729316.748    -5831897.93749  -4535625.43748  20729315.893    20729321.276
  21888595.229     1040153.73449    811096.71547  21888594.392    21888601.281
  22463334.301    -3253438.00249  -2526813.56746  22463333.328    22463340.082
  21841373.258     3486818.43949   2710578.47747  21841372.253    21841377.846
  22909001.772     5208577.89649   4046058.23645  22909000.918    22909010.595
  21991123.176     4351444.36149   3378601.08747  21991122.013    21991130.079
  23246523.871    -1865091.81049  -1449303.29346  23246523.246    23246530.456
 02  9  9 15 11  0.0000000  0  8G21G14G 3G31G18G17G15G 9
  20952289.345     -779056.32049   -605387.08247  20952288.472    20952294.808
  20719189.610    -5885116.16249  -4577094.18348  20719188.794    20719194.061
  21896661.532     1082543.10249    844127.31447  21896660.827    21896667.618
  22459199.484    -3275167.10349  -2543745.36746  22459198.530    22459205.079
  21852952.828     3547670.35749   2757995.47247  21852951.936    21852957.702
  22925946.523     5297621.91049   4115443.01645  22925945.747    22925955.293
  22006143.057     4430374.38349   3440104.91347  22006141.955    22006150.109
  23247250.939    -1861271.94949  -1446326.78346  23247250.283    23247257.557
 02  9  9 15 11 30.0000000  0  8G21G14G 3G31G18G17G15G 9
  20953286.228     -773817.98949   -601305.32847  20953285.342    20953291.685
  20709157.547    -5937834.87949  -4618173.69648  20709156.759    20709162.071
  21904821.728     1125423.92849    877540.86147  21904820.908    21904827.601
  22455174.848    -3296317.15149  -2560225.95946  22455173.887    22455180.285
  21864560.092     3608666.94749   2805525.22247  21864559.231    21864565.149
  22942943.467     5386939.72949   4185041.12845  22942942.511    22942952.176
  22021223.776     4509624.20249   3501857.90647  22021222.734    22021230.976
  23248092.339    -1856850.66449  -1442881.62746  23248091.662    23248099.160
 02  9  9 15 12  0.0000000  0  8G21G14G 3G31G18G17G15G 9
  20954317.094     -768400.60249   -597084.01847  20954316.239    20954322.629
  20699220.797    -5990052.38449  -4658862.66748  20699220.028    20699225.492
  21913074.874     1168795.26449    911336.65147  21913074.164    21913081.216
  22451260.583    -3316886.75249  -2576254.26446  22451259.716    22451266.029
  21876194.959     3669808.46249   2853167.90847  21876194.166    21876200.124
  22959992.391     5476531.33149   4254852.62145  22959991.538    22960000.786
  22036365.573     4589194.07949   3563860.30847  22036364.502    22036372.705
  23249048.400    -1851826.67449  -1438966.85046  23249047.638    23249055.449
 02  9  9 15 12 30.0000000  0  8G21G14G 3G31G18G17G15G 9
  20955381.926     -762805.05449   -592723.88347  20955381.022    20955387.520
  20689379.543    -6041768.44749  -4699160.89348  20689378.781    20689384.177
  21921421.000     1212654.10849    945512.29447  21921420.316    21921427.423
  22447456.610    -3336876.47049  -2591830.68046  22447455.760    22447462.258
  21887857.153     3731093.43149   2900922.35747  21887856.412    21887862.392
  22977093.136     5566394.98749   4324876.06046  22977092.180    22977101.738
  22051567.924     4669082.14749   3626110.64247  22051566.818    22051575.000
  23250119.144    -1846200.42249  -1434582.76346  23250118.338    23250126.142
 02  9  9 15 13  0.0000000  0  8G21G14G 3G31G18G17G15G 9
  20956480.577     -757031.19849   -588224.80147  20956479.751    20956486.342
  20679634.104    -6092981.53449  -4739067.18348  20679633.298    20679638.650
  21929859.605     1256998.92549    980066.62747  21929858.885    21929865.769
  22443763.515    -3356285.07849  -2606954.32046  22443762.576    22443768.907
  21899546.688     3792521.97749   2948788.67147  21899545.950    21899552.020
  22994245.049     5656530.12849   4395111.05646  22994244.246    22994254.392
  22066830.710     4749288.09949   3688608.67847  22066829.502    22066837.784
  23251304.508    -1839970.65749  -1429728.42146  23251303.817    23251311.789
 02  9  9 15 13 30.0000000  0  8G21G14G 3G31G18G17G15G 9
  20957613.231     -751079.76249   -583587.34148  20957612.387    20957618.975
  20669984.278    -6143691.62149  -4778581.53548  20669983.438    20669988.847
  21938389.929     1301826.95549   1014997.50147  21938389.329    21938396.226
  22440180.743    -3375113.31949  -2621625.72446  22440179.677    22440185.979
  21911263.213     3854092.05849   2996765.26647  21911262.458    21911268.577
  23011448.858     5746934.77049   4465556.03646  23011447.905    23011458.107
  22082153.269     4829809.87749   3751352.82747  22082152.234    22082160.640
  23252604.676    -1833137.86049  -1424404.16446  23252604.038    23252612.062
 02  9  9 15 14  0.0000000  0  8G21G14G 3G31G18G17G15G 9
  20958779.764     -744950.18749   -578811.06848  20958778.919    20958785.503
  20660430.669    -6193896.29149  -4817702.05048  20660429.842    20660435.195
  21947012.511     1347137.64749   1050304.46247  21947011.849    21947018.719
  22436708.491    -3393359.48549  -2635843.54846  22436707.431    22436713.949
  21923006.849     3915804.65949   3044852.92447  21923006.088    21923012.150
  23028703.868     5837609.20549   4536211.23546  23028702.970    23028712.909
  22097536.394     4910647.96749   3814343.45247  22097535.384    22097543.693
  23254019.958    -1825700.44549  -1418608.79046  23254019.347    23254027.125
 02  9  9 15 14 30.0000000  0  8G21G14G 3G31G18G17G15G 9
  20959980.053     -738642.75749   -573896.22748  20959979.208    20959985.824
  20650973.424    -6243595.30349  -4856428.54648  20650972.489    20650977.756
  21955726.493     1392928.76549   1085985.78347  21955725.787    21955732.552
  22433346.906    -3411023.48549  -2649607.72246  22433345.848    22433352.830
  21934777.351     3977658.53549   3093050.65947  21934776.540    21934782.587
  23046009.873     5928552.03549   4607075.55346  23046008.881    23046019.092
  22112979.723     4991801.05149   3877579.52347  22112978.523    22112986.829
  23255550.394    -1817658.66949  -1412342.46346  23255549.738    23255557.105
 02  9  9 15 15  0.0000000  0  8G21G14G 3G31G18G17G15G 9
  20961213.967     -732158.71649   -568843.77048  20961213.124    20961219.746
  20641612.264    -6292788.25449  -4894760.71848  20641611.380    20641616.632
  21964531.074     1439197.30349   1122039.12347  21964530.422    21964537.135
  22430096.172    -3428105.64349  -2662918.53746  22430095.178    22430102.320
  21946574.441     4039652.44649   3141357.51047  21946573.613    21946579.656
  23063366.391     6019761.66049   4678147.81545  23063365.493    23063376.130
  22128482.393     5073267.47849   3941059.74047  22128481.221    22128489.437
  23257195.592    -1809012.94149  -1405605.56746  23257194.879    23257202.251
 02  9  9 15 15 30.0000000  0  8G21G14G 3G31G18G17G15G 9
  20962481.647     -725497.19449   -563653.00447  20962480.777    20962487.357
  20632347.899    -6341473.01749  -4932696.89448  20632346.974    20632352.223
  21973426.383     1485942.60449   1158463.97847  21973425.764    21973432.545
  22426956.735    -3444604.55249  -2675774.86246  22426955.692    22426962.645
  21958398.368     4101786.87749   3189773.87847  21958397.557    21958403.571
  23080773.922     6111237.98649   4749427.85345  23080772.904    23080783.638
  22144044.547     5155047.58949   4004784.41147  22144043.457    22144051.849
  23258955.888    -1799761.78649  -1398396.90146  23258955.280    23258962.825
 02  9  9 15 16  0.0000000  0  8G21G14G 3G31G18G17G15G 9
  20963782.414     -718661.74149   -558326.71047  20963781.546    20963788.112
  20623179.464    -6389652.52049  -4970239.36148  20623178.611    20623183.936
  21982411.583     1533158.86249   1195255.78947  21982410.913    21982417.680
  22423927.512    -3460523.68549  -2688179.42146  22423926.509    22423933.215
  21970248.230     4164057.61249   3238296.44647  21970247.424    21970253.476
  23098231.061     6202976.30349   4820912.07445  23098230.258    23098240.984
  22159665.756     5237136.72649   4068749.87647  22159664.643    22159673.041
  23260831.050    -1789908.54549  -1390719.06346  23260830.332    23260837.888
 02  9  9 15 16 30.0000000  0  8G21G14G 3G31G18G17G15G 9
  20965117.153     -711647.76649   -552861.31447  20965116.252    20965122.871
  20614108.407    -6437321.57649  -5007384.07248  20614107.570    20614112.856
  21991486.648     1580848.30049   1232416.31547  21991485.931    21991492.774
  22421009.345    -3475858.41549  -2700128.58946  22421008.359    22421014.986
  21982124.620     4226468.13049   3286927.93247  21982123.852    21982129.929
  23115739.012     6294979.97349   4892603.01845  23115738.377    23115748.863
  22175346.136     5319537.99549   4132958.54947  22175345.118    22175353.559
  23262821.537    -1779448.59649  -1382568.49446  23262820.934    23262828.394
 02  9  9 15 17  0.0000000  0  8G21G14G 3G31G18G17G15G 9
  20966485.052     -704459.41049   -547260.03548  20966484.185    20966490.877
  20605133.998    -6484482.89249  -5044133.13748  20605133.073    20605138.349
  22000650.520     1629005.35849   1269941.23347  22000649.857    22000657.035
  22418201.742    -3490612.12049  -2711625.00046  22418200.813    22418207.602
  21994027.049     4289014.33249   3335665.16547  21994026.202    21994032.210
  23133296.678     6387244.09449   4964496.91945  23133295.792    23133306.294
  22191085.362     5402247.08949   4197407.08547  22191084.282    22191092.612
  23264926.774    -1768385.23649  -1373947.70846  23264926.197    23264933.633
 02  9  9 15 17 30.0000000  0  8G21G14G 3G31G18G17G15G 9
  20967886.888     -697092.80549   -541519.85748  20967886.035    20967892.795
  20596256.862    -6531132.03949  -5080483.12948  20596255.969    20596261.313
  22009903.756     1677631.27249   1307831.48047  22009903.051    22009910.366
  22415505.534    -3504780.82649  -2722665.55646  22415504.669    22415511.542
  22005955.651     4351699.15649   3384510.40547  22005954.775    22005960.857
  23150904.391     6479771.42649   5036595.92445  23150903.402    23150913.696
  22206883.431     5485266.77049   4262097.64646  22206882.345    22206890.768
  23267147.457    -1756714.79549  -1364853.87845  23267146.880    23267154.287
 02  9  9 15 18  0.0000000  0  8G21G14G 3G31G18G17G15G 9
  20969322.001     -689551.13049   -535643.26248  20969321.131    20969327.974
  20587476.960    -6577270.97249  -5116435.54448  20587476.057    20587481.413
  22019245.372     1726721.35849   1346083.41647  22019244.644    22019251.886
  22412920.447    -3518367.15649  -2733252.34046  22412919.508    22412926.329
  22017909.949     4414519.34049   3433461.12547  22017909.109    22017915.252
  23168561.187     6572557.86049   5108896.87245  23168560.309    23168570.794
  22222740.128     5568593.34949   4327027.33546  22222739.057    22222747.460
  23269482.983    -1744439.91749  -1355289.06945  23269482.343    23269489.874
 02  9  9 15 18 30.0000000  0  8G21G14G 3G31G18G17G15G 9
  20970790.590     -681833.45949   -529629.53447  20970789.714    20970796.580
  20578794.571    -6622897.47449  -5151988.65548  20578793.628    20578798.929
  22028675.241     1776274.90649   1384696.48647  22028674.456    22028681.671
  22410446.156    -3531369.62949  -2743384.16046  22410445.271    22410452.120
  22029890.108     4477475.49449   3482517.78947  22029889.295    22029895.493
  23186267.285     6665603.88649   5181400.07945  23186266.432    23186277.250
  22238655.275     5652226.91449   4392196.23446  22238654.150    22238662.456
  23271934.025    -1731559.24849  -1345252.18245  23271933.365    23271941.009
 02  9  9 15 19  0.0000000  0  8G21G14G 3G31G18G17G15G 9
  20972292.720     -673939.66949   -523478.54247  20972291.815    20972298.677
  20570209.719    -6668010.65249  -5187141.78148  20570208.791    20570214.166
  22038192.679     1826289.69449   1423668.99847  22038191.967    22038199.457
  22408082.887    -3543788.13049  -2753060.93846  22408082.118    22408089.081
  22041896.100     4540567.12649   3531680.03547  22041895.224    22041901.550
  23204022.825     6758908.53149   5254104.80645  23204021.939    23204032.731
  22254628.483     5736166.72249   4457603.78146  22254627.432    22254635.752
  23274500.577    -1718072.45549  -1334742.98546  23274499.919    23274507.536
 02  9  9 15 19 30.0000000  0  8G21G14G 3G31G18G17G15G 9
  20973828.289     -665870.32349   -517190.77247  20973827.372    20973834.232
  20561722.639    -6712610.10649  -5221894.60948  20561721.796    20561727.250
  22047797.544     1876763.32849   1462999.02647  22047796.808    22047804.341
  22405830.723    -3555622.55749  -2762282.60446  22405829.937    22405837.003
  22053927.576     4603793.48849   3580947.25447  22053926.745    22053933.146
  23221827.228     6852470.28449   5327009.85345  23221826.334    23221837.112
  22270660.008     5820411.57149   4523249.00046  22270658.843    22270667.138
  23277182.489    -1703979.56749  -1323761.50246  23277181.852    23277189.384
 02  9  9 15 20  0.0000000  0  8G21G14G 3G31G18G17G15G 9
  20975396.964     -657626.66749   -510767.17347  20975396.105    20975402.951
  20553333.328    -6756696.66449  -5256247.77048  20553332.424    20553337.786
  22057489.148     1927692.49649   1502684.01747  22057488.398    22057495.733
  22403689.488    -3566874.39749  -2771050.30346  22403688.699    22403695.767
  22065984.413     4667152.56249   3630317.90647  22065983.598    22065990.020
  23239680.174     6946286.59249   5400113.26945  23239679.124    23239689.909
  22286748.745     5904958.79349   4589129.84646  22286747.606    22286756.028
  23279979.392    -1689282.29849  -1312309.10946  23279978.776    23279986.413
 02  9  9 15 20 30.0000000  0  8G21G14G 3G31G18G17G15G 9
  20976999.095     -649207.86449   -504207.08547  20976998.236    20977005.038
  20545041.875    -6800268.29549  -5290199.69348  20545040.994    20545046.325
  22067267.261     1979075.87949   1542722.93847  22067266.479    22067273.756
  22401659.579    -3577542.39249  -2779363.06846  22401658.644    22401665.671
  22078066.517     4730644.72749   3679792.24447  22078065.713    22078072.208
  23257581.692     7040357.55449   5473415.12545  23257580.652    23257591.196
  22302895.034     5989808.53349   4655246.40246  22302893.938    22302902.667
  23282891.333    -1673979.27849  -1300384.69946  23282890.760    23282898.498
 02  9  9 15 21  0.0000000  0  8G21G14G 3G31G18G17G15G 9
  20978634.444     -640614.40549   -497510.90847  20978633.534    20978640.351
  20536848.692    -6843324.15249  -5323749.71648  20536847.796    20536853.148
  22077131.322     2030911.56249   1583114.31547  22077130.461    22077137.847
  22399740.802    -3587626.31149  -2787220.71046  22399739.773    22399746.898
  22090174.049     4794269.77949   3729370.14047  22090173.161    22090179.722
  23275531.014     7134682.16049   5546914.63645  23275529.976    23275540.853
  22319098.858     6074959.96749   4721598.04746  22319097.800    22319106.458
  23285918.817    -1658070.31949  -1287988.13246  23285918.244    23285926.034
 02  9  9 15 21 30.0000000  0  8G21G14G 3G31G18G17G15G 9
  20980302.829     -631847.07049   -490679.26447  20980301.939    20980308.719
  20528753.446    -6885864.90749  -5356898.37648  20528752.560    20528757.945
  22087080.655     2083196.19349   1623855.51347  22087079.893    22087087.320
  22397932.587    -3597127.39749  -2794624.19346  22397931.685    22397939.062
  22102306.424     4858025.78549   3779050.06047  22102305.612    22102312.205
  23293528.169     7229257.77549   5620609.73345  23293527.186    23293538.309
  22335359.893     6160410.94649   4788183.09946  22335358.753    22335367.280
  23289061.017    -1641556.96049  -1275120.56646  23289060.469    23289068.519
 02  9  9 15 22  0.0000000  0  8G21G14G 3G31G18G17G15G 9
  20982005.053     -622901.95849   -483709.09547  20982004.190    20982010.913
  20520757.109    -6927886.04649  -5389642.12948  20520756.246    20520761.565
  22097115.965     2135930.97949   1664947.47446  22097115.115    22097122.488
  22396236.196    -3606041.87949  -2801570.57446  22396235.389    22396242.767
  22114464.363     4921915.94449   3828834.51647  22114463.555    22114470.241
  23311574.111     7324087.42249   5694502.72445  23311573.103    23311583.985
  22351678.080     6246164.12549   4855003.66646  22351676.956    22351685.942
  23292319.155    -1624435.31149  -1261779.04946  23292318.514    23292326.824
 02  9  9 15 22 30.0000000  0  8G21G14G 3G31G18G17G15G 9
  20983740.509     -613782.62149   -476603.15447  20983739.599    20983746.265
  20512859.299    -6969389.52249  -5421982.51748  20512858.374    20512863.698
  22107235.651     2189111.16049   1706386.49646  22107234.910    22107242.332
  22394650.705    -3614372.63749  -2808062.09946  22394650.027    22394657.389
  22126647.237     4985936.95749   3878720.94847  22126646.361    22126653.131
  23329667.191     7419166.94349   5768590.40545  23329666.158    23329677.155
  22368053.399     6332215.72049   4922056.74046  22368052.269    22368061.193
  23295692.292    -1606708.36349  -1247965.86845  23295691.728    23295699.988
 02  9  9 15 23  0.0000000  0  8G21G14G 3G31G18G17G15G 9
  20985508.641     -604491.19349   -469363.11647  20985507.755    20985514.419
  20505059.565    -7010376.98449  -5453920.81448  20505058.733    20505064.058
  22117439.469     2242732.30449   1748169.12846  22117438.785    22117446.164
  22393176.063    -3622121.74649  -2814100.40746  22393175.417    22393182.596
  22138854.361     5050086.22349   3928707.29847  22138853.531    22138860.472
  23347807.201     7514493.12649   5842870.34445  23347806.181    23347817.540
  22384484.837     6418562.59549   4989339.91346  22384483.674    22384492.392
  23299180.365    -1588378.41249  -1233682.81145  23299179.854    23299187.947
 02  9  9 15 23 30.0000000  0  8G21G14G 3G31G18G17G15G 9
  20987310.088     -595024.63749   -461986.65147  20987309.198    20987315.890
  20497358.831    -7050845.12149  -5485454.43648  20497357.954    20497363.255
  22127727.572     2296795.09749   1790295.90246  22127726.753    22127734.215
  22391812.887    -3629286.40249  -2819683.29946  22391812.151    22391819.194
  22151086.523     5114365.97849   3978795.33447  22151085.662    22151092.555
  23365994.417     7610067.63249   5917343.77745  23365993.279    23366005.094
  22400972.602     6505206.35449   5056854.41446  22400971.570    22400980.314
  23302783.726    -1569442.46149  -1218927.55845  23302783.209    23302791.272
 02  9  9 15 24  0.0000000  0  8G21G14G 3G31G18G17G15G 9
  20989144.540     -585384.65149   -454475.05147  20989143.658    20989150.416
  20489756.590    -7090795.19049  -5516584.37748  20489755.697    20489761.024
  22138098.594     2351295.27549   1832763.49646  22138097.824    22138105.468
  22390560.403    -3635868.53149  -2824812.28046  22390559.648    22390566.760
  22163343.073     5178773.83749   4028983.19747  22163342.157    22163349.019
  23384228.299     7705887.32449   5992008.18845  23384227.287    23384239.250
  22417516.485     6592144.27449   5124598.14246  22417515.457    22417524.127
  23306502.139    -1549902.54349  -1203701.67946  23306501.614    23306509.605
 02  9  9 15 24 30.0000000  0  8G21G14G 3G31G18G17G15G 9
  20991011.960     -575571.15649   -446828.22247  20991011.095    20991017.930
  20482253.145    -7130225.94949  -5547309.63948  20482252.312    20482257.628
  22148552.461     2406231.10149   1875570.55546  22148551.826    22148559.405
  22389418.805    -3641867.90149  -2829487.12846  22389418.008    22389425.427
  22175623.891     5243309.81149   4079270.90847  22175622.986    22175629.818
  23402508.560     7801951.77849   6066863.38245  23402507.920    23402519.807
  22434116.210     6679375.82149   5192570.66146  22434115.125    22434123.918
  23310335.551    -1529758.56949  -1188005.08046  23310335.011    23310342.886
 02  9  9 15 25  0.0000000  0  8G21G14G 3G31G18G17G15G 9
  20992912.506     -565583.67249   -439045.83547  20992911.640    20992918.508
  20474848.629    -7169136.73349  -5577629.74048  20474847.748    20474853.159
  22159089.147     2461600.41349   1918715.38646  22159088.472    22159095.771
  22388388.126    -3647284.43649  -2833707.84146  22388387.292    22388394.707
  22187929.089     5307973.84149   4129658.39647  22187928.256    22187934.987
  23420835.414     7898259.51049   6141908.13645  23420834.605    23420846.900
  22450771.332     6766900.00749   5260771.23246  22450770.375    22450779.357
  23314283.828    -1509010.43549  -1171837.73746  23314283.248    23314291.241
 02  9  9 15 25 30.0000000  0  8G21G14G 3G31G18G17G15G 9
  20994846.264     -555421.77649   -431127.50147  20994845.441    20994852.260
  20467543.233    -7207526.23149  -5607543.63148  20467542.455    20467547.917
  22169707.861     2517401.34249   1962196.55946  22169707.111    22169714.268
  22387468.633    -3652117.55449  -2837473.96146  22387467.768    22387474.856
  22200258.790     5372765.62449   4180145.43347  22200257.871    22200264.478
  23439208.332     7994810.40349   6217142.39645  23439207.723    23439220.024
  22467482.492     6854716.45749   5329199.49946  22467481.505    22467490.554
  23318346.942    -1487657.75849  -1155199.32445  23318346.325    23318354.777
 02  9  9 15 26  0.0000000  0  8G21G14G 3G31G18G17G15G 9
  20996812.891     -545087.53849   -423074.88047  20996812.079    20996818.794
  20460336.955    -7245395.97549  -5637052.51648  20460336.104    20460341.545
  22180407.849     2573629.86849   2006010.91846  22180407.064    22180414.370
  22386659.733    -3656369.40549  -2840787.14446  22386658.818    22386665.504
  22212612.220     5437682.85949   4230730.20747  22212611.329    22212617.830
  23457627.583     8091601.21449   6292563.55745  23457626.792    23457638.701
  22484248.456     6942822.02749   5397853.07746  22484247.440    22484256.348
  23322524.617    -1465702.62149  -1138091.49145  23322524.053    23322532.942
 02  9  9 15 26 30.0000000  0  8G21G14G 3G31G18G17G15G 9
  20998812.747     -534578.66049   -414886.17447  20998811.935    20998818.543
  20453229.925    -7282743.10449  -5666154.18248  20453229.114    20453234.627
  22191189.346     2630286.12049   2050158.56446  22191188.490    22191195.829
  22385961.711    -3660037.74949  -2843645.64246  22385960.822    22385967.375
  22224989.694     5502727.46549   4281414.23046  22224988.890    22224995.289
  23476092.187     8188633.16249   6368172.66845  23476091.469    23476103.829
  22501069.693     7031218.06449   5466732.98746  22501068.794    22501077.634
  23326817.257    -1443142.96449  -1120512.58245  23326816.851    23326825.992
 02  9  9 15 27  0.0000000  0  8G21G14G 3G31G18G17G15G 9
  21000845.623     -523896.42549   -406562.39947  21000844.778    21000851.358
  20446222.286    -7319568.47849  -5694849.27848  20446221.525    20446226.999
  22202051.214     2687366.50949   2094636.70046  22202050.490    22202057.871
  22385374.366    -3663124.09449  -2846050.62746  22385373.588    22385380.260
  22237391.302     5567897.91849   4332196.34446  22237390.555    22237396.750
  23494602.612     8285903.71849   6443967.69045  23494601.834    23494614.072
  22517946.049     7119902.25649   5535837.42546  22517944.941    22517953.910
  23331224.972    -1419980.43749  -1102463.93445  23331224.589    23331233.718
 02  9  9 15 27 30.0000000  0  8G21G14G 3G31G18G17G15G 9
  21002911.122     -513042.45949   -398104.81447  21002910.238    21002916.856
  20439313.799    -7355873.09949  -5723138.60048  20439313.018    20439318.423
  22212993.222     2744866.89849   2139442.11246  22212992.505    22212999.949
  22384897.546    -3665630.31249  -2848003.55746  22384896.768    22384903.706
  22249816.554     5633192.07149   4383074.81746  22249815.703    22249821.866
  23513157.920     8383409.99049   6519946.34745  23513156.920    23513168.819
  22534876.350     7208871.82449   5605164.26346  22534875.241    22534884.465
  23335747.097    -1396217.07449  -1083947.04845  23335746.708    23335755.781
 02  9  9 15 28  0.0000000  0  8G21G14G 3G31G18G17G15G 9
  21005009.597     -502014.42849   -389511.59147  21005008.755    21005015.465
  20432504.982    -7391653.89349  -5751019.73648  20432504.202    20432509.561
  22224015.046     2802787.31649   2184574.82446  22224014.365    22224022.094
  22384531.652    -3667554.34849  -2849502.86046  22384530.761    22384537.534
  22262265.444     5698611.54149   4434050.95246  22262264.645    22262270.836
  23531758.092     8481153.16649   6596109.62845  23531756.963    23531768.709
  22551861.380     7298128.05649   5674714.44046  22551860.321    22551869.270
  23340384.181    -1371850.80149  -1064960.39046  23340383.568    23340392.622
 02  9  9 15 28 30.0000000  0  8G21G14G 3G31G18G17G15G 9
  21007140.877     -490814.27549   -380784.23247  21007140.069    21007146.877
  20425795.521    -7426912.12549  -5778493.69348  20425794.757    20425800.155
  22235115.997     2861123.96649   2230031.86346  22235115.490    22235123.298
  22384275.973    -3668898.07049  -2850549.96546  22384275.049    22384281.584
  22274737.968     5764154.46949   4485123.29847  22274737.100    22274743.407
  23550403.039     8579130.56049   6672455.43245  23550401.715    23550413.797
  22568900.503     7387668.33849   5744485.95646  22568899.446    22568908.065
  23345135.417    -1346883.57549  -1045505.48046  23345134.839    23345143.832
 02  9  9 15 29  0.0000000  0  8G21G14G 3G31G18G17G15G 9
  21009305.344     -479440.11649   -371921.28247  21009304.541    21009311.347
  20419185.792    -7461646.74249  -5805559.62348  20419185.062    20419190.356
  22246296.009     2919875.26249   2275812.01346  22246295.421    22246303.463
  22384130.815    -3669660.92049  -2851144.45046  22384129.889    22384136.324
  22287234.002     5829821.25549   4536292.15347  22287233.140    22287239.531
  23569092.298     8677341.76449   6748983.45545  23569090.858    23569102.998
  22585993.326     7477492.27949   5814478.51246  22585992.293    22586001.294
  23350001.131    -1321315.20849  -1025582.19746  23350000.591    23350009.322
 02  9  9 15 29 30.0000000  0  8G21G14G 3G31G18G17G15G 9
  21011502.832     -467892.46249   -362923.14447  21011502.030    21011508.840
  20412675.677    -7495857.52549  -5832217.38348  20412674.909    20412680.264
  22257554.183     2979038.54049   2321913.17646  22257553.756    22257561.907
  22384096.005    -3669843.41249  -2851286.67946  22384095.024    22384101.889
  22299753.444     5895611.38049   4587557.12147  22299752.702    22299759.035
  23587825.597     8775785.35249   6825692.48845  23587824.398    23587836.254
  22603140.154     7567598.87249   5884691.31446  22603139.132    22603148.025
  23354981.109    -1295146.32249  -1005190.93046  23354980.563    23354989.251
 02  9  9 15 30  0.0000000  0  8G21G14G 3G31G18G17G15G 9
  21013733.273     -456171.55049   -353790.00647  21013732.446    21013739.302
  20406265.351    -7529543.96349  -5858466.55348  20406264.607    20406269.994
  22268891.068     3038611.60249   2368333.63946  22268890.447    22268898.199
  22384171.754    -3669445.84149  -2850976.93246  22384170.831    22384177.819
  22312296.427     5961524.32449   4638917.74947  22312295.669    22312302.027
  23606603.363     8874460.05049   6902581.57845  23606601.860    23606613.750
  22620340.487     7657986.72649   5955123.28346  22620339.385    22620348.540
  23360075.368    -1268377.09549   -984331.87646  23360074.747    23360083.036
 02  9  9 15 30 30.0000000  0  8G21G14G 3G31G18G17G15G 9
  21015996.582     -444278.05949   -344522.40247  21015995.729    21016002.640
  20399954.805    -7562706.46749  -5884307.46248  20399953.986    20399959.342
  22280304.753     3098591.02849   2415070.75746  22280304.018    22280312.005
  22384357.732    -3668469.47449  -2850216.17446  22384356.722    22384363.721
  22324862.373     6027558.92349   4690373.17947  22324861.650    22324868.143
  23625423.843     8973363.74249   6979649.20745  23625422.430    23625434.863
  22637593.690     7748653.61949   6025772.68646  22637592.760    22637602.220
  23365283.420    -1241008.95749   -963006.12346  23365282.801    23365291.190
 02  9  9 15 31  0.0000000  0  8G21G14G 3G31G18G17G15G 9
  21018292.756     -432211.54049   -335119.98047  21018291.889    21018298.934
  20393744.022    -7595344.12649  -5909739.40148  20393743.235    20393748.640
  22291795.017     3158974.91949   2462123.06746  22291794.531    22291802.839
  22384653.596    -3666914.09549  -2849004.23446  22384652.608    22384659.713
  22337451.649     6093715.32549   4741923.56046  22337450.864    22337457.443
  23644288.594     9072496.03549   7056894.91245  23644287.091    23644299.427
  22654900.242     7839599.37149   6096639.34846  22654899.240    22654908.520
  23370605.526    -1213041.44449   -941213.32146  23370604.866    23370613.233
 02  9  9 15 31 30.0000000  0  8G21G14G 3G31G18G17G15G 9
  21020621.856     -419971.56849   -325582.41347  21020621.037    21020628.204
  20387633.254    -7627456.55249  -5934762.07548  20387632.486    20387637.874
  22303362.724     3219761.21049   2509488.89646  22303362.063    22303370.146
  22385059.497    -3664780.00249  -2847341.34246  22385058.696    22385065.974
  22350063.978     6159993.15749   4793568.56046  22350063.213    22350069.854
  23663195.831     9171855.46449   7134317.58845  23663194.601    23663206.702
  22672259.394     7930823.07449   6167722.61346  22672258.443    22672267.919
  23376041.430    -1184475.11649   -918953.88045  23376040.814    23376049.280
 02  9  9 15 32  0.0000000  0  8G21G14G 3G31G18G17G15G 9
  21022983.972     -407558.98249   -315910.33147  21022983.122    21022990.317
  20381622.337    -7659044.22149  -5959375.84248  20381621.517    20381626.922
  22315005.818     3280946.34449   2557165.53946  22315005.224    22315013.269
  22385575.740    -3662068.53649  -2845228.57246  22385574.809    22385582.054
  22362699.191     6226391.02849   4845307.07646  22362698.326    22362705.065
  23682146.429     9271440.27849   7211915.89145  23682145.301    23682157.194
  22689671.113     8022322.25149   6239020.55046  22689670.168    22689679.786
  23381591.126    -1155311.32649   -896228.90346  23381590.511    23381599.175
 02  9  9 15 32 30.0000000  0  8G21G14G 3G31G18G17G15G 9
  21025378.970     -394973.65049   -306103.61847  21025378.123    21025385.312
  20375711.298    -7690106.92849  -5983580.55248  20375710.499    20375715.942
  22326724.298     3342528.04049   2605151.18946  22326723.840    22326731.984
  22386201.474    -3658780.20549  -2842666.29046  22386200.536    22386207.851
  22375357.061     6292908.78949   4897139.01746  22375356.253    22375363.119
  23701139.392     9371248.74849   7289688.47745  23701138.184    23701150.546
  22707135.471     8114096.12749   6310532.49746  22707134.417    22707144.042
  23387254.563    -1125550.84849   -873038.96246  23387253.910    23387262.595
 02  9  9 15 33  0.0000000  0  8G21G14G 3G31G18G17G15G 9
  21027807.024     -382214.77949   -296161.69047  21027806.192    21027813.321
  20369900.468    -7720643.55849  -6007375.31848  20369899.672    20369904.948
  22338518.494     3404504.41949   2653444.37646  22338517.825    22338525.749
  22386937.073    -3654914.64049  -2839654.20946  22386936.087    22386943.567
  22388037.688     6359546.78949   4949064.63946  22388037.014    22388043.927
  23720175.046     9471280.64549   7367635.15045  23720173.874    23720186.440
  22724651.855     8206144.17249   6382258.14146  22724650.802    22724660.300
  23393031.505    -1095193.56649   -849383.96946  23393030.852    23393039.492
 02  9  9 15 33 30.0000000  0  8G21G14G 3G31G18G17G15G 9
  21030267.622     -369285.01349   -286086.58247  21030266.809    21030273.829
  20364189.269    -7750656.11749  -6030761.72748  20364188.436    20364193.747
  22350386.951     3466871.17549   2702041.74946  22350386.060    22350393.905
  22387782.097    -3650474.64249  -2836194.53546  22387781.111    22387788.642
  22400741.165     6426302.45249   5001081.96046  22400740.300    22400747.174
  23739252.518     9571532.56649   7445753.26745  23739251.448    23739264.026
  22742219.388     8298462.91749   6454194.69945  22742218.240    22742227.853
  23398921.501    -1064242.08549   -825266.00446  23398920.864    23398929.465
 02  9  9 15 34  0.0000000  0  8G21G14G 3G31G18G17G15G 9
  21032761.233     -356181.43249   -275876.04747  21032760.413    21032767.348
  20358578.300    -7780141.85549  -6053737.63648  20358577.510    20358582.887
  22362329.048     3529627.75649   2750942.90146  22362328.342    22362336.400
  22388736.702    -3645458.38149  -2832285.81646  22388735.661    22388743.195
  22413467.199     6493177.70049   5053192.44646  22413466.320    22413473.125
  23758371.701     9672005.36249   7524043.51945  23758370.672    23758383.695
  22759838.866     8391053.59349   6526343.12845  22759837.832    22759847.497
  23404924.795    -1032694.77549   -800683.74346  23404924.168    23404932.858
 02  9  9 15 34 30.0000000  0  8G21G14G 3G31G18G17G15G 9
  21035287.581     -342905.30949   -265531.07947  21035286.774    21035293.689
  20353067.451    -7809101.75749  -6076303.79348  20353066.655    20353071.929
  22374345.059     3592770.85849   2800145.20946  22374344.283    22374352.174
  22389800.467    -3639867.52849  -2827929.36246  22389799.504    22389807.075
  22426215.550     6560171.39649   5105395.23946  22426214.765    22426221.481
  23777532.453     9772696.81549   7602504.17345  23777531.597    23777544.954
  22777509.870     8483913.79849   6598701.58645  22777508.839    22777518.292
  23411041.001    -1000553.58049   -775638.72345  23411040.464    23411049.329
 02  9  9 15 35  0.0000000  0  8G21G14G 3G31G18G17G15G 9
  21037846.858     -329456.28649   -255051.36347  21037846.032    21037852.958
  20347656.736    -7837535.39649  -6098459.87048  20347655.921    20347661.201
  22386433.983     3656298.12049   2849646.87146  22386433.195    22386440.910
  22390973.577    -3633702.36049  -2823125.38346  22390972.702    22390980.323
  22438986.420     6627283.09049   5157689.99746  22438985.674    22438992.572
  23796735.125     9873605.77049   7681134.25745  23796734.282    23796747.398
  22795232.008     8577042.87849   6671269.55246  22795230.979    22795240.543
  23417270.470     -967818.73149   -750131.05145  23417269.801    23417278.756
 02  9  9 15 35 30.0000000  0  8G21G14G 3G31G18G17G15G 9
  21040438.985     -315834.82049   -244437.27147  21040438.138    21040445.054
  20342345.934    -7865443.29249  -6120206.30048  20342345.197    20342350.585
  22398595.196     3720206.18349   2899445.26146  22398594.525    22398602.336
  22392255.800    -3626964.56949  -2817875.21846  22392254.954    22392262.493
  22451779.676     6694511.29149   5210075.50546  22451778.897    22451785.794
  23815978.928     9974730.00449   7759932.08445  23815977.842    23815990.820
  22813004.912     8670438.62249   6744045.28545  22813003.875    22813013.264
  23423612.329     -934492.12549   -724162.31045  23423611.721    23423620.805
 02  9  9 15 36  0.0000000  0  8G21G14G 3G31G18G17G15G 9
  21043063.940     -302040.57849   -233688.57047  21043063.120    21043070.053
  20337135.419    -7892825.13249  -6141542.78848  20337134.694    20337139.926
  22410828.997     3784493.04449   2949538.81346  22410828.206    22410835.943
  22393646.947    -3619654.27049  -2812178.93046  22393646.042    22393653.674
  22464595.241     6761856.50849   5262552.18346  22464594.454    22464601.269
  23835262.741    10076068.78649   7838897.05945  23835261.762    23835275.337
  22830828.025     8764099.97049   6817028.03045  22830826.988    22830836.253
  23430066.740     -900573.97449   -697732.58545  23430066.053    23430075.418
 02  9  9 15 36 30.0000000  0  8G21G14G 3G31G18G17G15G 9
  21045721.812     -288073.66849   -222805.32248  21045720.961    21045727.955
  20332025.079    -7919680.92649  -6162469.36848  20332024.213    20332029.352
  22423133.982     3849155.83549   2999925.29746  22423133.148    22423141.103
  22395146.475    -3611772.32949  -2806037.19446  22395145.724    22395153.556
  22477432.928     6829318.16949   5315119.59946  22477432.207    22477439.059
  23854587.142    10177620.17449   7918027.77545  23854586.333    23854600.261
  22848701.700     8858025.80949   6890216.85445  22848700.683    22848709.917
  23436633.453     -866065.15849   -670842.60245  23436632.926    23436642.236
 02  9  9 15 37  0.0000000  0  8G21G14G 3G31G18G17G15G 9
  21048412.509     -273933.85949   -211787.36647  21048411.698    21048418.740
  20327014.570    -7946010.97349  -6182986.29648  20327013.791    20327018.915
  22435509.853     3914191.68549   3050602.46746  22435509.140    22435517.201
  22396754.987    -3603319.66749  -2799450.75446  22396754.319    22396762.024
  22490292.669     6896895.59249   5367777.25446  22490291.905    22490298.670
  23873952.251    10279383.14149   7997323.33545  23873951.496    23873965.300
  22866625.757     8952214.62149   6963610.59745  22866624.644    22866633.253
  23443312.784     -830966.77749   -643493.20945  23443311.973    23443321.157
 02  9  9 15 37 30.0000000  0  8G21G14G 3G31G18G17G15G 9
  21051135.998     -259621.93249   -200635.27047  21051135.172    21051142.253
  20322104.238    -7971815.08749  -6203093.39848  20322103.451    20322108.559
  22447956.359     3979597.91049   3101568.23646  22447955.554    22447963.427
  22398472.319    -3594297.26449  -2792420.36646  22398471.560    22398478.950
  22503174.060     6964587.99349   5420524.49946  22503173.317    22503180.229
  23893357.787    10381355.74749   8076782.22145  23893356.863    23893370.253
  22884598.769     9046664.86949   7037208.05445  22884597.803    22884606.529
  23450103.898     -795279.92849   -615685.24345  23450103.181    23450112.010
 02  9  9 15 38  0.0000000  0  8G21G14G 3G31G18G17G15G 9
  21053892.428     -245137.09749   -189348.44747  21053891.564    21053898.695
  20317294.043    -7997092.70749  -6222790.25148  20317293.241    20317298.355
  22460472.485     4045372.23649   3152820.82146  22460471.919    22460479.863
  22400297.968    -3584705.37749  -2784946.23046  22400297.067    22400304.340
  22516077.466     7032395.69249   5473361.58146  22516076.714    22516083.751
  23912802.169    10483537.15649   8156403.87845  23912801.301    23912814.847
  22902621.749     9141375.81249   7111008.67045  22902620.765    22902629.264
  23457006.733     -759005.12349   -587419.17445  23457006.152    23457014.959
 02  9  9 15 38 30.0000000  0  8G21G14G 3G31G18G17G15G 9
  21056681.916     -230478.39449   -177926.14747  21056681.093    21056688.180
  20312584.232    -8021843.19849  -6242076.33948  20312583.401    20312588.494
  22473058.877     4111512.88949   3204358.88446  22473058.265    22473066.332
  22402231.191    -3574544.23849  -2777028.48946  22402230.399    22402238.037
  22529002.725     7100318.94549   5526288.69946  22529001.977    22529009.172
  23932286.558    10585927.00549   8236187.88745  23932285.614    23932299.251
  22920694.473     9236347.12049   7185012.11345  22920693.405    22920702.081
  23464021.427     -722142.65249   -558695.19545  23464020.577    23464029.696
 02  9  9 15 39  0.0000000  0  8G21G14G 3G31G18G17G15G 9
  21059504.194     -215647.88849   -166369.95947  21059503.339    21059510.370
  20307974.160    -8046068.99449  -6260953.59148  20307973.353    20307978.487
  22485713.929     4178014.87149   3256178.51046  22485713.195    22485721.193
  22404272.469    -3563816.94549  -2768669.61346  22404271.845    22404279.359
  22541949.499     7168355.17349   5579303.83446  22541948.784    22541956.170
  23951810.024    10688521.15949   8316131.10444  23951808.637    23951822.623
  22938815.723     9331574.85249   7259215.42345  22938814.649    22938823.665
  23471146.982     -684695.70349   -529515.78345  23471146.275    23471155.549
 02  9  9 15 39 30.0000000  0  8G21G14G 3G31G18G17G15G 9
  21062359.516     -200643.84149   -154678.54447  21062358.632    21062365.613
  20303464.412    -8069767.91249  -6279420.28148  20303463.605    20303468.731
  22498437.316     4244877.70149   3308279.30946  22498436.746    22498444.569
  22406422.418    -3552522.16649  -2759868.56246  22406421.726    22406428.656
  22554918.159     7236506.04749   5632408.33446  22554917.465    22554924.788
  23971371.988    10791320.45449   8396234.19044  23971370.994    23971384.638
  22956985.421     9427059.97349   7333619.24745  22956984.610    22956994.008
  23478383.949     -646663.25549   -499880.15245  23478383.224    23478392.828
 02  9  9 15 40  0.0000000  0  8G21G14G 3G31G18G17G15G 9
  21065247.486     -185467.92049   -142853.20547  21065246.583    21065253.561
  20299054.577    -8092942.02149  -6297478.02448  20299053.727    20299058.852
  22511229.021     4312096.68349   3360657.62246  22511228.331    22511236.137
  22408679.376    -3540662.87449  -2750627.60746  22408678.456    22408685.541
  22567908.348     7304769.18249   5685600.28646  22567907.603    22567914.889
  23990972.917    10894321.40549   8476494.43144  23990971.435    23990985.326
  22975204.155     9522798.94349   7408220.91945  22975203.418    22975212.788
  23485731.956     -608048.31849   -469790.60345  23485731.266    23485740.829
 02  9  9 15 40 30.0000000  0  8G21G14G 3G31G18G17G15G 9
  21068168.428     -170118.30249   -130892.51248  21068167.551    21068174.569
  20294744.848    -8115589.71549  -6315125.58248  20294743.971    20294749.170
  22524088.073     4379670.64949   3413312.55846  22524087.339    22524095.130
  22411043.180    -3528238.32149  -2740946.16646  22411042.409    22411049.952
  22580920.059     7373145.99449   5738880.80846  22580919.334    22580926.634
  24010612.024    10997524.46249   8556912.10744  24010610.530    24010624.647
  22993471.282     9618792.17149   7483020.65645  22993470.491    22993479.733
  23493191.117     -568850.07249   -439246.54245  23493190.404    23493200.096
 02  9  9 15 41  0.0000000  0  8G21G14G 3G31G18G17G15G 9
  21071122.410     -154595.19249   -118796.63748  21071121.546    21071128.604
  20290535.213    -8137711.07149  -6332363.01048  20290534.385    20290539.634
  22537013.969     4447597.03349   3466242.09046  22537013.340    22537021.130
  22413514.845    -3515249.55949  -2730825.13346  22413514.166    22413521.553
  22593953.316     7441635.86949   5792249.45646  22593952.572    22593959.913
  24030289.012    11100927.76449   8637485.88544  24030287.878    24030301.742
  23011786.694     9715038.04849   7558017.27045  23011785.783    23011794.832
  23500761.145     -529069.69949   -408248.90545  23500760.422    23500770.130
 02  9  9 15 41 30.0000000  0  8G21G14G 3G31G18G17G15G 9
  21074109.288     -138899.24849   -106566.07648  21074108.408    21074115.548
  20286425.585    -8159307.50349  -6349191.39248  20286424.770    20286429.973
  22550006.513     4515872.13549   3519443.36846  22550005.856    22550013.661
  22416093.835    -3501698.56149  -2720265.97846  22416093.081    22416100.106
  22607007.908     7510237.42749   5845705.15246  22607007.174    22607014.410
  24050003.869    11204529.17049   8718213.99344  24050002.729    24050016.046
  23030149.131     9811534.24549   7633208.97845  23030148.150    23030157.809
  23508441.634     -488709.39549   -376799.32845  23508441.004    23508450.533
 02  9  9 15 42  0.0000000  0  8G21G14G 3G31G18G17G15G 9
  21077128.822     -123031.42549    -94201.57747  21077127.968    21077135.147
  20282415.563    -8180380.18249  -6365611.66448  20282414.777    20282419.994
  22563064.833     4584492.29649   3572913.50546  22563064.056    22563071.922
  22418779.211    -3487587.51249  -2709270.41846  22418778.423    22418785.456
  22620083.510     7578949.12649   5899246.65446  22620082.782    22620089.787
  24069756.004    11308325.65549   8799094.16044  24069754.985    24069768.535
  23048559.415     9908278.46649   7708593.90645  23048558.454    23048568.004
  23516232.154     -447771.66649   -344899.84545  23516231.362    23516240.819
 02  9  9 15 42 30.0000000  0  8G21G14G 3G31G18G17G15G 9
  21080181.453     -106989.79449    -81701.62547  21080180.614    21080187.818
  20278505.621    -8200926.83449  -6381622.04148  20278504.853    20278510.087
  22576188.092     4653456.89549   3626652.05746  22576187.521    22576195.571
  22421571.192    -3472914.89649  -2697837.25846  22421570.370    22421577.717
  22633180.552     7647773.11549   5952875.66746  22633179.844    22633186.767
  24089545.429    11412318.71849   8880127.44044  24089544.304    24089558.622
  23067017.149    10005271.82549   7784172.98345  23067015.977    23067025.554
  23524132.552     -406254.91849   -312549.18945  23524131.882    23524140.962
 02  9  9 15 43  0.0000000  0  8G21G14G 3G31G18G17G15G 9
  21083267.022      -90775.03249    -69066.78047  21083266.188    21083273.384
  20274695.712    -8220948.46849  -6397223.31648  20274694.921    20274700.070
  22589376.283     4722762.25349   3680656.12546  22589375.850    22589384.014
  22424469.513    -3457682.69249  -2685968.04546  22424468.763    22424476.225
  22646298.804     7716708.44049   6006591.41046  22646297.964    22646304.903
  24109371.905    11516505.56949   8961311.69244  24109370.818    24109384.710
  23085521.259    10102511.87349   7859944.29245  23085520.186    23085529.839
  23532142.824     -364161.08449   -279748.89845  23532142.117    23532150.953
 02  9  9 15 43 30.0000000  0  8G21G14G 3G31G18G17G15G 9
  21086385.650      -74386.70749    -56296.70047  21086384.800    21086392.019
  20270985.571    -8240445.33149  -6412415.69448  20270984.779    20270989.973
  22602629.501     4792405.97349   3734923.83946  22602628.796    22602636.873
  22427474.658    -3441892.09049  -2673663.76246  22427473.812    22427480.997
  22659437.827     7785754.35349   6060393.31446  22659436.968    22659443.984
  24129234.604    11620884.83549   9042645.90545  24129233.729    24129248.076
  23104072.303    10199997.18149   7935906.68845  23104071.284    23104080.851
  23540262.622     -321491.87649   -246500.25145  23540262.016    23540270.432
 02  9  9 15 44  0.0000000  0  8G21G14G 3G31G18G17G15G 9
  21089537.377      -57824.28449    -43390.95247  21089536.518    21089543.805
  20267375.147    -8259417.75249  -6427199.40948  20267374.409    20267379.636
  22615946.252     4862385.25249   3789453.04946  22615945.417    22615953.572
  22430585.868    -3425544.05149  -2660925.10546  22430584.869    22430592.105
  22672597.778     7854910.67549   6114281.25146  22672597.027    22672604.132
  24149134.018    11725455.03749   9124128.87445  24149133.291    24149147.356
  23122669.486    10297726.40849   8012059.24545  23122668.390    23122678.433
  23548491.817     -278248.07649   -212803.85945  23548491.229    23548499.122
 02  9  9 15 44 30.0000000  0  8G21G14G 3G31G18G17G15G 9
  21092721.903      -41089.51849    -30350.92247  21092721.083    21092728.423
  20263864.385    -8277867.13949  -6441575.55448  20263863.619    20263868.797
  22629325.883     4932695.78149   3844240.37846  22629325.074    22629333.526
  22433801.987    -3408641.29349  -2647754.16346  22433801.124    22433808.681
  22685778.646     7924175.70249   6168253.91846  22685777.872    22685784.927
  24169069.259    11830213.27649   9205758.38545  24169068.732    24169082.547
  23141312.698    10395696.73649   8088399.51245  23141311.672    23141321.492
  23556829.811     -234432.33649   -178661.79145  23556829.206    23556836.865
 02  9  9 15 45  0.0000000  0  7G21G14G 3G31G18G15G 9
  21095939.963      -24178.39749    -17173.46147  21095939.185    21095946.575
  20260453.724    -8295790.21949  -6455541.59348  20260452.970    20260458.192
  22642769.037     5003338.68349   3899286.68046  22642768.197    22642776.521
  22437124.325    -3391181.02349  -2634148.83846  22437123.652    22437131.192
  22698980.676     7993552.76849   6222313.89246  22698979.963    22698987.021
  23160002.684    10493910.55549   8164929.57645  23160001.625    23160011.085
  23565277.007     -190042.14949   -144072.09445  23565276.359    23565284.166
 02  9  9 15 45 30.0000000  0  7G21G14G 3G31G18G15G 9
  21099191.314       -7092.98149     -3860.18547  21099190.484    21099197.918
  20257142.843    -8313189.06349  -6469099.13448  20257142.072    20257147.324
  22656274.417     5074309.26149   3954588.32046  22656273.548    22656281.665
  22440552.826    -3373166.40749  -2620111.55846  22440552.019    22440559.243
  22712203.696     8063039.58549   6276459.38846  22712202.949    22712209.936
  23178737.778    10592364.52649   8241646.91945  23178736.445    23178746.525
  23573832.766     -145080.99649   -109037.52345  23573832.136    23573840.124
 02  9  9 15 46  0.0000000  0  7G21G14G 3G31G18G15G 9
  21102475.574       10165.67749      9588.07447  21102474.761    21102482.204
  20253931.386    -8330065.63149  -6482249.70548  20253930.596    20253935.825
  22669840.938     5145603.08549   4010141.84846  22669840.296    22669848.576
  22444086.092    -3354600.17649  -2605644.43046  22444085.054    22444092.234
  22725447.355     8132634.14749   6330688.82446  22725446.500    22725453.361
  23197518.294    10691055.73049   8318548.93545  23197517.021    23197527.148
  23582496.670      -99551.56149    -73560.10745  23582496.077    23582504.186
 02  9  9 15 46 30.0000000  0  7G21G14G 3G31G18G15G 9
  21105792.658       27597.23149     23171.06647  21105791.884    21105799.313
  20250819.283    -8346419.91749  -6494993.30848  20250818.510    20250823.700
  22683468.622     5217217.45849   4065945.15146  22683468.171    22683476.611
  22447723.606    -3335483.33349  -2590748.24246  22447722.755    22447730.113
  22738711.295     8202336.58349   6385002.29546  22738710.478    22738717.358
  23216344.176    10789982.97449   8395634.90045  23216342.331    23216352.249
  23591268.635      -53455.11349    -37640.84445  23591268.054    23591276.444
 02  9  9 15 47  0.0000000  0  7G21G14G 3G31G18G15G 9
  21109143.121       45203.96349     36890.56247  21109142.335    21109149.750
  20247806.730    -8362250.94849  -6507329.18948  20247805.956    20247811.153
  22697157.246     5289151.09949   4121997.23546  22697156.725    22697165.268
  22451466.403    -3315815.76649  -2575422.93946  22451465.583    22451472.976
  22751995.920     8272147.98149   6439400.68446  22751995.152    22752001.949
  23235213.758    10889145.83149   8472904.59345  23235212.416    23235222.632
  23600148.432       -6791.84949     -1279.88545  23600147.917    23600156.532
 02  9  9 15 47 30.0000000  0  7G21G14G 3G31G18G15G 9
  21112526.356       62982.95949     50744.28447  21112525.563    21112532.963
  20244893.275    -8377561.61849  -6519259.58948  20244892.492    20244897.610
  22710905.723     5361398.68149   4178293.93046  22710905.117    22710913.626
  22455313.349    -3295601.16449  -2559671.35846  22455312.451    22455320.063
  22765300.651     8342065.27149   6493881.57846  22765299.831    22765306.830
  23254128.364    10988540.70249   8550354.91645  23254126.743    23254137.268
  23609135.538       40434.77649     35520.00746  23609134.926    23609143.907
 02  9  9 15 48  0.0000000  0  7G21G14G 3G31G18G15G 9
  21115943.030       80937.79549     64735.01247  21115942.257    21115949.650
  20242079.243    -8392349.36849  -6530782.51948  20242078.431    20242083.599
  22724713.914     5433960.26249   4234835.31946  22724713.318    22724721.891
  22459264.307    -3274838.21449  -2543492.50046  22459263.466    22459271.214
  22778626.128     8412091.02849   6548446.98546  22778625.325    22778632.317
  23273086.688    11088168.55849   8627986.92045  23273085.299    23273096.143
  23618229.912       88226.01749     72759.89646  23618229.340    23618238.615
 02  9  9 15 48 30.0000000  0  7G21G14G 3G31G18G15G 9
  21119392.810       99066.50649     78861.22747  21119392.039    21119399.418
  20239364.167    -8406616.42449  -6541899.72248  20239363.420    20239368.653
  22738581.261     5506831.47449   4291617.98346  22738580.428    22738588.936
  22463319.222    -3253529.88149  -2526888.68046  22463318.408    22463326.046
  22791971.944     8482223.17349   6603095.30746  22791971.137    22791978.101
  23292089.071    11188026.50749   8705798.10745  23292087.623    23292098.621
  23627431.176      136578.83849    110437.37546  23627430.550    23627440.051
 02  9  9 15 49  0.0000000  0  7G21G14G 3G31G18G15G 9
  21122875.653      117368.54049     93122.50447  21122874.848    21122882.264
  20236748.244    -8420363.69149  -6552611.87048  20236747.471    20236752.607
  22752506.510     5580008.90649   4348639.23146  22752505.668    22752514.244
  22467477.875    -3231677.81049  -2509861.16046  22467476.949    22467484.441
  22805337.675     8552461.15349   6657826.11046  22805336.864    22805344.066
  23311135.004    11288112.45349   8783786.91745  23311133.449    23311144.407
  23636738.770      185491.12449    148550.75745  23636738.217    23636747.821
 02  9  9 15 49 30.0000000  0  7G21G14G 3G31G18G15G 9
  21126391.907      135846.64249    107520.97547  21126391.154    21126398.575
  20234231.458    -8433589.40949  -6562917.62348  20234230.664    20234235.854
  22766489.445     5653491.81149   4405898.52646  22766488.768    22766497.553
  22471739.816    -3209281.34049  -2492409.42246  22471738.968    22471746.701
  22818723.857     8622806.61149   6712640.67346  22818723.196    22818730.449
  23330224.153    11388427.11349   8861954.07945  23330222.702    23330233.718
  23646153.183      234963.46249    187100.57445  23646152.539    23646162.149
 02  9  9 15 50  0.0000000  0  7G21G14G 3G31G18G15G 9
  21129941.419      154499.31949    122055.48747  21129940.676    21129948.100
  20231813.459    -8446295.65049  -6572818.60348  20231812.747    20231817.985
  22780530.308     5727275.77749   4463392.41246  22780529.528    22780538.233
  22476104.811    -3186343.45149  -2474535.80947  22476104.017    22476111.894
  22832130.347     8693257.74249   6767537.54146  22832129.646    22832136.920
  23349355.977    11488967.61648   8940297.13345  23349354.830    23349366.636
  23655673.488      284992.79849    226084.38345  23655672.947    23655682.219
 02  9  9 15 50 30.0000000  0  7G21G14G 3G31G18G15G 9
  21133524.467      173327.79749    136726.99248  21133523.706    21133531.128
  20229494.491    -8458482.32249  -6582314.71448  20229493.733    20229498.961
  22794628.047     5801358.46349   4521119.06746  22794627.327    22794635.858
  22480572.812    -3162864.85949  -2456240.86547  22480571.984    22480579.773
  22845557.055     8763814.92849   6822517.08046  22845556.280    22845563.707
  23368530.401    11589733.10849   9018815.46944  23368529.403    23368541.904
  23665299.687      335577.98649    265501.33145  23665299.124    23665308.127
 02  9  9 15 51  0.0000000  0  7G21G14G 3G31G18G15G 9
  21137140.633      192330.64449    151534.36248  21137139.902    21137147.329
  20227274.121    -8470150.32049  -6591406.67048  20227273.340    20227278.626
  22808781.800     5875736.70449   4579076.01146  22808781.159    22808789.638
  22485143.136    -3138847.59449  -2437526.17347  22485142.280    22485150.119
  22859003.538     8834477.23449   6877578.52446  22859002.852    22859010.543
  23387748.448    11690721.43249   9097507.53644  23387747.110    23387759.082
  23675031.246      386717.25449    305350.06245  23675030.586    23675039.518
 02  9  9 15 51 30.0000000  0  7G21G14G 3G31G18G15G 9
  21140790.274      211509.33049    166478.75648  21140789.516    21140796.943
  20225152.492    -8481299.46549  -6600094.32948  20225151.769    20225157.102
  22822991.380     5950408.42049   4637261.66046  22822990.613    22822999.354
  22489815.963    -3114292.29749  -2418392.24647  22489815.085    22489823.069
  22872470.185     8905244.98349   6932722.13346  22872469.509    22872477.362
  23407008.373    11791931.90849   9176372.71644  23407006.856    23407018.966
  23684867.998      438409.66449    345629.84345  23684867.260    23684876.444
 02  9  9 15 52  0.0000000  0  7G21G14G 3G31G18G15G 9
  21144473.198      230862.63049    181559.20648  21144472.396    21144479.833
  20223129.264    -8491931.71149  -6608379.22048  20223128.510    20223133.873
  22837256.123     6025369.20949   4695672.51946  22837255.256    22837264.046
  22494590.467    -3089201.91549  -2398841.37047  22494589.660    22494597.705
  22885956.597     8976116.67849   6987946.71446  22885955.972    22885964.008
  23426310.463    11893361.40949   9255408.40145  23426309.163    23426320.343
  23694809.113      490652.41149    386338.46045  23694808.159    23694818.320
 02  9  9 15 52 30.0000000  0  7G21G14G 3G31G18G15G 9
  21148189.660      250392.48649    196777.23348  21148188.883    21148196.303
  20221204.527    -8502046.14849  -6616260.61448  20221203.792    20221209.102
  22851575.751     6100617.65549   4754307.56446  22851574.764    22851583.404
  22499466.781    -3063576.38649  -2378873.49946  22499465.974    22499473.803
  22899463.269     9047093.42649   7043253.17446  22899462.522    22899470.547
  23445654.076    11995009.74149   9334614.68444  23445652.313    23445663.595
  23704854.236      543445.11749    427475.60744  23704853.829    23704864.891
 02  9  9 15 53  0.0000000  0  7G21G14G 3G31G18G15G 9
  21151939.741      270098.86449    212132.81048  21151938.947    21151946.328
  20219378.281    -8511643.52349  -6623739.10448  20219377.526    20219382.833
  22865948.895     6176150.81549   4813164.42246  22865948.073    22865957.085
  22504444.866    -3037417.46549  -2358489.99446  22504443.918    22504451.719
  22912989.817     9118174.69249   7098641.06146  22912989.018    22912996.931
  23465038.178    12096875.34549   9413990.36544  23465037.002    23465047.794
  23715004.789      596786.10049    469039.97744  23715004.101    23715015.071
 02  9  9 15 53 30.0000000  0  7G21G14G 3G31G18G15G 9
  21155723.307      289981.20249    227625.49648  21155722.518    21155729.878
  20217650.166    -8520724.76049  -6630815.41748  20217649.442    20217654.784
  22880375.711     6251965.40949   4872240.59845  22880374.977    22880384.497
  22509523.805    -3010727.10149  -2337692.38246  22509522.952    22509530.961
  22926535.838     9189359.89149   7154109.94546  22926535.170    22926543.189
  23484464.563    12198956.38949   9493533.81845  23484463.132    23484473.613
  23725259.753      650673.36449    511030.06444  23725259.161    23725269.571
 02  9  9 15 54  0.0000000  0  8G21G14G 3G31G11G18G15G 9
  21159540.195      310038.86049    243254.79348  21159539.406    21159546.791
  20216019.943    -8529291.91649  -6637491.13948  20216019.191    20216024.475
  22894854.978     6328057.27049   4931532.83045  22894854.611    22894864.297
  22514703.082    -2983508.31949  -2316483.00046  22514702.396    22514710.711
                  -1756175.85949  -1102385.04543
  22940101.711     9260647.41849   7209658.58246  22940100.908    22940108.864
  23503930.456    12301249.87149   9573242.82345  23503929.119    23503939.863
  23735618.081      705103.76949    553443.25944  23735617.574    23735627.055
 02  9  9 15 54 30.0000000  0  7G21G14G 3G31G18G15G 9
  21163390.724      330273.33349    259021.87247  21163389.930    21163397.363
  20214487.739    -8537343.74649  -6643765.31048  20214486.992    20214492.269
  22909387.164     6404425.16149   4991040.13045  22909386.901    22909396.386
  22519983.460    -2955760.72449  -2294861.59746  22519982.710    22519990.716
  22953687.325     9332038.93449   7265288.20446  22953686.593    22953694.324
  23523436.251    12403756.34849   9653117.77545  23523435.055    23523446.131
  23746079.642      760077.39949    596279.75944  23746078.951    23746087.940
 02  9  9 15 55  0.0000000  0  8G21G14G 3G31G11G18G15G 9
  21167274.829      350684.28449    274926.46947  21167274.041    21167281.463
  20213053.403    -8544881.28749  -6649638.74248  20213052.665    20213057.979
  22923971.637     6481065.92449   5050760.08246  22923971.274    22923980.768
  22525363.839    -2927486.44949  -2272829.78146  22525363.115    22525371.040
                  -1957322.93149  -1259126.72143
  22967292.493     9403533.61349   7320998.20646  22967291.735    22967299.377
  23542982.762    12506473.60149   9733157.00445  23542981.813    23542992.923
  23756644.272      815592.24349    639537.92644  23756643.578    23756651.666
 02  9  9 15 55 30.0000000  0  8G21G14G 3G31G11G18G15G 9
  21171192.111      371269.57849    290966.91747  21171191.329    21171198.723
  20211716.173    -8551908.48549  -6655114.50248  20211715.431    20211720.763
  22938607.393     6557973.84949   5110688.18346  22938606.802    22938616.101
  22530843.469    -2898690.01549  -2250391.05546  22530842.773    22530851.038
                  -2057764.84549  -1337396.25543
  22980916.424     9475127.87549   7376785.83446  22980915.703    22980923.406
  23562568.651    12609397.35049   9813357.11845  23562567.463    23562578.942
  23767310.351      871643.45449    683214.14244  23767309.932    23767317.667
 02  9  9 15 56  0.0000000  0  8G21G14G 3G31G11G18G15G 9
  21175143.168      392032.17049    307145.51447  21175142.374    21175149.763
  20210476.508    -8558422.72649  -6660190.54648  20210475.799    20210481.102
  22953293.888     6635148.74749   5170824.31546  22953293.035    22953302.224
  22536422.927    -2869370.06249  -2227544.40246  22536422.249    22536430.629
                  -2158114.18349  -1160242.35843
  22994560.043     9546824.98949   7432653.59846  22994559.278    22994566.972
  23582194.024    12712528.81349   9893719.09945  23582192.868    23582203.807
  23778079.071      928232.18049    727309.23044  23778078.539    23778086.198
 02  9  9 15 56 30.0000000  0  8G21G14G 3G31G11G18G15G 9
  21179128.275      412973.78449    323463.60747  21179127.475    21179134.856
  20209334.660    -8564423.72849  -6664866.65548  20209333.919    20209339.151
  22968029.846     6712588.61549   5231166.96946  22968029.145    22968038.817
  22542101.951    -2839527.40949  -2204290.47246  22542101.188    22542109.451
                  -2258367.96649  -1238357.65143
  23008223.155     9618625.43349   7488601.88946  23008222.529    23008230.172
  23601858.932    12815867.39049   9974242.38045  23601857.683    23601868.575
  23788949.259      985357.67749    771822.56744  23788948.742    23788956.653
 02  9  9 15 57  0.0000000  0  8G21G14G 3G31G11G18G15G 9
  21183146.470      434089.29849    339917.20347  21183145.643    21183153.058
  20208289.443    -8569916.30149  -6669146.60948  20208288.693    20208293.986
  22982815.413     6790286.73349   5291710.80446  22982814.797    22982824.361
  22547879.275    -2809167.75949  -2180633.68846  22547878.409    22547886.511
                  -2358528.36549  -1316400.18243
  23021905.312     9690524.82249   7544627.29846  23021904.587    23021912.257
  23621562.102    12919407.21349  10054922.57145  23621560.873    23621572.137
  23799920.767     1043013.98348    816749.47744  23799919.861    23799928.543
 02  9  9 15 57 30.0000000  0  7G21G14G 3G31G18G15G 9
  21187197.301      455376.36949    356504.47747  21187196.429    21187203.914
  20207340.203    -8574904.56549  -6673033.58748  20207339.500    20207344.756
  22997649.649     6868236.63849   5352450.84046  22997648.668    22997657.736
  22553753.908    -2778296.18349  -2156578.00746  22553753.071    22553761.172
  23035605.691     9762519.72949   7600727.10746  23035604.882    23035612.545
  23641302.925    13023143.69749  10135756.01644  23641301.498    23641312.206
  23810991.848     1101195.96648    862086.04944  23810991.185    23811000.820
 02  9  9 15 58  0.0000000  0  7G21G14G 3G31G18G15G 9
  21191281.900      476841.31749    373230.36247  21191281.042    21191288.581
  20206488.065    -8579383.20749  -6676523.45048  20206487.310    20206492.478
  23012531.525     6946441.33549   5413389.43646  23012530.647    23012539.966
  22559726.976    -2746908.43049  -2132120.07546  22559725.987    22559734.267
  23049325.059     9834615.87349   7656905.79746  23049324.295    23049332.159
  23661081.357    13127081.06749  10216745.94644  23661079.956    23661090.733
  23822164.194     1159907.88648    907835.52044  23822162.560    23822173.717
 02  9  9 15 58 30.0000000  0  7G21G14G 3G31G18G15G 9
  21195404.939      498507.93649    390113.38247  21195404.067    21195411.616
  20205737.201    -8583329.18949  -6679598.27048  20205736.410    20205741.621
  23027465.761     7024922.03949   5474543.10846  23027465.047    23027474.558
  22565802.440    -2714982.37749  -2107242.72346  22565801.480    22565809.677
  23063068.032     9906836.70149   7713181.66146  23063067.311    23063075.376
  23680902.747    13231241.55549  10297909.77844  23680901.422    23680912.915
  23833441.297     1219171.45648    954014.89644  23833439.822    23833452.005
 02  9  9 15 59  0.0000000  0  7G21G14G 3G31G18G15G 9
  21199560.651      520346.58649    407130.45647  21199559.840    21199567.365
  20205081.740    -8586773.18349  -6682281.91748  20205081.023    20205086.261
  23042446.624     7103646.07549   5535886.36346  23042445.946    23042455.259
  22571974.258    -2682549.52849  -2081970.46046  22571973.378    22571981.320
  23076829.178     9979152.23249   7769531.28946  23076828.404    23076836.559
  23700760.597    13335594.02949  10379223.15844  23700759.243    23700770.919
  23844818.154     1278955.22648   1000599.65744  23844816.944    23844828.536
 02  9  9 15 59 30.0000000  0  7G21G14G 3G31G18G15G 9
  21203749.833      542360.61649    424284.19247  21203749.010    21203756.495
  20204522.380    -8589712.93749  -6684572.65048  20204521.641    20204526.872
  23057474.020     7182613.29549   5597419.11246  23057473.233    23057482.338
  22578242.664    -2649608.75949  -2056302.39946  22578241.828    22578249.719
  23090609.060    10051565.33749   7825956.94346  23090608.364    23090616.388
  23720655.133    13440139.65849  10460687.12844  23720654.123    23720665.383
  23856293.596     1339260.04648   1047590.46344  23856292.871    23856304.141
 02  9  9 16  0  0.0000000  0  7G21G14G 3G31G18G15G 9
  21207972.648      564551.10949    441575.43447  21207971.806    21207979.255
  20204058.909    -8592148.77949  -6686470.73148  20204058.141    20204063.377
  23072546.710     7261820.96449   5659139.26346  23072545.988    23072555.317
  22584607.691    -2616161.51449  -2030239.70446  22584606.842    22584614.653
  23104407.636    10124075.95249   7882458.59046  23104406.891    23104414.800
  23740585.410    13544877.23949  10542300.56544  23740584.454    23740596.340
  23867868.319     1400084.99248   1094986.51944  23867866.833    23867878.952
 02  9  9 16  0 30.0000000  0  8G21G14G 3G31G25G18G15G 9
  21212229.399      586920.17949    459005.83347  21212228.549    21212235.969
  20203691.494    -8594079.83949  -6687975.47348  20203690.706    20203695.985
  23087665.339     7341268.39149   5721046.19746  23087664.681    23087673.844
  22591068.938    -2582207.89549  -2003782.42646  22591068.059    22591075.980
                  -1593761.05649  -1215001.37245                  24145073.664
  23118225.036    10196685.70549   7939037.49946  23118224.256    23118232.090
  23760553.110    13649806.77549  10624063.62544  23760551.942    23760564.028
  23879541.285     1461429.28948   1142787.17544  23879539.808    23879552.388
 02  9  9 16  1  0.0000000  0  8G21G14G 3G31G25G18G15G 9
  21216520.466      609469.19449    476576.44947  21216519.589    21216526.998
  20203420.148    -8595505.80449  -6689086.64448  20203419.364    20203424.686
  23102829.011     7420953.76749   5783138.56046  23102828.275    23102837.486
  22597626.138    -2547748.35749  -1976930.91346  22597625.439    22597633.497
  24125912.632    -1694391.31049  -1293414.31545  24125910.480    24125923.291
  23132061.549    10269395.71249   7995694.51146  23132060.668    23132068.514
  23780557.595    13754928.15548  10705976.22044  23780556.363    23780568.252
  23891313.857     1523292.44549   1190992.18945  23891312.696    23891324.683
 02  9  9 16  1 30.0000000  0  8G21G14G 3G31G25G18G15G 9
  21220844.964      632194.62149    494284.53347  21220844.105    21220851.596
  20203244.306    -8596430.38349  -6689807.10948  20203243.515    20203248.745
  23118036.491     7500871.11049   5845411.68245  23118035.976    23118045.264
  22604279.342    -2512787.68049  -1949688.93446  22604278.493    22604286.328
  24106764.378    -1795004.93449  -1371814.38145  24106764.624    24106776.384
  23145916.258    10342203.07749   8052427.39746  23145915.476    23145923.634
  23800597.527    13860236.69248  10788034.54844  23800595.772    23800608.542
  23903184.272     1585669.44549   1239597.54045  23903183.339    23903194.797
 02  9  9 16  2  0.0000000  0  8G21G14G 3G31G25G18G15G 9
  21225203.612      655099.68549    512132.58547  21225202.778    21225210.405
  20203164.077    -8596852.18449  -6690135.80148  20203163.241    20203168.454
  23133288.097     7581020.01049   5907865.23345  23133287.757    23133297.311
  22611027.848    -2477325.53249  -1922056.19046  22611026.912    22611034.631
  24087623.278    -1895597.25149  -1450197.79545  24087623.125    24087634.509
  23159789.943    10415109.40749   8109237.41546  23159789.102    23159797.593
  23820671.878    13965733.01048  10870239.25344  23820670.854    23820683.959
  23915152.394     1648560.61849   1288603.56245  23915151.654    23915162.604
 02  9  9 16  2 30.0000000  0  8G21G14G 3G31G25G18G15G 9
  21229596.414      678184.24749    530120.50747  21229595.587    21229603.369
  20203179.189    -8596772.50549  -6690073.74448  20203178.421    20203183.676
  23148583.467     7661396.83649   5970496.39345  23148583.159    23148592.826
  22617870.992    -2441364.33949  -1894034.58046  22617870.114    22617877.901
  24068486.354    -1996165.93749  -1528562.78945  24068485.793    24068497.328
  23173682.474    10488114.18549   8166124.13546  23173681.564    23173690.163
  23840782.479    14071415.09948  10952588.64844  23840781.142    23840794.753
  23927217.964     1711963.48649   1338008.30545  23927217.192    23927227.966
 02  9  9 16  3  0.0000000  0  8G21G14G 3G31G25G18G15G 9
  21234023.606      701449.22649    548249.01747  21234022.772    21234030.676
  20203289.790    -8596191.58749  -6689621.10248  20203289.014    20203294.264
  23163921.646     7741999.24049   6033303.33045  23163921.112    23163931.125
  22624808.966    -2404905.15749  -1865624.91146  22624808.121    22624816.063
  24049353.898    -2096707.84049  -1606906.89445  24049353.240    24049364.977
  23187593.701    10561217.90549   8223087.91945  23187592.823    23187601.472
  23860927.994    14177281.92049  11035082.10145  23860926.983    23860940.698
  23939380.383     1775876.87249   1387810.86444  23939379.780    23939390.078
 02  9  9 16  3 30.0000000  0  8G21G14G 3G31G25G18G15G 9
  21238485.317      724895.75949    566518.98847  21238484.503    21238492.510
  20203495.579    -8595109.89849  -6688778.25948  20203494.842    20203500.145
  23179302.025     7822825.00549   6096284.31245  23179301.593    23179311.807
  22631841.369    -2367949.61249  -1836828.46846  22631840.493    22631848.725
  24030226.895    -2197219.37849  -1685227.34045  24030226.321    24030238.052
  23201523.839    10634420.82249   8280128.99645  23201523.049    23201531.679
  23881109.134    14283332.52249  11117718.67445  23881108.122    23881121.693
  23951639.962     1840299.04648   1438009.86144  23951639.095    23951648.977
 02  9  9 16  4  0.0000000  0  8G21G14G 3G31G25G18G15G 9
  21242981.649      748524.19349    584930.70347  21242980.850    21242988.901
  20203796.512    -8593528.05449  -6687545.68248  20203795.853    20203801.126
  23194725.222     7903871.54349   6159437.29645  23194724.366    23194734.465
  22638968.239    -2330499.22449  -1807646.44246  22638967.229    22638975.399
  24011106.514    -2297697.61149  -1763521.79945  24011105.797    24011117.732
  23215472.752    10707723.12449   8337247.48845  23215472.023    23215480.925
  23901325.342    14389565.65949  11200497.48945  23901324.127    23901337.406
  23963996.091     1905228.68148   1488604.36444  23963996.149    23964004.505
 02  9  9 16  4 30.0000000  0  8G21G14G 3G31G25G18G15G 9
  21247512.191      772332.17349    603482.32947  21247511.454    21247519.463
  20204192.031    -8591449.58849  -6685926.12748  20204191.399    20204196.642
  23210188.746     7985133.36649   6222758.08545  23210188.002    23210198.229
  22646188.217    -2292558.56449  -1778082.39746  22646187.221    22646195.148
  23991992.255    -2398142.54749  -1841790.32645  23991991.550    23992003.933
  23229440.222    10781122.00649   8394441.33445  23229439.465    23229448.243
  23921574.312    14495976.87449  11283415.13045  23921573.389    23921586.976
  23976447.596     1970660.88558   1539590.44844  23976446.945
 02  9  9 16  5  0.0000000  0  8G21G14G 3G31G25G18G15G 9
  21252077.634      796323.23349    622176.61347  21252076.863    21252084.839
  20204682.621    -8588872.13149  -6683917.75248  20204681.920    20204687.201
  23225693.426     8066610.61949   6286246.68245  23225692.628    23225702.988
  22653501.333    -2254126.50549  -1748135.41446  22653500.568    22653508.734
  23972885.376    -2498548.20749  -1920028.26445  23972884.787    23972897.216
  23243426.603    10854620.49049   8451712.75945  23243425.870    23243434.671
  23941858.675    14602567.89449  11366472.79945  23941857.415    23941870.698
                   2036597.25948   1590969.54043
 02  9  9 16  5 30.0000000  0  8G21G14G 3G31G25G18G15G 9
  21256677.427      820495.11449    641011.80147  21256676.669    21256684.575
  20205267.455    -8585799.18549  -6681523.28048  20205266.705    20205272.022
  23241238.033     8148297.87449   6349898.97945  23241237.416    23241247.603
  22660907.762    -2215207.34449  -1717808.87446  22660906.850    22660915.115
  23953786.231    -2598914.43649  -1998235.50445  23953785.759    23953797.643
  23257431.476    10928215.92849   8509059.72945  23257430.666    23257439.489
  23962176.336    14709334.49549  11449667.32945  23962174.832    23962188.116
                   2103032.18048   1642737.01643
 02  9  9 16  6  0.0000000  0  8G21G14G 3G31G25G18G15G 9
  21261311.780      844848.29149    659988.26547  21261310.991    21261318.775
  20205946.366    -8582231.31949  -6678743.14848  20205945.655    20205950.958
  23256822.487     8230192.50349   6413712.81745  23256821.487    23256831.593
  22668406.335    -2175802.98449  -1687104.24646  22668405.330    22668413.857
  23934695.324    -2699238.21149  -2076409.59245  23934694.577    23934706.305
  23271454.910    11001908.36449   8566482.28145  23271454.078    23271462.908
  23982526.370    14816275.28449  11532997.58045  23982525.033    23982538.708
                   2169964.27148    257682.86843
 02  9  9 16  6 30.0000000  0  8G21G14G 3G31G25G18G15G 9
  21265981.008      869385.13249    679107.84147  21265980.238    21265987.947
  20206719.474    -8578168.47249  -6675577.31548  20206718.790    20206724.064
  23272445.672     8312292.94949   6477687.05645  23272444.792    23272454.950
  22675996.783    -2135913.97649  -1656021.96846  22675995.985    22676004.515
  23915612.535    -2799515.46749  -2154547.50945  23915612.047    23915623.959
  23285496.907    11075699.10949   8623981.42145  23285496.115    23285504.801
  24002909.675    14923389.97349  11616463.37645  24002908.651    24002922.047
                   2237392.74458    310178.55343
 02  9  9 16  7  0.0000000  0  8G21G14G 3G31G25G18G15G 9
  21270685.181      894105.10849    698370.11747  21270684.391    21270691.986
  20207586.522    -8573612.33849  -6672027.11148  20207585.859    20207591.105
  23288107.166     8394595.86349   6541819.04745  23288106.528    23288116.743
  22683679.383    -2095543.01549  -1624564.16946  22683678.466    22683686.591
  23896539.390    -2899743.94649  -2232647.39845  23896539.001    23896550.872
  23299557.661    11149587.28049   8681556.44145  23299556.852    23299565.510
  24023326.271    15030676.37449  11700062.94745  24023325.257    24023338.522
                   2305314.49948    363025.88543
 02  9  9 16  7 30.0000000  0  8G21G14G 3G31G25G18G15G 9
  21275423.895      919007.03749    717774.18347  21275423.091    21275430.655
  20208547.093    -8568564.67149  -6668093.89448  20208546.374    20208551.727
  23303807.345     8477097.12449   6606105.55345  23303806.380    23303816.669
  22691452.919    -2054693.12549  -1592733.16846  22691452.005    22691459.878
  23877476.383    -2999921.77949  -2310707.80745  23877475.738    23877487.445
  23313636.549    11223571.87749   8739206.63445  23313635.765    23313644.419
  24043774.356    15138131.85849  11783794.31645  24043773.741    24043787.176
                   2373726.89148    268785.37143
 02  9  9 16  8  0.0000000  0  8G21G14G 3G31G25G18G15G 9
  21280197.551      944092.48849    737321.24947  21280196.726    21280204.333
  20209601.048    -8563025.88049  -6663777.98348  20209600.375    20209605.719
  23319544.145     8559794.34249   6670544.82745  23319543.206    23319553.542
  22699317.082    -2013365.79649  -1560530.12946  22699316.211    22699324.392
  23858423.304    -3100045.62149  -2388726.21745  23858422.688    23858434.241
  23327733.814    11297653.24949   8796932.27646  23327733.126    23327741.713
  24064254.665    15245755.64748  11867656.71944  24064254.614    24064267.158
                   2442628.44648    322506.98643
 02  9  9 16  8 30.0000000  0  8G21G14G 3G31G25G18G15G 9
  21285005.996      969361.30249    757011.19447  21285005.237    21285012.902
  20210748.314    -8556997.31749  -6659080.41848  20210747.591    20210752.859
  23335318.169     8642684.73849   6735134.59445  23335317.045    23335326.916
  22707271.363    -1971563.37749  -1527956.87446  22707270.684    22707279.684
  23839380.746    -3200113.08749  -2466700.70345  23839380.262    23839391.624
  23341849.447    11371830.99749   8854732.97045  23341848.684    23341857.266
  24084765.407    15353545.28349  11951648.37544  24084765.725    24084779.245
                   2512016.57748    376639.61543
 02  9  9 16  9  0.0000000  0  7G21G14G 3G31G25G18G15
  21289849.379      994813.30149    776843.88447  21289848.634    21289856.354
  20211988.396    -8550480.72449  -6654002.57948  20211987.692    20211992.995
  23351128.418     8725764.66549   6799872.02945  23351127.081    23351136.546
  22715315.781    -1929288.51149  -1495015.50146  22715315.244    22715324.443
  23820349.481    -3300122.00549  -2544629.60145  23820348.976    23820360.133
  23355983.122    11446104.45849   8912608.25645  23355982.440    23355991.049
  24105308.923    15461498.69949  12035767.73645  24105308.880    24105322.151
 02  9  9 16  9 30.0000000  0  7G21G14G 3G31G25G18G15
  21294728.279     1020451.54749    796821.69947  21294727.507    21294735.272
  20213321.820    -8543474.21849  -6648543.00148  20213321.069    20213326.404
  23366973.682     8809033.91749   6864757.03545  23366972.852    23366982.477
  22723450.681    -1886540.48949  -1461705.43246  22723449.972    22723458.919
  23801330.443    -3400066.96949  -2622508.60145  23801329.842    23801341.235
  23370135.374    11520476.13749   8970560.07745  23370134.733    23370143.746
  24125883.624    15569617.23649  12120015.69044  24125883.240    24125896.377
 02  9  9 16 10  0.0000000  0  7G21G14G 3G31G25G18G15
  21299641.960     1046272.75449    816942.08847  21299641.195    21299648.962
  20214747.395    -8535982.90849  -6642705.63748  20214746.642    20214751.974
  23382853.530     8892485.59349   6929784.16945  23382853.277    23382862.780
  22731674.605    -1843325.40049  -1428031.43246  22731673.689    22731682.415
  23782323.480    -3499949.06849  -2700338.62645  23782322.791    23782334.205
  23384305.713    11594942.01449   9028585.30745  23384305.153    23384314.552
  24146488.367    15677895.10949  12204387.74144  24146488.173    24146501.066
 02  9  9 16 10 30.0000000  0  8G21G14G 3G31G11G25G18G15
  21304590.810     1072278.86049    837206.53947  21304590.059    21304597.809
  20216265.319    -8528006.39349  -6636490.19748  20216264.571    20216269.888
  23398768.996     8976118.41449   6994952.40245  23398768.289    23398777.236
  22739986.921    -1799643.84849  -1393993.92046  22739986.016    22739995.055
                  -1298604.31849  -1000035.55043
  23763329.208    -3599763.80249  -2778116.22545  23763328.500    23763339.708
  23398494.469    11669503.55949   9086685.07545  23398493.819    23398503.266
  24167124.002    15786332.40849  12288884.09545  24167123.807    24167136.023
 02  9  9 16 11  0.0000000  0  8G21G14G 3G31G11G25G18G15
  21309574.962     1098470.38449    857615.46747  21309574.199    21309581.958
  20217875.464    -8519545.30249  -6629897.16148  20217874.726    20217880.007
  23414717.733     9059929.52749   7060259.60245  23414717.029    23414725.903
  22748387.589    -1755497.78149  -1359594.46346  22748386.769    22748395.944
                  -1395201.43949  -1075306.12844                  23861245.925
  23744348.446    -3699508.23449  -2855839.03845  23744347.730    23744358.720
  23412701.476    11744160.68649   9144859.34345  23412700.874    23412710.195
  24187789.593    15894927.48149  12373503.34844  24187789.070    24187801.596
 02  9  9 16 11 30.0000000  0  8G21G14G 3G31G11G25G18G15
  21314594.030     1124845.51549    878167.46147  21314593.244    21314601.022
  20219577.234    -8510602.73349  -6622928.94848  20219576.429    20219581.756
  23430699.657     9143914.47749   7125702.30445  23430698.864    23430707.865
  22756876.450    -1710891.19049  -1324836.18246  22756875.492    22756884.189
  23842884.480    -1491641.19749  -1150453.94945  23842885.804    23842892.227
  23725381.115    -3799181.55749  -2933506.40245  23725380.541    23725391.745
  23426926.396    11818911.96849   9203106.96445  23426925.767    23426935.062
  24208484.229    16003676.95349  12458242.91844  24208482.967    24208495.946
 02  9  9 16 12  0.0000000  0  8G21G14G 3G31G11G25G18G15
  21319648.157     1151405.07449    898863.16247  21319647.355    21319655.193
  20221370.230    -8501179.89349  -6615586.49848  20221369.527    20221374.881
  23446714.401     9228070.23149   7191278.06045  23446713.556    23446722.621
  22765452.210    -1665826.40549  -1289720.84546  22765451.226    22765459.680
  23824567.034    -1587921.47149  -1225477.50345  23824564.137    23824569.479
  23706427.500    -3898781.13649  -3011116.32145  23706427.112    23706438.742
  23441169.248    11893756.93849   9261427.55545  23441168.516    23441177.651
  24229208.400    16112579.14449  12543101.48544  24229206.648    24229219.580
 02  9  9 16 12 30.0000000  0  8G21G14G 3G31G11G25G18G15
  21324737.038     1178147.40549    919701.28647  21324736.262    21324744.104
  20223254.105    -8491279.91449  -6607872.25348  20223253.413    20223258.808
  23462760.985     9312391.98149   7256983.19145  23462759.719    23462768.867
  22774114.008    -1620307.59249  -1254251.72746  22774113.248    22774121.618
  23806273.565    -1684041.65149  -1300376.29845  23806272.171    23806277.704
  23687488.497    -3998306.06549  -3088668.03545  23687487.983    23687499.561
  23455429.536    11968693.38149   9319819.40646  23455428.724    23455437.695
  24249960.615    16221630.28749  12628076.15644  24249958.513    24249972.004
 02  9  9 16 13  0.0000000  0  8G21G14G 3G31G11G25G18G15
  21329861.696     1205077.34649    940685.60947  21329860.924    21329868.743
  20225229.373    -8480899.76649  -6599783.85748  20225228.705    20225234.153
  23478838.024     9396880.73949   7322818.44845  23478837.200    23478846.849
  22782863.142    -1574332.68449  -1218427.22746  22782862.232    22782870.448
  23788012.983    -1779995.25049  -1375145.30845  23788012.252    23788018.440
  23668564.721    -4097748.89049  -3166155.81645  23668564.404    23668576.070
  23469707.933    12043725.75749   9378286.02646  23469707.280    23469716.093
  24270741.471    16330832.95349  12713168.83644  24270739.426    24270752.252
 02  9  9 16 13 30.0000000  0  8G21G14G 3G31G11G25G18G15
  21335022.347     1232195.97149    961816.94747  21335021.532    21335029.310
  20227296.082    -8470039.26649  -6591321.15448  20227295.425    20227300.859
  23494946.522     9481534.77649   7388782.48645  23494946.317    23494955.868
  22791698.442    -1527902.82549  -1182248.18346  22791697.557    22791705.938
  23769785.632    -1875778.69149  -1449781.71345  23769784.842    23769791.686
  23649657.359    -4197106.18849  -3243576.94345  23649657.123    23649668.933
  23484004.942    12118854.88549   9436828.03945  23484004.092    23484012.663
  24291550.680    16440186.54249  12798379.13144  24291549.000    24291561.935
 02  9  9 16 14  0.0000000  0  8G21G14G 3G31G11G25G18G15
  21340218.573     1259502.26549    983094.53247  21340217.805    21340225.589
  20229453.651    -8458701.48449  -6582486.54548  20229452.921    20229458.380
  23511086.646     9566349.74849   7454871.90645  23511086.282    23511095.640
  22800619.617    -1481021.83849  -1145717.65446  22800618.899    22800627.433
  23751590.985    -1971391.49249  -1524285.16745  23751589.747    23751597.160
  23630766.932    -4296376.72449  -3320930.43645  23630766.551    23630778.268
  23498319.558    12194079.11049   9495444.13945  23498318.872    23498327.311
  24312388.639    16549687.86049  12883704.57644  24312387.352    24312400.307
 02  9  9 16 14 30.0000000  0  8G21G14G 3G31G11G25G18G15
  21345450.509     1286995.93149   1004518.11847  21345449.723    21345457.523
  20231701.561    -8446888.49949  -6573281.64548  20231700.895    20231706.300
  23527256.596     9651321.98849   7521083.87645  23527256.169    23527265.471
  22809626.186    -1433692.83749  -1108838.01646  22809625.504    22809634.055
  23733429.084    -2066832.04649  -1598654.40145  23733427.910    23733435.545
  23611893.348    -4395557.94249  -3398214.37745  23611893.026    23611904.622
  23512652.169    12269397.17749   9554133.41545  23512651.510    23512660.044
  24333254.388    16659334.41848  12969143.16044  24333253.311    24333265.566
 02  9  9 16 15  0.0000000  0  8G21G14G 3G31G11G25G18G15
  21350718.283     1314678.19049   1026088.66447  21350717.516    21350725.377
  20234039.887    -8434600.96449  -6563706.96348  20234039.196    20234044.560
  23543455.980     9736448.90249   7587416.38245  23543455.495    23543465.099
  22818717.627    -1385917.62649  -1071610.68246  22818716.931    22818724.971
  23715299.948    -2162097.74649  -1672887.38845  23715299.060    23715306.962
  23593037.677    -4494647.07149  -3475426.51545  23593037.110    23593048.652
  23527002.955    12344809.75249   9612896.32045  23527002.245    23527010.708
  24354147.305    16769125.02948  13054693.87944  24354146.449    24354158.456
 02  9  9 16 15 30.0000000  0  7G21G14G 3G31G11G25G18
  21356021.645     1342547.57549   1047805.02747  21356020.864    21356028.771
  20236468.077    -8421841.18749  -6553764.31248  20236467.345    20236472.741
  23559684.009     9821726.53649   7653866.32145  23559683.450    23559693.139
  22827893.126    -1337699.77049  -1034038.40046  22827892.419    22827900.587
  23697204.719    -2257187.62449  -1746983.38045  23697204.167    23697212.009
  23574199.305    -4593642.60049  -3552565.73245  23574198.662    23574210.496
  23541371.528    12420315.38749   9671731.72345  23541370.778    23541378.866
 02  9  9 16 16  0.0000000  0  7G21G14G 3G31G11G25G18
  21361360.900     1370605.49649   1069668.29647  21361360.098    21361368.038
  20238985.986    -8408609.48849  -6543453.92148  20238985.252    20238990.730
  23575939.690     9907152.93649   7720432.19745  23575939.436    23575949.294
  22837152.718    -1289040.35749   -996122.07846  22837151.998    22837160.280
  23679143.940    -2352097.74849  -1820939.28245  23679143.111    23679151.239
  23555379.797    -4692540.50249  -3629628.88545  23555379.160    23555390.645
  23555757.704    12495915.01249   9730640.35845  23555756.939    23555764.585
 02  9  9 16 16 30.0000000  0  8G21G14G 3G31G11G25G18G 9
  21366736.160     1398852.86449   1091679.18747  21366735.387    21366743.370
  20241593.296    -8394907.79749  -6532777.29348  20241592.617    20241598.053
  23592224.125     9992724.53549   7787111.22345  23592223.433    23592233.065
  22846496.004    -1239942.64649   -957864.21646  22846495.171    22846503.493
  23661117.798    -2446826.64649  -1894753.98045  23661116.890    23661124.968
  23536578.927    -4791338.40149  -3706614.14045  23536578.357    23536589.666
  23570161.498    12571607.80349   9789621.63145  23570160.747    23570168.551
                  -1119720.15049   -882053.49943
 02  9  9 16 17  0.0000000  0  8G21G14G 3G31G11G25G18G 9
  21372147.553     1427290.01549   1113837.96747  21372146.821    21372154.827
  20244290.079    -8380736.20649  -6521734.50848  20244289.360    20244294.821
  23608535.066    10078439.79249   7853902.18245  23608534.532    23608544.161
  22855922.049    -1190407.69349   -919265.64645  22855921.245    22855929.601
  23643126.414    -2541370.83549  -1968424.74945  23643125.745    23643133.896
  23517797.504    -4890032.66749  -3783518.62745  23517797.039    23517808.676
  23584583.332    12647394.88049   9848676.37545  23584582.703    23584590.740
                  -1042415.17449   -821815.90043
 02  9  9 16 17 30.0000000  0  8G21G14G 3G31G11G25G18G 9
  21377595.112     1455917.02549   1136144.68147  21377594.369    21377602.469
  20247075.829    -8366096.74649  -6510327.15548  20247075.132    20247080.676
  23624873.168    10164294.92149   7920802.09945  23624872.461    23624882.433
  22865430.992    -1140438.66149   -880328.85245  22865430.171    22865438.511
  23625170.622    -2635728.52049  -2041950.18145  23625170.115    23625178.331
  23499035.994    -4988621.37349  -3860340.90745  23499035.916    23499047.700
  23599022.976    12723275.31549   9907803.77345  23599022.336    23599030.586
                   -964665.91949   -761232.15943
 02  9  9 16 18  0.0000000  0  8G21G14G 3G31G11G25G18G 9
  21383078.711     1484733.10749   1158598.71847  21383077.963    21383086.091
  20249950.132    -8350992.27249  -6498557.45948  20249949.422    20249954.985
  23641236.785    10250285.48049   7987807.57345  23641235.903    23641246.161
  22875021.951    -1090039.24949   -841056.67045  22875020.923    22875029.440
  23607250.992    -2729899.00149  -2115329.76845  23607250.231    23607258.138
  23480295.518    -5087102.89249  -3937079.59245  23480295.400    23480307.210
  23613480.182    12799247.77149   9967002.92545  23613479.568    23613487.900
  24347351.285     -886476.10549   -700305.12645  24347349.241    24347358.674
 02  9  9 16 18 30.0000000  0  8G21G14G 3G31G11G25G18G 9
  21388598.517     1513739.37149   1181200.95547  21388597.712    21388605.824
  20252912.869    -8335422.89949  -6486425.50748  20252912.151    20252917.654
  23657625.242    10336409.62049   8054917.17845  23657624.558    23657634.827
  22884693.995    -1039210.91649   -801450.25645  22884693.017    22884702.113
  23589367.444    -2823878.78249  -2188560.75445  23589366.631    23589374.346
  23461576.112    -5185473.47049  -4013731.86045  23461575.969    23461587.914
  23627955.023    12875313.06649  10026274.45045  23627954.307    23627962.868
  24362316.046     -807847.16149   -639035.94245  24362311.343    24362321.844
 02  9  9 16 19  0.0000000  0  8G21G14G 3G31G11G25G18G 9
  21394154.341     1542934.90249   1203950.67047  21394153.535    21394161.589
  20255963.510    -8319392.09749  -6473933.99548  20255962.749    20255968.176
  23674039.049    10422662.49249   8122127.01845  23674038.184    23674048.270
  22894446.993     -987958.08349   -761513.08245  22894446.035    22894455.492
  23571519.984    -2917667.60349  -2261642.90546  23571519.277    23571526.862
  23442878.012    -5283732.57049  -4090297.27045  23442877.764    23442889.876
  23642447.111    12951469.12249  10085616.70145  23642446.504    23642455.041
  24377358.819     -728783.74548   -577428.13644  24377354.579    24377367.132
 02  9  9 16 19 30.0000000  0  8G21G14G 3G31G11G25G18G 9
  21399746.656     1572322.50349   1226850.04947  21399745.894    21399753.926
  20259102.369    -8302897.82349  -6461081.33748  20259101.596    20259106.923
  23690477.143    10509044.33049   8189437.38045  23690476.383    23690486.543
  22904281.235     -936279.94949   -721244.52445  22904280.157    22904289.490
  23553710.001    -3011259.89749  -2334571.89945  23553709.276    23553716.845
  23424201.606    -5381874.01249  -4166771.03245  23424201.763    23424213.819
  23656957.249    13027719.14049  10145032.10045  23656956.600    23656965.067
  24392486.326     -649285.14648   -515481.21144  24392484.393    24392494.405
 02  9  9 16 20  0.0000000  0  7G21G14G 3G31G11G25G18
  21405375.559     1601902.21249   1249899.11547  21405374.757    21405382.813
  20262328.972    -8285942.43449  -6447869.37648  20262328.162    20262333.494
  23706939.353    10595551.22149   8256845.22345  23706938.218    23706948.618
  22914195.535     -884179.78249   -680647.08045  22914194.423    22914203.961
  23535937.783    -3104653.96849  -2407346.45146  23535937.010    23535944.716
  23405548.770    -5479895.97749  -4243151.63045  23405548.915    23405560.488
  23671484.772    13104062.25949  10204520.08745  23671484.052    23671492.868
 02  9  9 16 20 30.0000000  0  7G21G14G 3G31G11G25G18
  21411041.059     1631674.05549   1273097.89947  21411040.205    21411048.223
  20265642.828    -8268527.48249  -6434299.32348  20265642.098    20265647.504
  23723424.464    10682179.98449   8324347.99345  23723423.426    23723433.954
  22924189.423     -831660.48149   -639723.04945  22924188.415    22924198.353
  23518203.212    -3197847.70449  -2479964.94146  23518202.757    23518210.613
  23386919.729    -5577795.69049  -4319437.00345  23386919.234    23386930.782
  23686030.055    13180497.89649  10264080.18245  23686029.452    23686038.572
 02  9  9 16 21  0.0000000  0  7G21G14G 3G31G11G25G18
  21416742.927     1661637.71749   1296446.15747  21416742.138    21416750.136
  20269043.909    -8250655.28749  -6420372.96448  20269043.133    20269048.524
  23739931.900    10768927.17049   8391943.03045  23739930.898    23739941.636
  22934262.571     -778725.01549   -598474.75045  22934261.641    22934271.497
  23500507.031    -3290839.53449  -2552426.09245  23500506.639    23500514.866
  23368313.465    -5675571.19549  -4395625.58245  23368312.874    23368324.580
  23700592.861    13257025.19249  10323711.67045  23700592.111    23700601.586
 02  9  9 16 21 30.0000000  0  7G21G14G 3G31G11G25G18
  21422481.472     1691793.91149   1319944.44147  21422480.715    21422488.691
  20272531.738    -8232326.71249  -6406090.97748  20272530.979    20272536.384
  23756461.283    10855790.29349   8459628.42045  23756460.196    23756471.341
  22944414.428     -725375.76849   -556904.02345  22944413.583    22944423.516
  23482850.251    -3383626.93149  -2624727.92545  23482849.551    23482857.834
  23349732.133    -5773219.44449  -4471715.01445  23349731.407    23349742.441
  23715173.106    13333644.25049  10383414.71045  23715172.267    23715181.847
 02  9  9 16 22  0.0000000  0  7G21G14G 3G31G11G25G18
  21428256.704     1722142.94049   1343592.98847  21428255.977    21428263.878
  20276106.063    -8213543.41949  -6391454.67148  20276105.344    20276110.801
  23773011.392    10942766.20049   8527401.68145  23773010.887    23773022.492
  22954644.698     -671615.27749   -515012.81145  22954644.099    22954653.754
  23465232.490    -3476207.79349  -2696868.81445  23465232.147    23465240.184
  23331175.660    -5870737.58249  -4547702.98645  23331174.485    23331185.314
  23729770.801    13410355.02349  10443189.10945  23729769.961    23729779.632
 02  9  9 16 22 30.0000000  0  7G21G14G 3G31G11G25G18
  21434068.585     1752684.21249   1367391.33547  21434067.824    21434075.737
  20279766.405    -8194308.25449  -6376466.26648  20279765.720    20279771.216
  23789583.056    11029850.52549   8595259.40745  23789582.475    23789594.229
  22964953.598     -617447.53449   -472804.31045  22964952.603    22964961.600
  23447654.626    -3568580.67949  -2768847.65645  23447654.356    23447662.285
  23312642.909    -5968124.58249  -4623588.87945  23312642.104    23312653.292
  23744385.504    13487155.83449  10503033.66845  23744384.495    23744394.428
 02  9  9 16 23  0.0000000  0  7G21G14G 3G31G11G25G18
  21439917.386     1783420.06349   1391341.29847  21439916.674    21439924.584
  20283512.981    -8174620.15649  -6361124.92748  20283512.277    20283517.759
  23806175.083    11117042.85349   8663201.28645  23806174.788    23806186.412
  22975339.284     -562872.55349   -430278.45645  22975338.085    22975347.092
  23430117.376    -3660740.89649  -2840660.77545  23430116.829    23430124.903
  23294136.915    -6065374.89749  -4699368.22046  23294136.165    23294147.186
  23759017.289    13564049.06649  10562950.31845  23759016.615    23759026.742
 02  9  9 16 23 30.0000000  0  7G21G14G 3G31G11G25G18
  21445802.956     1814349.34949   1415441.99447  21445802.310    21445810.349
  20287345.157    -8154482.19149  -6345433.02948  20287344.424    20287349.893
  23822787.065    11204338.63649   8731223.80145  23822786.917    23822798.105
  22985800.932     -507894.54149   -387438.51445  22985799.911    22985809.293
  23412620.701    -3752687.80349  -2912307.67746  23412619.941    23412627.963
  23275657.351    -6162487.29049  -4775040.05046  23275656.220    23275667.161
  23773667.196    13641033.14749  10622937.72145  23773666.502    23773676.499
 02  9  9 16 24  0.0000000  0  7G21G14G 3G31G11G25G18
  21451725.443     1845471.77849   1439693.19247  21451724.770    21451732.872
  20291262.364    -8133896.93949  -6329392.60348  20291261.652    20291267.116
  23839418.814    11291734.00149   8799323.88945  23839418.163    23839428.582
  22996339.508     -452517.13449   -344287.41445  22996338.195    22996347.257
  23395164.383    -3844420.01449  -2983787.29746  23395163.826    23395171.797
  23257203.431    -6259460.33749  -4850603.37946  23257202.663    23257213.748
  23788334.343    13718106.69449  10682994.82145  23788333.470    23788343.395
 02  9  9 16 24 30.0000000  0  7G21G14G 3G31G11G25G18
  21457685.201     1876790.47749   1464097.32847  21457684.534    21457692.743
  20295265.013    -8112862.89749  -6313002.46648  20295264.271    20295269.794
  23856068.259    11379228.71449   8867501.42745  23856067.948    23856078.397
  23006953.513     -396739.87049   -300824.73045  23006952.408    23006961.318
  23377749.852    -3935932.47449  -3055095.66546  23377749.411    23377757.456
  23238777.697    -6356288.22649  -4926053.56446  23238776.949    23238787.959
  23803018.256    13795272.63049  10743123.92245  23803017.663    23803027.434
 02  9  9 16 25  0.0000000  0  7G21G14G 3G31G11G25G18
  21463681.940     1908303.22649   1488652.65747  21463681.242    21463689.472
  20299352.237    -8091384.13549  -6296265.79848  20299351.551    20299357.126
  23872735.283    11466817.51349   8935752.25345  23872735.459    23872746.335
  23017643.065     -340567.97549   -257054.56345  23017641.967    23017650.694
  23360377.360    -4027225.07349  -3126232.70346  23360376.888    23360385.028
  23220379.472    -6452970.59149  -5001390.33146  23220378.887    23220389.480
  23817719.817    13872528.15949  10803322.81145  23817719.356    23817728.834
 02  9  9 16 25 30.0000000  0  7G21G14G 3G31G11G25G18
  21469716.051     1940012.29349   1513360.96947  21469715.335    21469723.566
  20303524.198    -8069460.63949  -6279182.58348  20303523.483    20303529.120
  23889421.302    11554498.98649   9004075.34045  23889421.047    23889431.926
  23028407.487     -284002.54349   -212977.74445  23028406.236    23028414.844
  23343047.456    -4118293.97149  -3197195.41846  23343047.015    23343055.221
  23202009.845    -6549503.26749  -5076610.49146  23202009.234    23202019.595
  23832438.718    13949874.84249  10863592.74545  23832438.036    23832447.553
 02  9  9 16 26  0.0000000  0  7G21G14G 3G31G11G25G18
  21475787.472     1971917.29749   1538221.95647  21475786.742    21475794.918
  20307780.254    -8047095.10549  -6261754.91948  20307779.547    20307785.128
  23906124.001    11642268.99749   9072467.37945  23906123.355    23906134.681
  23039245.224     -227047.30449   -168597.12145  23039244.412    23039253.270
  23325760.508    -4209137.80849  -3267982.81946  23325760.162    23325768.301
  23183669.010    -6645884.54249  -5151712.64646  23183668.531    23183678.917
  23847174.617    14027311.33149  10923932.69345  23847174.103    23847183.600
 02  9  9 16 26 30.0000000  0  7G21G14G 3G31G11G25G18
  21481896.215     2004018.29649   1563235.67547  21481895.443    21481903.619
  20312120.257    -8024288.53749  -6243983.58948  20312119.562    20312125.066
  23922842.250    11730125.25649   9140926.61945  23922841.801    23922853.229
  23050157.666     -169704.47949   -123914.53645  23050156.629    23050165.657
  23308517.097    -4299753.73049  -3338592.60546  23308516.580    23308524.607
  23165357.399    -6742111.21749  -5226694.33846  23165357.017    23165367.603
  23861928.016    14104838.12449  10984342.96245  23861927.440    23861936.483
 02  9  9 16 27  0.0000000  0  7G21G14G 3G31G11G25G18
  21488042.260     2036315.81749   1588402.51847  21488041.538    21488049.691
  20316543.691    -8001043.00949  -6225870.22948  20316543.040    20316548.607
  23939576.716    11818064.26849   9209450.38845  23939576.176    23939587.766
  23061142.805     -111977.29349    -78932.45145  23061141.823    23061151.089
  23291317.428    -4390140.12149  -3409023.52846  23291316.627    23291324.631
  23147076.020    -6838180.87549  -5301553.68346  23147075.464    23147085.952
  23876698.318    14182454.48049  11044823.05245  23876697.616    23876706.437
 02  9  9 16 27 30.0000000  0  7G21G14G 3G31G11G25G18
  21494225.644     2068809.42849   1613722.16547  21494224.928    21494233.044
  20321050.302    -7977360.70849  -6207416.52348  20321049.690    20321055.272
  23956326.038    11906082.54549   9278035.87345  23956325.611    23956337.391
  23072200.356      -53868.97149    -33653.36945  23072199.269    23072208.379
  23274161.492    -4480295.09649  -3479274.08546  23274160.744    23274168.690
  23128824.478    -6934091.81949  -5376289.35746  23128823.979    23128834.734
  23891485.227    14260159.54449  11105372.27745  23891484.499    23891493.585
 02  9  9 16 28  0.0000000  0  7G21G14G 3G31G11G25G18
  21500447.051     2101502.81149   1639197.48147  21500446.311    21500454.387
  20325640.377    -7953240.35449  -6188621.47548  20325639.692    20325645.203
  23973090.511    11994180.08149   9346683.15245  23973090.114    23973101.819
  23083330.625        4620.69149     11922.85745  23083329.494    23083338.681
  23257050.703    -4570213.55549  -3549340.37146  23257049.899    23257057.634
  23110604.225    -7029838.26849  -5450896.86845  23110603.852    23110614.435
  23906289.452    14337956.17649  11165992.86945  23906288.622    23906298.095
 02  9  9 16 28 30.0000000  0  7G21G14G 3G31G11G25G18
  21506706.068     2134394.57849   1664827.37247  21506705.378    21506713.516
  20330313.164    -7928684.72949  -6169487.24848  20330312.448    20330317.929
  23989869.770    12082352.70349   9415388.93245  23989869.289    23989880.458
  23094532.514       63487.89949     57793.24345  23094531.529    23094541.073
  23239985.050    -4659893.91049  -3619221.12846  23239984.124    23239991.826
  23092416.130    -7125418.37949  -5525374.74045  23092415.623    23092425.724
  23921110.722    14415843.00549  11226683.69745  23921109.890    23921119.363
 02  9  9 16 29  0.0000000  0  7G21G14G 3G31G11G25G18
  21513003.116     2167485.91849   1690612.78747  21513002.408    21513010.575
  20335068.598    -7903694.52449  -6150014.38648  20335067.905    20335073.405
  24006662.038    12170598.23849   9484151.49645  24006661.604    24006673.010
  23105805.417      122730.67949    103956.34645  23105804.864    23105815.012
  23222964.878    -4749333.14249  -3688914.00746  23222964.147    23222971.928
  23074260.049    -7220828.75549  -5599720.32745  23074259.423    23074269.735
  23935949.515    14493820.91249  11287445.49845  23935948.707    23935957.946
 02  9  9 16 29 30.0000000  0  7G21G14G 3G31G11G25G18
  21519337.792     2200774.92549   1716552.21647  21519337.103    21519345.286
  20339905.989    -7878274.01749  -6130206.22948  20339905.276    20339910.808
  24023467.119    12258911.39149   9552966.76545  24023466.969    24023478.330
  23117149.095      182343.76149    150407.97945  23117148.890    23117159.016
  23205990.670    -4838531.62149  -3758419.26946  23205990.037    23205997.698
  23056136.363    -7316069.32049  -5673933.65545  23056135.689    23056145.943
  23950805.223    14571887.01549  11348276.05145  23950804.622    23950813.684
 02  9  9 16 30  0.0000000  0  7G21G14G 3G31G11G25G18
  21525710.386     2234262.77049   1742646.57947  21525709.641    21525717.889
  20344825.049    -7852424.05849  -6110063.43148  20344824.361    20344829.946
  24040285.232    12347290.10549   9621833.14545  24040285.146    24040296.423
  23128563.650      242325.22449    197146.62645  23128563.428    23128573.225
  23189063.271    -4927486.20949  -3827734.48846  23189062.655    23189069.921
  23038045.494    -7411136.49549  -5748011.83445  23038044.904    23038055.113
  23965677.746    14650041.80449  11409175.73345  23965677.097    23965686.442
 02  9  9 16 30 30.0000000  0  7G21G14G 3G31G11G25G18
  21532121.016     2267950.60949   1768896.78547  21532120.243    21532128.548
  20349825.619    -7826145.57249  -6089586.72048  20349824.969    20349830.600
  24057115.709    12435732.01549   9690748.71345  24057115.346    24057126.676
  23140047.936      302672.86149    244170.64745  23140047.369    23140056.772
  23172183.021    -5016193.46749  -3896856.97546  23172182.402    23172189.263
  23019988.356    -7506026.91549  -5821952.30346  23019987.584    23019997.924
  23980567.091    14728286.14149  11470145.19645  23980566.559    23980576.447
 02  9  9 16 31  0.0000000  0  7G21G14G 3G31G11G25G18
  21538569.419     2301837.11249   1795301.80247  21538568.699    21538576.946
  20354907.195    -7799441.87049  -6068778.66448  20354906.541    20354912.192
  24073957.826    12524232.37449   9759709.85245  24073956.985    24073968.304
  23151600.137      363382.23249    291476.54745  23151599.890    23151609.380
  23155349.652    -5104653.11949  -3965786.51846  23155349.006    23155355.976
  23001965.056    -7600739.27349  -5895753.99546  23001964.441    23001974.730
  23995473.495    14806617.92049  11531182.72145  23995472.949    23995483.000
 02  9  9 16 31 30.0000000  0  7G21G14G 3G31G11G25G18
  21545056.099     2335924.10849   1821863.05047  21545055.318    21545063.561
  20360069.676    -7772313.03949  -6047639.34448  20360069.027    20360074.687
  24090810.123    12612789.93449   9828715.56145  24090809.160    24090820.421
  23163221.954      424452.25349    339063.41945  23163221.654    23163230.912
  23138563.862    -5192861.05449  -4034519.92746  23138563.347    23138570.490
  22983976.477    -7695269.55949  -5969413.82246  22983975.885    22983986.117
  24010396.511    14885038.44449  11592289.43845  24010395.978    24010406.231
 02  9  9 16 32  0.0000000  0  7G21G14G 3G31G11G25G18
  21551581.280     2370213.92949   1848582.33847  21551580.481    21551588.736
  20365313.080    -7744758.94849  -6026168.66248  20365312.448    20365318.129
  24107672.568    12701403.74349   9897765.10145  24107671.876    24107683.295
  23174911.598      485881.79249    386930.51445  23174911.293    23174920.796
  23121826.916    -5280813.25949  -4103054.05346  23121826.433    23121833.853
  22966022.892    -7789613.13449  -6042928.19446  22966022.724    22966033.345
  24025336.637    14963549.53449  11653466.72245  24025336.086    24025346.551
 02  9  9 16 32 30.0000000  0  7G21G14G 3G31G11G25G18
  21558144.676     2404704.54149   1875458.09047  21558143.908    21558152.143
  20370636.552    -7716784.13449  -6004370.14248  20370635.882    20370641.609
  24124544.486    12790068.24649   9966854.11945  24124544.155    24124555.892
  23186669.107      547665.28249    435073.34745  23186668.652    23186677.665
  23105138.940    -5368510.07349  -4171389.17346  23105138.325    23105145.883
  22948105.380    -7883770.19049  -6116297.20245  22948105.088    22948115.621
  24040293.661    15042148.26149  11714712.26545  24040293.211    24040303.497
 02  9  9 16 33  0.0000000  0  7G21G14G 3G31G11G25G18
  21564746.410     2439396.63149   1902490.83647  21564745.617    21564753.964
  20376039.710    -7688389.97749  -5982244.85348  20376039.122    20376044.895
  24141425.865    12878780.64949  10035980.46845  24141425.489    24141437.777
  23198493.579      609800.42149    483490.22245  23198492.968    23198501.315
  23088499.900    -5455948.54149  -4239522.99746  23088499.365    23088506.937
  22930223.685    -7977737.61949  -6189518.44745  22930223.467    22930233.848
  24055267.572    15120834.88549  11776026.30345  24055267.075    24055277.329
 02  9  9 16 33 30.0000000  0  7G21G14G 3G31G11G25G18
  21571386.594     2474291.05549   1929681.24647  21571385.850    21571394.282
  20381522.645    -7659577.27549  -5959793.42148  20381522.016    20381527.838
  24158315.557    12967538.85249  10105142.47145  24158315.467    24158328.541
  23210383.869      672285.19149    532179.55445  23210383.346    23210391.882
  23071910.501    -5543125.60849  -4307453.17446  23071909.979    23071917.684
  22912378.845    -8071512.16149  -6262589.37945  22912378.711    22912389.036
  24070258.150    15199610.04649  11837409.33545  24070257.438    24070268.278
 02  9  9 16 34  0.0000000  0  7G21G14G 3G31G11G25G18
  21578065.395     2509388.28649   1957029.69047  21578064.657    21578073.192
  20387084.917    -7630347.34849  -5937016.88048  20387084.305    20387090.134
  24175214.061    13056340.31749  10174338.22445  24175213.728    24175226.804
  23222340.701      735117.06049    581139.34645  23222340.098    23222348.641
  23055371.286    -5630039.13949  -4375177.94846  23055370.581    23055378.664
  22894571.175    -8165090.28749  -6335507.29145  22894571.048    22894581.543
  24085265.284    15278473.95749  11898861.55345  24085264.728    24085275.903
 02  9  9 16 34 30.0000000  0  7G21G14G 3G31G11G25G18
  21584782.892     2544688.98749   1984536.66447  21584782.196    21584790.845
  20392726.246    -7600702.37549  -5913916.93948  20392725.590    20392731.413
  24192119.661    13145181.55349  10243564.98545  24192119.704    24192132.708
  23234362.778      798292.77449    630367.08344  23234361.836    23234370.434
  23038882.506    -5716686.43949  -4442695.28546  23038881.964    23038890.208
  22876801.929    -8258469.80149  -6408270.43145  22876801.560    22876811.813
  24100289.903    15357426.06949  11960382.38045  24100289.235    24100300.318
 02  9  9 16 35  0.0000000  0  7G21G14G 3G31G11G25G18
  21591539.017     2580191.96949   2012201.26147  21591538.269    21591546.956
  20398446.027    -7570645.04249  -5890495.68148  20398445.340    20398451.153
  24209033.060    13234058.87149  10312819.86345  24209032.924    24209045.440
  23246449.137      861808.50148    679859.73344  23246448.269    23246456.701
  23022444.872    -5803066.39849  -4510004.29146  23022444.354    23022452.524
  22859070.658    -8351648.92349  -6480877.42145  22859070.085    22859080.200
  24115330.893    15436465.22749  12021971.10845  24115330.105    24115341.307
 02  9  9 16 35 30.0000000  0  7G21G14G 3G31G11G25G18
  21598334.165     2615900.45949   2040026.00047  21598333.465    21598342.162
  20404244.328    -7540174.99349  -5866752.81848  20404243.656    20404249.470
  24225953.020    13322971.61949  10382102.34945  24225952.762    24225965.080
  23258599.474      925663.48248    729616.73844  23258598.998    23258607.687
  23006059.078    -5889174.35749  -4577101.36446  23006058.338    23006066.461
  22841378.212    -8444623.28149  -6553324.86345  22841377.663    22841387.618
  24130388.268    15515593.24049  12083629.09945  24130387.540    24130399.362
 02  9  9 16 36  0.0000000  0  7G21G14G 3G31G11G25G18
  21605168.089     2651812.71249   2068009.52247  21605167.334    21605176.079
  20410120.429    -7509295.87149  -5842691.19848  20410119.788    20410125.600
  24242878.274    13411915.13949  10451408.76545  24242877.995    24242890.684
  23270815.041      989853.01948    779634.39244  23270814.790    23270822.926
  22989724.593    -5975009.99449  -4643986.24146  22989724.115    22989732.302
  22823724.765    -8537391.77449  -6625611.89045  22823724.294    22823734.145
  24145462.554    15594808.09049  12145354.73445  24145461.803    24145473.878
 02  9  9 16 36 30.0000000  0  7G21G14G 3G31G11G25G18
  21612041.007     2687930.35749   2096153.09147  21612040.296    21612049.078
  20416074.326    -7478008.04549  -5818311.09648  20416073.656    20416079.485
  24259809.379    13500887.59649  10520737.75745  24259808.953    24259821.439
  23283091.980     1054375.42548    829911.44544  23283088.485    23283103.736
  22973443.176    -6060569.57649  -4710656.02746  22973442.767    22973450.839
  22806111.505    -8629950.33649  -6697735.32145  22806110.998    22806120.450
  24160553.454    15674110.96649  12207148.91845  24160552.768    24160564.655
 02  9  9 16 37  0.0000000  0  7G21G14G 3G31G11G25G18
  21618953.060     2724253.15449   2124456.52447  21618952.311    21618961.085
  20422105.412    -7446313.95649  -5793614.43448  20422104.781    20422110.673
  24276745.564    13589885.63349  10590086.69645  24276745.149    24276757.606
  23295432.948     1119227.20948    880445.08744  23295430.414    23295444.394
  22957214.631    -6145851.55349  -4777109.45446  22957214.191    22957222.232
  22788538.466    -8722297.23449  -6769693.81445  22788537.764    22788547.475
  24175660.454    15753500.84449  12269010.90945  24175659.929    24175672.148
 02  9  9 16 37 30.0000000  0  7G21G14G 3G31G11G25G18
  21625904.089     2760780.99749   2152919.72547  21625903.349    21625912.051
  20428213.426    -7414215.88249  -5768602.97948  20428212.822    20428218.796
  24293686.471    13678905.72749  10659452.75745  24293685.402    24293697.830
  23307835.789     1184405.07048    931232.86744  23307834.432    23307847.132
  22941039.352    -6230853.90449  -4843345.00346  22941038.899    22941046.737
  22771005.493    -8814429.87449  -6841485.40245  22771005.202    22771015.490
  24190784.310    15832977.70449  12330940.72245  24190783.908    24190796.515
 02  9  9 16 38  0.0000000  0  7G21G14G 3G31G11G25G18
  21632894.173     2797514.32049   2181543.02747  21632893.460    21632902.179
  20434398.179    -7381715.24749  -5743277.84148  20434397.541    20434403.553
  24310630.480    13767945.65249  10728834.31445  24310629.460    24310641.872
  23320300.235     1249906.40748    982272.77644  23320299.183    23320311.610
  22924917.686    -6315573.76649  -4909360.44646  22924917.410    22924924.984
  22753514.102    -8906345.84549  -6913108.11145  22753513.951    22753524.382
  24205925.346    15912541.35349  12392938.15745  24205924.786    24205937.307
 02  9  9 16 38 30.0000000  0  7G21G14G 3G31G11G25G18
  21639923.493     2834453.93049   2210327.09247  21639922.773    21639931.472
  20440659.158    -7348814.05749  -5717640.58448  20440658.496    20440664.460
  24327577.376    13857002.05349  10798228.71045  24327576.569    24327589.151
  23332825.967     1315728.09449   1033562.25644  23332825.139    23332836.565
  22908850.412    -6400008.95349  -4975154.05346  22908850.033    22908857.465
  22736064.780    -8998042.32849  -6984559.80945  22736064.649    22736074.462
  24221082.602    15992191.20549  12455002.73245  24221081.774    24221094.306
 02  9  9 16 39  0.0000000  0  7G21G14G 3G31G11G25G18
  21646992.003     2871599.53049   2239271.67247  21646991.290    21647000.140
  20446995.931    -7315514.13049  -5691692.62448  20446995.310    20447001.205
  24344526.756    13946071.87549  10867633.52745  24344526.214    24344538.788
  23345413.122     1381867.17349   1085099.03744  23345411.977    23345422.553
  22892837.618    -6484157.59449  -5040724.39046  22892837.278    22892844.515
  22718658.166    -9089516.64449  -7055838.37745  22718657.831    22718667.306
  24236256.098    16071926.97649  12517134.23545  24236255.399    24236267.551
 02  9  9 16 39 30.0000000  0  7G21G14G 3G31G11G25G18
  21654100.015     2908952.44049   2268377.79247  21654099.339    21654108.194
  20453408.372    -7281816.73649  -5665434.95048  20453407.750    20453413.592
  24361478.874    14035153.26949  10937047.36645  24361478.169    24361490.745
  23358059.464     1448321.12149   1136881.24644  23358057.894    23358067.994
  22876880.005    -6568016.81549  -5106069.18746  22876879.536    22876886.716
  22701293.957    -9180765.34249  -7126941.16845  22701293.662    22701303.273
  24251446.224    16151749.46449  12579333.34545  24251445.483    24251457.581
 02  9  9 16 40  0.0000000  0  7G21G14G 3G31G11G25G18
  21661247.627     2946512.68649   2297645.46647  21661246.951    21661255.679
  20459896.011    -7247724.20149  -5638869.37148  20459895.339    20459901.165
  24378432.570    14124242.71549  11006467.55045  24378431.543    24378443.946
  23370764.742     1515086.66049   1188906.25344  23370762.878    23370773.330
  22860977.534    -6651584.57349  -5171186.85746  22860977.105    22860984.346
  22683973.291    -9271786.48349  -7197866.62045  22683972.774    22683982.817
  24266652.562    16231657.82149  12641599.34345  24266651.806    24266663.826
 02  9  9 16 40 30.0000000  0  7G21G14G 3G31G11G25G18
  21668434.847     2984281.72349   2327075.82147  21668434.215    21668442.882
  20466458.615    -7213237.30149  -5611996.49648  20466457.976    20466463.839
  24395386.281    14213338.45348  11075892.67344  24395385.858    24395398.315
  23383529.732     1582161.97449   1241172.60444  23383528.126    23383537.829
  22845131.439    -6734857.25849  -5236074.63746  22845130.915    22845137.923
  22666696.110    -9362576.14149  -7268611.72245  22666695.863    22666706.202
  24281875.453    16311652.96749  12703932.95045  24281874.716    24281886.426
 02  9  9 16 41  0.0000000  0  7G21G14G 3G31G11G25G18
  21675661.874     3022259.39549   2356668.75647  21675661.222    21675669.913
  20473095.973    -7178357.91449  -5584817.78948  20473095.341    20473101.284
  24412340.430    14302437.38849  11145320.26144  24412340.529    24412353.572
  23396353.307     1649543.86948   1293677.81644  23396351.532    23396360.296
  22829341.802    -6817832.63849  -5300730.72346  22829341.226    22829348.118
  22649463.685    -9453132.24949  -7339174.81445  22649463.413    22649473.559
  24297114.856    16391734.39749  12766333.78245  24297113.818    24297125.674
 02  9  9 16 41 30.0000000  0  7G21G14G 3G31G11G25G18
  21682928.478     3060445.58949   2386424.17547  21682927.811    21682936.593
  20479807.556    -7143088.53249  -5557335.19448  20479806.925    20479812.879
  24429296.133    14391536.28749  11214747.75644  24429295.620    24429308.816
  23409232.211     1717228.81848   1346419.14344  23409231.597    23409239.931
  22813608.845    -6900509.14849  -5365153.91546  22813608.347    22813615.366
  22632276.341    -9543452.53349  -7409554.17446  22632276.131    22632286.078
  24312369.948    16471901.41349  12828801.37245  24312369.155    24312381.354
 02  9  9 16 42  0.0000000  0  7G21G14G 3G31G11G25G18
  21690235.428     3098843.46449   2416344.54547  21690234.753    21690243.550
  20486593.663    -7107428.14249  -5529547.91148  20486592.967    20486598.869
  24446251.178    14480634.89349  11284174.94344  24446250.942    24446263.619
  23422170.042     1785216.62149   1399396.61344  23422169.576    23422177.495
  22797933.904    -6982881.67149  -5429340.24946  22797933.240    22797940.432
  22615134.882    -9633531.89149  -7479745.74846  22615134.648    22615144.675
  24327642.748    16552156.78449  12891337.74745  24327641.952    24327653.846
 02  9  9 16 42 30.0000000  0  7G21G14G 3G31G11G25G18
  21697581.835     3137448.85949   2446426.62747  21697581.177    21697589.956
  20493452.775    -7071383.47849  -5501461.19348  20493452.068    20493457.962
  24463205.615    14569725.62349  11353596.13044  24463205.235    24463216.769
  23435165.685     1853499.43048   1452603.80044  23435165.060    23435172.154
  22782316.182    -7064952.73049  -5493291.69546  22782315.532    22782323.034
  22598038.808    -9723372.19649  -7549751.12546  22598038.563    22598048.463
  24342931.113    16632495.36849  12953938.97545  24342930.329    24342941.864
 02  9  9 16 43  0.0000000  0  7G21G14G 3G31G11G25G18
  21704968.357     3176265.26449   2476673.14147  21704967.724    21704976.545
  20500385.134    -7034953.71549  -5473074.40048  20500384.469    20500390.371
  24480158.538    14658808.43449  11423011.13044  24480157.038    24480168.641
  23448215.649     1922077.04948   1506040.75144  23448214.722    23448222.498
  22766756.725    -7146717.12949  -5557004.19946  22766756.103    22766763.716
  22580989.423    -9812968.06749  -7619565.96146  22580988.977    22580998.756
  24358235.588    16712919.62049  13016607.00845  24358234.905    24358246.190
 02  9  9 16 43 30.0000000  0  7G21G14G 3G31G11G25G18
  21712395.220     3215293.78549   2507084.94247  21712394.592    21712403.400
  20507390.677    -6998139.32449  -5444387.89548  20507390.049    20507395.987
  24497108.598    14747881.65048  11492418.58644  24497107.558    24497118.818
  23461321.391     1990947.58048   1559706.02344  23461319.479    23461328.053
  22751256.354    -7228171.35649  -5620474.99146  22751255.793    22751263.505
  22563987.253    -9902316.07249  -7689187.68546  22563986.548    22563996.500
  24373556.410    16793430.52349  13079342.55945  24373555.508    24373566.946
 02  9  9 16 44  0.0000000  0  7G21G14G 3G31G11G25G18
  21719862.338     3254533.23749   2537661.09247  21719861.723    21719870.462
  20514468.808    -6960943.73149  -5415404.36348  20514468.139    20514474.152
  24514055.291    14836940.74649  11561815.07544  24514054.404    24514066.595
  23474481.680     2060106.57658   1613596.02344  23474479.356    23474488.395
  22735815.253    -7309314.51349  -5683703.37946  22735814.762    22735822.462
  22547031.911    -9991414.75149  -7758615.13746  22547031.504    22547041.612
  24388893.729    16874026.54349  13142144.42745  24388892.999    24388903.651
 02  9  9 16 44 30.0000000  0  7G21G14G 3G31G11G25G18
  21727369.637     3293983.94949   2568401.86247  21727368.985    21727377.765
  20521618.957    -6923369.21449  -5386125.55448  20521618.289    20521624.377
  24530999.446    14925982.82649  11631198.36544  24530998.613    24531010.630
  23487696.609     2129550.83448   1667708.29444  23487694.996    23487703.940
  22720433.895    -7390144.52649  -5746687.76746  22720433.361    22720440.994
  22530125.215   -10080261.31149  -7827846.10446  22530124.540    22530134.432
  24404247.112    16954707.22749  13205012.19545  24404246.213    24404256.731
 02  9  9 16 45  0.0000000  0  7G21G14G 3G31G11G25G18
  21734917.275     3333647.17749   2599308.22747  21734916.630    21734925.547
  20528841.006    -6885416.66549  -5356552.17548  20528840.429    20528846.559
  24547940.300    15015006.32549  11700567.11344  24547939.324    24547951.145
  23500967.592     2199278.40148   1722041.27244  23500964.380    23500971.877
  22705112.728    -7470658.17149  -5809425.63746  22705112.267    22705119.850
  22513266.427   -10168852.75349  -7896878.31146  22513266.030    22513275.826
  24419616.106    17035473.45949  13267946.69245  24419615.361    24419626.349
 02  9  9 16 45 30.0000000  0  6G21G14G 3G11G25G18
  21742507.006     3373531.61749   2630386.97747  21742506.366    21742515.438
  20536136.380    -6847079.21049  -5326678.85948  20536135.779    20536141.937
  24564879.240    15104016.87849  11769925.78344  24564878.237    24564889.966
  22689853.895    -7550844.74749  -5871908.65346  22689853.391    22689860.837
  22496458.764   -10257178.08749  -7965703.14046  22496458.296    22496467.955
  24435003.368    17116333.47949  13330954.26145  24435002.689    24435013.968
 02  9  9 16 46  0.0000000  0  6G21G14G 3G11G25G18
  21750136.974     3413627.45049   2661630.42947  21750136.364    21750145.458
  20543502.617    -6808369.26849  -5296515.29748  20543502.049    20543508.231
  24581812.937    15193001.12149  11839263.93844  24581811.837    24581823.783
  22674655.634    -7630712.14749  -5934142.92646  22674655.133    22674662.496
  22479700.377   -10345245.11549  -8034326.68846  22479699.787    22479709.256
  24450406.379    17197276.57649  13394026.58245  24450405.728    24450417.073
 02  9  9 16 46 30.0000000  0  6G21G14G 3G11G25G18
  21757807.153     3453934.64549   2693038.56847  21757806.554    21757815.701
  20550939.421    -6769288.94449  -5266063.13548  20550938.771    20550945.015
  24598740.338    15281956.03649  11908579.26144  24598739.296    24598752.102
  22659518.556    -7710258.51049  -5996127.08246  22659518.052    22659525.149
  22462991.167   -10433051.46149  -8102747.13246  22462990.635    22463000.087
  24465824.783    17278302.44549  13457163.42145  24465823.943    24465835.858
 02  9  9 16 47  0.0000000  0  6G21G14G 3G11G25G18
  21765517.743     3494453.89249   2724611.96447  21765517.126    21765526.241
  20558446.252    -6729840.12149  -5235323.83048  20558445.604    20558451.917
  24615661.940    15370878.61448  11977869.45844  24615660.964    24615673.296
  22644442.886    -7789481.28549  -6057859.06546  22644442.230    22644449.681
  22446332.376   -10520594.26449  -8170962.21046  22446331.937    22446340.984
  24481259.436    17359410.80749  13520364.54845  24481258.706    24481270.975
 02  9  9 16 47 30.0000000  0  6G21G14G 3G11G25G18
  21773269.288     3535187.90649   2756352.69147  21773268.630    21773277.761
  20566023.426    -6690022.08749  -5204296.82548  20566022.819    20566029.038
  24632576.386    15459769.31048  12047134.72644  24632575.712    24632589.057
  22629429.118    -7868375.40849  -6119334.95646  22629428.703    22629436.721
  22429724.784   -10607868.24849  -8238967.83046  22429724.166    22429733.275
  24496709.873    17440604.18349  13583631.92345  24496709.251    24496721.966
 02  9  9 16 48  0.0000000  0  6G21G14G 3G11G25G18
  21781061.364     3576135.25849   2788259.65447  21781060.745    21781069.869
  20573670.081    -6649838.80549  -5172985.20948  20573669.435    20573675.614
  24649484.929    15548623.04249  12116371.23544  24649483.957    24649497.489
  22614478.371    -7946940.66949  -6180554.63746  22614478.082    22614486.232
  22413168.238   -10694873.11549  -8306763.74246  22413167.736    22413176.819
  24512176.218    17521880.22949  13646963.69345  24512175.643    24512188.420
 02  9  9 16 48 30.0000000  0  6G21G14G 3G11G25G18
  21788894.154     3617296.71649   2820333.46747  21788893.533    21788902.605
  20581386.035    -6609291.54949  -5141389.98048  20581385.353    20581391.539
  24666385.650    15637437.25648  12185576.92444  24666385.118    24666398.687
  22599591.336    -8025174.39749  -6241515.95046  22599590.938    22599598.894
  22396663.560   -10781605.61949  -8374347.39846  22396663.053    22396671.801
  24527658.725    17603239.37249  13710360.20245  24527657.996    24527671.031
 02  9  9 16 49  0.0000000  0  6G21G14G 3G11G25G18
  21796767.820     3658673.41949   2852575.01447  21796767.202    21796776.235
  20589170.984    -6568381.32049  -5109511.91748  20589170.374    20589176.564
  24683278.181    15726210.35548  12254750.54544  24683277.605    24683291.904
  22584767.874    -8103073.35649  -6302216.37546  22584767.321    22584775.236
  22380211.056   -10868062.39849  -8441716.24746  22380210.613    22380219.611
  24543156.683    17684682.20249  13773821.94745  24543156.097    24543169.301
 02  9  9 16 49 30.0000000  0  6G21G14G 3G11G25G18
  21804682.528     3700265.84449   2884984.63547  21804681.953    21804690.984
  20597024.728    -6527109.94849  -5077352.43948  20597024.127    20597030.307
  24700162.632    15814939.76948  12323890.13044  24700162.689    24700177.337
  22570008.399    -8180635.13649  -6362654.07446  22570007.948    22570015.776
  22363811.670   -10954241.02049  -8508868.29546  22363811.345    22363820.707
  24558671.149    17766208.79749  13837348.94345  24558670.366    24558683.673
 02  9  9 16 50  0.0000000  0  6G21G14G 3G11G25G18
  21812638.432     3742074.58249   2917562.81747  21812637.915    21812646.880
  20604946.956    -6485479.02249  -5044912.79248  20604946.322    20604952.523
  24717038.736    15903622.85948  12392993.56444  24717039.241    24717052.341
  22555313.455    -8257857.01249  -6422826.92946  22555313.102    22555320.812
  22347465.937   -11040138.20449  -8575801.06746  22347465.601    22347474.867
  24574201.066    17847819.23449  13900941.26545  24574200.325    24574213.468
 02  9  9 16 50 30.0000000  0  6G21G14G 3G11G25G18
  21820635.404     3784098.96049   2950309.05147  21820634.889    21820643.918
  20612936.869    -6443491.78549  -5012195.50248  20612936.251    20612942.466
  24733906.283    15992255.73948  12462058.00644  24733905.361    24733918.271
  22540683.556    -8334737.80949  -6482734.01646  22540683.150    22540690.758
  22331173.914   -11125752.96749  -8642513.79246  22331173.551    22331182.891
  24589746.957    17929511.92449  13964597.64545  24589746.342    24589759.162
 02  9  9 16 51  0.0000000  0  6G21G14G 3G11G25G18
  21828674.013     3826341.59749   2983225.33647  21828673.513    21828682.548
  20620994.571    -6401148.15149  -4979200.48748  20620993.973    20621000.167
  24750762.023    16080837.84148  12531082.83444                  24750762.696
  22526119.153    -8411273.57249  -6542372.25246  22526118.813    22526126.322
  22314936.327   -11211080.76249  -8709002.86746  22314936.042    22314945.116
  24605308.515    18011288.63149  14028319.52545  24605308.099    24605320.972
 02  9  9 16 51 30.0000000  0  6G21G14G 3G11G25G18
  21836754.237     3868802.04949   3016311.33847  21836753.630    21836762.538
  20629119.622    -6358450.65249  -4945929.73048  20629119.048    20629125.231
  24767607.461    16169365.46248  12600065.24344                  24767608.861
  22511620.586    -8487462.35249  -6601740.06446  22511620.290    22511627.955
  22298753.786   -11296119.73049  -8775266.89946  22298753.535    22298762.681
  24620886.372    18093148.51749  14092106.28145  24620885.646    24620899.057
 02  9  9 16 52  0.0000000  0  4G21G14G11G25
  21844876.394     3911482.94649   3049569.12647  21844875.717    21844884.502
  20637312.069    -6315399.08449  -4912383.08348  20637311.516    20637317.728
  22497189.087    -8563299.93949  -6660834.24646  22497188.860    22497196.408
  22282627.158   -11380865.15249  -8841302.18446  22282626.948    22282636.336
 02  9  9 16 52 30.0000000  0  4G21G14G11G25
  21853040.488     3954385.02149   3082999.27147  21853039.795    21853048.539
  20645571.664    -6271995.14849  -4878561.86948  20645571.078    20645577.301
  22482825.231    -8638783.52749  -6719652.60246  22482824.824    22482832.075
  22266557.422   -11465314.03649  -8907106.39146  22266556.973    22266565.977
 02  9  9 16 53  0.0000000  0  4G21G14G11G25
  21861245.611     3997503.08649   3116597.70947  21861244.965    21861253.699
  20653896.871    -6228246.10849  -4844471.74248  20653896.285    20653902.488
  22468527.807    -8713916.37349  -6778197.61146  22468527.412    22468534.607
  22250543.016   -11549469.27749  -8972681.77546  22250542.620    22250551.573
 02  9  9 16 53 30.0000000  0  4G21G14G11G25
  21869492.457     4040840.16849   3150366.78347  21869491.816    21869500.469
  20662287.930    -6184151.08949  -4810112.02148  20662287.306    20662293.539
  22454298.335    -8788693.40949  -6836465.39146  22454297.863    22454304.857
  22234585.151   -11633325.87149  -9038024.47346  22234584.927    22234594.255
 02  9  9 16 54  0.0000000  0  4G21G14G11G25
  21877780.781     4084395.67849   3184306.07247  21877780.148    21877788.826
  20670744.216    -6139712.94949  -4775484.92848  20670743.642    20670749.889
  22440136.679    -8863113.43249  -6894454.97546  22440136.148    22440143.123
  22218684.909   -11716882.26049  -9103133.21746  22218684.705    22218693.906
 02  9  9 16 54 30.0000000  0  4G21G14G11G25
  21886110.933     4128171.14249   3218416.79847  21886110.331    21886119.064
  20679265.720    -6094932.27149  -4740590.92648  20679265.103    20679271.393
  22426043.373    -8937172.77649  -6952163.52146  22426042.844    22426049.969
  22202842.603   -11800134.36849  -9168004.88346  22202842.322    22202851.333
 02  9  9 16 55  0.0000000  0  4G21G14G11G25
  21894483.457     4172168.57849   3252700.44847  21894482.874    21894491.656
  20687852.332    -6049809.61649  -4705430.45748  20687851.688    20687858.025
  22412019.454    -9010867.69249  -7009588.10046  22412018.993    22412026.295
  22187058.878   -11883078.31849  -9232636.42046  22187058.559    22187067.473
 02  9  9 16 55 30.0000000  0  4G21G14G11G25
  21902898.099     4216386.47449   3287155.88647  21902897.430    21902906.173
  20696503.217    -6004348.87049  -4670006.54348  20696502.609    20696508.968
  22398065.106    -9084197.61549  -7066728.26146  22398064.653    22398072.129
  22171333.678   -11965713.84349  -9297027.62646  22171333.445    22171342.376
 02  9  9 16 56  0.0000000  0  4G21G14G11G25
  21911354.546     4260824.94049   3321783.18947  21911353.855    21911362.619
  20705218.173    -5958551.70149  -4634320.47648  20705217.556    20705223.949
  22384180.657    -9157160.41649  -7123582.37446  22384180.294    22384187.636
  22155667.933   -12048037.76049  -9361176.00646  22155667.641    22155676.617
 02  9  9 16 56 30.0000000  0  4G21G14G11G25
  21919853.125     4305484.95649   3356583.14247  21919852.442    21919861.277
  20713996.839    -5912419.66349  -4598373.47747  20713996.179    20714002.590
  22370367.013    -9229753.24249  -7180148.17446  22370366.437    22370373.706
  22140061.851   -12130047.37749  -9425079.49746  22140061.585    22140070.647
 02  9  9 16 57  0.0000000  0  4G21G14G11G25
  21928393.887     4350366.57449   3391555.78447  21928393.189    21928402.045
  20722838.553    -5865955.78949  -4562167.88947  20722837.918    20722844.366
  22356623.693    -9301975.22849  -7236424.99146  22356623.122    22356630.342
  22124515.812   -12211741.78649  -9488737.33846  22124515.547    22124524.500
 02  9  9 16 57 30.0000000  0  4G21G14G11G25
  21936976.909     4395470.66349   3426701.77247  21936976.277    21936985.114
  20731743.319    -5819161.13649  -4525704.55247  20731742.713    20731749.099
  22342951.682    -9373822.51649  -7292409.85146  22342951.167    22342958.418
  22109030.625   -12293116.95649  -9552146.45346  22109030.347    22109039.404
 02  9  9 16 58  0.0000000  0  4G21G14G11G25
  21945602.482     4440797.99549   3462021.69647  21945601.846    21945610.578
  20740710.908    -5772036.66249  -4488984.22247  20740710.265    20740716.603
  22329351.381    -9445292.51149  -7348100.71146  22329350.932    22329358.186
  22093606.638   -12374169.68149  -9615304.31646  22093606.385    22093615.538
 02  9  9 16 58 30.0000000  0  4G21G14G11G25
  21954270.711     4486348.97349   3497515.88147  21954270.015    21954278.627
  20749740.775    -5724584.57549  -4452008.61748  20749740.174    20749746.531
  22315823.192    -9516383.21549  -7403496.02547  22315822.857    22315830.102
  22078244.582   -12454898.29549  -9678209.60946  22078244.309    22078253.153
 02  9  9 16 59  0.0000000  0  4G21G14G11G25
  21962981.473     4532124.38349   3533184.96647  21962980.795    21962989.464
  20758832.777    -5676806.05849  -4414778.66848  20758832.140    20758838.549
  22302367.935    -9587091.90449  -7458593.66447  22302367.462    22302374.778
  22062944.770   -12535299.45049  -9740859.74546  22062944.402    22062953.300
 02  9  9 16 59 30.0000000  0  4G21G14G11G25
  21971734.884     4578124.01449   3569028.79647  21971734.155    21971742.934
  20767986.313    -5628703.79149  -4377296.44047  20767985.733    20767992.127
  22288985.456    -9657416.74449  -7513392.21047  22288985.087    22288992.542
  22047707.367   -12615371.16549  -9803253.18246  22047707.121    22047715.869
 02  9  9 17  0  0.0000000  0  4G21G14G11G25
  21980531.179     4624348.61349   3605047.90947  21980530.455    21980539.281
  20777201.104    -5580279.77749  -4339563.49047  20777200.523    20777206.879
  22275676.743    -9727355.38549  -7567889.81647  22275676.260    22275683.861
  22032533.198   -12695111.26449  -9865388.21646  22032533.025    22032541.709
 02  9  9 17  0 30.0000000  0  5G21G14G11G25G20
  21989369.806     4670795.84949   3641240.49947  21989369.136    21989377.814
  20786476.346    -5531538.29949  -4301583.16247  20786475.772    20786482.036
  22262441.089    -9796908.22949  -7622086.78347  22262440.673    22262448.485
  22017422.409   -12774519.69949  -9927264.80846  22017422.086    22017430.727
  24737820.312    -2402739.40949  -1851610.35545  24737819.523    24737832.194
 02  9  9 17  1  0.0000000  0  5G21G14G11G25G20
  21998250.556     4717464.75949   3677605.80747  21998249.918    21998258.630
  20795811.380    -5482482.82749  -4263358.15947  20795810.790    20795816.975
  22249278.880    -9866074.42349  -7675982.48347  22249278.615    22249286.569
  22002374.609   -12853595.42849  -9988882.15846  22002374.323    22002382.886
  24721253.111    -2489801.31349  -1919450.73545  24721252.064    24721264.818
 02  9  9 17  1 30.0000000  0  5G21G14G11G25G20
  22007174.990     4764362.84949   3714149.70947  22007174.400    22007183.001
  20805207.153    -5433107.72849  -4224884.09647  20805206.565    20805212.757
  22236192.238    -9934844.57049  -7729569.56247  22236191.955    22236200.039
  21987392.198   -12932328.61149 -10050232.59146  21987391.905    21987400.223
  24704683.748    -2576873.08349  -1987298.74745  24704682.475    24704695.387
 02  9  9 17  2  0.0000000  0  5G21G14G11G25G20
  22016142.744     4811488.11949   3750870.63546  22016142.092    22016150.609
  20814662.845    -5383417.39349  -4186164.40047  20814662.319    20814668.594
  22223181.181   -10003218.41049  -7782847.84647  22223180.802    22223188.767
  21972474.926   -13010719.55449 -10111316.36846  21972474.503    21972482.766
  24688112.053    -2663956.58449  -2055155.92045  24688110.896    24688124.170
 02  9  9 17  2 30.0000000  0  5G21G14G11G25G20
  22025153.788     4858841.86149   3787769.59246  22025153.154    22025161.746
  20824178.331    -5333413.08949  -4147200.06347  20824177.812    20824184.130
  22210246.143   -10071193.31649  -7835815.26347  22210245.647    22210253.434
  21957623.213   -13088765.08249 -10172130.98246  21957622.834    21957631.058
  24671538.315    -2751050.98449  -2123021.60445  24671537.550    24671550.762
 02  9  9 17  3  0.0000000  0  5G21G14G11G25G20
  22034208.113     4906422.67949   3824845.49646  22034207.536    22034216.117
  20833752.977    -5283098.39549  -4107993.84547  20833752.443    20833758.772
  22197386.802   -10138768.85149  -7888471.50246  22197386.359    22197394.164
  21942837.438   -13166464.49949 -10232675.89646  21942837.130    21942844.983
  24654962.624    -2838157.27849  -2190896.57645  24654961.964    24654974.660
 02  9  9 17  3 30.0000000  0  5G21G14G11G25G20
  22043305.710     4954230.07549   3862097.93547  22043305.087    22043313.710
  20843386.304    -5232475.65349  -4068547.58947  20843385.724    20843392.038
  22184603.890   -10205943.16149  -7940815.08646  22184603.468    22184611.255
  21928118.119   -13243815.50849 -10292949.30746  21928117.571    21928125.498
  24638384.839    -2925275.46849  -2258780.76145  24638383.893    24638396.631
 02  9  9 17  4  0.0000000  0  5G21G14G11G25G20
  22052446.857     5002266.76249   3899529.05147  22052446.249    22052454.983
  20853078.218    -5181544.93349  -4028861.35347  20853077.585    20853083.909
  22171898.206   -10272712.03349  -7992842.72646  22171897.715    22171905.406
  21913465.552   -13320813.87449 -10352947.97547  21913465.204    21913473.273
  24621804.153    -3012402.94349  -2326672.26145  24621803.770    24621816.876
 02  9  9 17  4 30.0000000  0  5G21G14G11G25G20
  22061631.278     5050531.25449   3937137.67447  22061630.701    22061639.665
  20862827.979    -5130309.55649  -3988937.72847  20862827.365    20862833.738
  22159269.694   -10339075.09649  -8044554.18846  22159269.267    22159276.799
  21898880.420   -13397459.29949 -10412671.58647  21898879.992    21898888.194
  24605222.947    -3099541.29849  -2394572.11145  24605222.389    24605234.709
 02  9  9 17  5  0.0000000  0  5G21G14G11G25G20
  22070858.931     5099023.03249   3974923.39046  22070858.343    22070867.448
  20872635.131    -5078772.64949  -3948779.15347  20872634.526    20872640.959
  22146718.810   -10405031.26249  -8095948.56046  22146718.326    22146725.811
  21884362.379   -13473750.60449 -10472119.27746  21884362.081    21884370.250
  24588639.264    -3186690.89249  -2462480.71945  24588638.111    24588650.399
 02  9  9 17  5 30.0000000  0  5G21G14G11G25G20
  22080130.187     5147743.91849   4012887.67846  22080129.545    22080138.866
  20882499.659    -5026934.41349  -3908385.78147  20882499.077    20882505.506
  22134245.865   -10470576.56449  -8147022.78146  22134245.441    22134252.965
  21869912.920   -13549683.35249 -10531287.57347  21869912.535    21869920.646
  24572053.132    -3273849.67649  -2530396.55145  24572052.091    24572064.154
 02  9  9 17  6  0.0000000  0  5G21G14G11G25G20
  22089445.135     5196694.53549   4051030.94346  22089444.586    22089454.064
  20892421.200    -4974796.39249  -3867758.80847  20892420.658    20892427.101
  22121851.505   -10535708.42649  -8197774.85746  22121851.121    22121858.779
  21855531.832   -13625255.05349 -10590174.54347  21855531.520    21855539.803
  24555465.940    -3361016.70949  -2598318.79745  24555464.866    24555476.186
 02  9  9 17  6 30.0000000  0  5G21G14G11G25G20
  22098804.175     5245875.34349   4089353.57547  22098803.526    22098812.949
  20902399.377    -4922360.98949  -3826900.10348  20902398.870    20902405.314
  22109536.321   -10600425.32949  -8248203.58446  22109535.857    22109543.485
  21841220.178   -13700463.90949 -10648778.77747  21841219.898    21841227.911
  24538876.665    -3448192.05649  -2666247.51345  24538875.441    24538887.136
 02  9  9 17  7  0.0000000  0  5G21G14G11G25G20
  22108206.823     5295285.87149   4127855.19746  22108206.157    22108215.560
  20912433.799    -4869630.54449  -3785811.48548  20912433.234    20912439.650
  22097300.236   -10664725.33149  -8298307.44846  22097299.878    22097307.557
  21826978.070   -13775307.64349 -10707098.50047  21826977.628    21826985.585
  24522285.347    -3535375.54449  -2734182.55745  24522284.407    24522296.613
 02  9  9 17  7 30.0000000  0  5G21G14G11G25G20
  22117653.265     5344927.07449   4166536.56446  22117652.628    22117661.996
  20922524.083    -4816606.12249  -3744493.78448  20922523.468    20922529.949
  22085144.217   -10728605.69849  -8348084.32146  22085143.823    22085151.510
  21812805.568   -13849783.70749 -10765131.74047  21812805.209    21812813.164
  24505693.773    -3622565.74349  -2802122.85445  24505692.861    24505704.732
 02  9  9 17  8  0.0000000  0  5G21G14G11G25G20
  22127143.268     5394797.53049   4205396.58146  22127142.638    22127152.145
  20932669.437    -4763291.48549  -3702949.94448  20932668.865    20932675.442
  22073067.962   -10792066.02349  -8397533.90846  22073067.643    22073075.383
  21798703.267   -13923891.73249 -10822878.20347  21798702.892    21798710.876
  24489100.567    -3709764.19349  -2870069.55945  24489099.680    24489110.982
 02  9  9 17  8 30.0000000  0  5G21G14G11G25G20
  22136677.288     5444899.06549   4244436.64946  22136676.668    22136686.267
  20942870.155    -4709686.61849  -3661179.95248  20942869.583    20942876.222
  22061072.411   -10855102.56149  -8446653.22647  22061071.968    22061080.050
  21784671.753   -13997627.03049 -10880334.21747  21784671.446    21784679.488
  24472506.069    -3796968.55049  -2938020.90245  24472505.257    24472516.682
 02  9  9 17  9  0.0000000  0  5G21G14G11G25G20
  22146255.422     5495232.19249   4283657.18046  22146254.817    22146264.306
  20953125.615    -4655793.68349  -3619185.49448  20953125.103    20953131.791
  22049157.678   -10917713.10749  -8495440.64047  22049157.396    22049165.514
  21770711.732   -14070987.81449 -10937498.38547  21770711.341    21770719.256
  24455910.878    -3884178.34449  -3005976.45045  24455909.906    24455921.488
 02  9  9 17  9 30.0000000  0  5G21G14G11G25G20
  22155877.551     5545795.88149   4323057.35346  22155876.855    22155886.309
  20963435.408    -4601615.70449  -3576968.92548  20963434.896    20963441.567
  22037324.551   -10979896.84149  -8543895.45747  22037324.248    22037332.363
  21756822.844   -14143973.04149 -10994369.94447  21756822.505    21756830.667
  24439314.107    -3971394.16649  -3073936.71445  24439313.096    24439324.764
 02  9  9 17 10  0.0000000  0  5G21G14G11G25G20
  22165543.787     5596592.21949   4362638.83246  22165543.134    22165552.585
  20973799.422    -4547152.95949  -3534530.45547  20973798.841    20973805.516
  22025573.538   -11041649.95949  -8592014.74447  22025573.122    22025581.136
  21743006.491   -14216578.71049 -11050945.71847  21743006.190    21743014.360
  24422716.404    -4058613.91649  -3141900.06845  24422715.615    24422727.337
 02  9  9 17 10 30.0000000  0  5G21G14G11G25G20
  22175254.229     5647620.19249   4402400.81246  22175253.571    22175263.081
  20984216.808    -4492408.91249  -3491872.78847  20984216.280    20984222.993
  22013904.525   -11102971.97149  -8639798.09847  22013904.101    22013911.935
  21729262.465   -14288804.23349 -11107225.27947  21729262.035    21729270.215
  24406118.583    -4145838.61749  -3209867.27146  24406117.576    24406129.029
 02  9  9 17 11  0.0000000  0  5G21G14G11G25G20
  22185008.924     5698880.78849   4442344.03846  22185008.248    22185017.867
  20994687.504    -4437384.72649  -3448996.82747  20994686.991    20994693.689
  22002317.897   -11163860.31249  -8687243.51947  22002317.423    22002325.258
  21715591.097   -14360646.48749 -11163206.20647  21715590.799    21715599.058
  24389519.439    -4233066.94549  -3277837.30345  24389518.618    24389529.969
 02  9  9 17 11 30.0000000  0  5G21G14G11G25G20
  22194807.962     5750375.38149   4482469.63146  22194807.355    22194817.125
  21005211.440    -4382080.88049  -3405902.94947  21005210.935    21005217.687
  21990814.317   -11224311.43549  -8734348.26047  21990813.986    21990821.743
  21701993.483   -14432102.54949 -11218886.18847  21701993.212    21702001.400
  24372919.826    -4320296.99249  -3345808.64745  24372919.100    24372930.462
 02  9  9 17 12  0.0000000  0  5G21G14G11G25G20
  22204651.573     5802103.72049   4522777.33346  22204650.900    22204660.771
  21015788.185    -4326500.30549  -3362593.43847  21015787.593    21015794.389
  21979394.365   -11284324.09049  -8781111.33447  21979393.973    21979401.758
  21688469.681   -14503170.41949 -11274263.69147  21688469.405    21688477.631
  24356319.877    -4407529.02549  -3413781.57545  24356319.480    24356330.785
 02  9  9 17 12 30.0000000  0  5G21G14G11G25G20
  22214539.509     5854065.03849   4563266.57946  22214538.845    22214548.837
  21026416.946    -4270645.73949  -3319070.43047  21026416.375    21026423.238
  21968057.894   -11343897.11349  -8827531.83747  21968057.590    21968065.395
  21675019.861   -14573849.32149 -11329338.10947  21675019.566    21675027.838
  24339719.566    -4494763.59549  -3481756.51845  24339719.143    24339730.484
 02  9  9 17 13  0.0000000  0  5G21G14G11G25G20
  22224472.040     5906260.56849   4603938.32946  22224471.428    22224481.427
  21037097.691    -4214518.29849  -3275334.79947  21037097.121    21037103.993
  21956805.750   -11403027.91949  -8873607.74847  21956805.380    21956813.170
  21661644.773   -14644135.94649 -11384106.85247  21661644.446    21661652.721
  24323119.561    -4581999.25249  -3549732.26445  24323118.925    24323130.138
 02  9  9 17 13 30.0000000  0  5G21G14G11G25G20
  22234448.927     5958688.56549   4644791.24146  22234448.302    22234458.232
  21047829.697    -4158121.18549  -3231389.02947  21047829.171    21047836.051
  21945637.819   -11461715.90249  -8919338.60147  21945637.391    21945645.094
  21648344.356   -14714029.99949 -11438569.69047  21648343.954    21648352.213
  24306518.987    -4669236.79949  -3617709.45745  24306518.188    24306529.413
 02  9  9 17 14  0.0000000  0  5G21G14G11G25G20
  22244470.591     6011352.39849   4685827.89346  22244469.974    22244479.724
  21058613.146    -4101454.20949  -3187232.97347  21058612.626    21058619.489
  21934554.946   -11519956.68849  -8964721.00447  21934554.564    21934562.059
  21635119.378   -14783526.90549 -11492723.08247  21635119.088    21635127.274
  24289917.745    -4756473.36049  -3685685.93145  24289917.291    24289928.624
 02  9  9 17 14 30.0000000  0  5G21G14G11G25G20
  22254536.876     6064250.97749   4727047.48746  22254536.295    22254546.073
  21069447.434    -4044519.84549  -3142868.57147  21069446.915    21069453.817
  21923557.344   -11577749.10549  -9009754.02547  21923556.968    21923564.315
  21621970.527   -14852625.03549 -11546565.71447  21621970.142    21621978.260
  24273317.600    -4843709.16349  -3753661.69945  24273317.102    24273328.052
 02  9  9 17 15  0.0000000  0  5G21G14G11G25G20
  22264647.838     6117383.98349   4768449.76346  22264647.245    22264657.063
  21080332.004    -3987320.70449  -3098297.85047  21080331.520    21080338.481
  21912645.227   -11635092.01149  -9054436.77047  21912644.882    21912652.284
  21608897.543   -14921323.03149 -11600096.58747  21608897.292    21608905.382
  24256717.183    -4930944.29749  -3821637.08945  24256716.587    24256727.842
 02  9  9 17 15 30.0000000  0  5G21G14G11G25G20
  22274803.871     6170753.47749   4810036.29846  22274803.254    22274813.052
  21091267.117    -3929856.88849  -3053520.88747  21091266.560    21091273.543
  21901819.482   -11691981.03849  -9098765.85747  21901819.206    21901826.731
  21595901.689   -14989616.81349 -11653312.46447  21595901.399    21595909.525
  24240116.846    -5018176.17149  -3889609.90345  24240116.596    24240128.153
 02  9  9 17 16  0.0000000  0  5G21G14G11G25G20
  22285004.753     6224358.44549   4851806.30246  22285004.132    22285013.733
  21102251.831    -3872131.71449  -3008540.26647  21102251.355    21102258.331
  21891080.151   -11748416.27449  -9142741.33647  21891079.811    21891087.489
  21582982.813   -15057506.12449 -11706213.16247  21582982.462    21582990.548
  24223517.969    -5105405.86249  -3957580.96745  24223517.558    24223528.523
 02  9  9 17 16 30.0000000  0  5G21G14G11G25G20
  22295250.135     6278197.61449   4893758.81846  22295249.520    22295258.994
  21113285.697    -3814148.65749  -2963358.68847  21113285.197    21113292.154
  21880427.231   -11804397.08849  -9186362.73647  21880426.966    21880434.692
  21570140.845   -15124990.58649 -11758798.41547  21570140.473    21570148.718
  24206919.482    -5192634.08049  -4025550.89445  24206918.799    24206929.482
 02  9  9 17 17  0.0000000  0  5G21G14G11G25G20
  22305540.203     6332272.53149   4935895.02846  22305539.626    22305549.170
  21124368.540    -3755907.78149  -2917976.21147  21124368.094    21124374.968
  21869861.449   -11859919.92549  -9229627.25847  21869861.230    21869869.057
  21557376.837   -15192066.07849 -11811064.97747  21557376.539    21557384.624
  24190321.169    -5279858.63149  -4093518.01545  24190320.201    24190331.295
 02  9  9 17 17 30.0000000  0  5G21G14G11G25G20
  22315875.805     6386585.79349   4978216.94946  22315875.281    22315884.784
  21135500.617    -3697408.77749  -2872392.60347  21135500.098    21135506.972
  21859383.744   -11914980.62849  -9272531.67747  21859383.494    21859391.307
  21544691.283   -15258728.77749 -11863009.89047  21544690.861    21544699.126
  24173723.903    -5367076.82649  -4161480.16945  24173723.199    24173733.886
 02  9  9 17 18  0.0000000  0  5G21G14G11G25G20
  22326256.272     6441134.81849   5020722.60646  22326255.625    22326265.302
  21146680.893    -3638656.64349  -2826611.77147  21146680.278    21146687.168
  21848993.757   -11969580.50349  -9315077.01547  21848993.427    21849001.080
  21532084.019   -15324979.58749 -11914633.84447  21532083.709    21532091.958
  24157127.624    -5454290.72949  -4229438.98945  24157126.690    24157137.456
 02  9  9 17 18 30.0000000  0  5G21G14G11G25G20
  22336682.085     6495922.72849   5063414.40946  22336681.527    22336691.156
  21157909.458    -3579650.33649  -2780632.87247  21157908.854    21157915.735
  21838692.344   -12023714.70749  -9357259.47547  21838692.008    21838699.629
  21519556.264   -15390813.48249 -11965932.93647  21519555.932    21519564.052
  24140532.321    -5541497.11749  -4297391.95145  24140531.608    24140542.387
 02  9  9 17 19  0.0000000  0  5G21G14G11G25G20
  22347153.159     6550947.59749   5106290.80746  22347152.548    22347162.061
  21169185.572    -3520393.59049  -2734458.83647  21169184.988    21169191.930
  21828479.618   -12077383.17149  -9399079.02747  21828479.238    21828486.780
  21507107.829   -15456230.17349 -12016906.93447  21507107.499    21507115.648
  24123938.681    -5628696.97349  -4365339.78345  24123937.766    24123948.526
 02  9  9 17 19 30.0000000  0  5G21G14G11G25G20
  22357669.370     6606209.52649   5149351.98046  22357668.748    22357678.083
  21180509.051    -3460888.44449  -2688091.23647  21180508.489    21180515.473
  21818355.747   -12130584.16749  -9440534.31047  21818355.437    21818362.990
  21494739.029   -15521227.95649 -12067554.50847  21494738.712    21494746.989
  24107345.951    -5715889.93449  -4433282.25345  24107345.253    24107356.471
 02  9  9 17 20  0.0000000  0  5G21G14G11G25G20
  22368230.968     6661710.64549   5192599.52646  22368230.257    22368239.728
  21191879.797    -3401135.27149  -2641530.36647  21191879.187    21191886.156
  21808321.668   -12183314.61249  -9481622.93347  21808321.273    21808328.789
  21482450.624   -15585803.80049 -12117873.29347  21482450.369    21482458.554
  24090755.281    -5803074.00049  -4501217.78745  24090754.459    24090766.002
 02  9  9 17 20 30.0000000  0  5G21G14G11G25G20
  22378837.771     6717449.30649   5236032.16146  22378837.103    22378846.524
  21203297.025    -3341137.17249  -2594778.64347  21203296.483    21203303.403
  21798377.112   -12235573.94749  -9522344.45647  21798376.688    21798384.272
  21470242.793   -15649956.85749 -12167862.64847  21470242.491    21470250.626
  24074165.632    -5890249.65649  -4569146.79645  24074164.972    24074176.950
 02  9  9 17 21  0.0000000  0  5G21G14G11G25G20
  22389489.935     6773426.57449   5279650.71546  22389489.239    22389498.769
  21214760.746    -3280895.28749  -2547836.95947  21214760.137    21214767.073
  21788522.733   -12287359.23649  -9562696.59947  21788522.350    21788529.960
  21458115.888   -15713684.03149 -12217520.13447  21458115.606    21458123.698
  24057578.939    -5977415.46049  -4637068.07045  24057577.925    24057589.713
 02  9  9 17 21 30.0000000  0  5G21G14G11G25G20
  22400187.071     6829641.07949   5323454.15046  22400186.464    22400196.274
  21226270.057    -3220413.20849  -2500708.11147  21226269.520    21226276.501
  21778758.564   -12338670.48449  -9602679.36947  21778758.140    21778765.834
  21446070.016   -15776985.33649 -12266845.78547  21446069.705    21446077.787
  24040993.536    -6064572.34949  -4704982.40245  24040992.497    24041003.881
 02  9  9 17 22  0.0000000  0  5G21G14G11G25G20
  22410929.900     6886095.06749   5367444.19646  22410929.317    22410939.187
  21237825.236    -3159690.48249  -2453391.74947  21237824.680    21237831.700
  21769085.317   -12389503.84849  -9642289.75647  21769084.906    21769092.557
  21434105.892   -15839856.65849 -12315836.38647  21434105.657    21434113.689
  24024410.292    -6151717.39849  -4772887.55845  24024409.357    24024420.796
 02  9  9 17 22 30.0000000  0  5G21G14G11G25G20
  22421718.293     6942787.84449   5411620.24846  22421717.678    22421727.485
  21249425.614    -3098729.98649  -2405890.11747  21249425.079    21249432.181
  21759503.155   -12439858.49149  -9681527.12747  21759502.750    21759510.267
  21422223.959   -15902297.43549 -12364491.49447  21422223.653    21422231.497
  24007829.452    -6238851.21349  -4840783.91645  24007828.605    24007839.470
 02  9  9 17 23  0.0000000  0  5G21G14G11G25G20
  22432551.565     6999717.45149   5455980.90446  22432550.938    22432560.860
  21261070.580    -3037535.65749  -2358206.26347  21261070.067    21261077.101
  21750012.094   -12489734.70249  -9720391.68247  21750011.630    21750018.994
  21410423.624   -15964307.60549 -12412811.05647  21410423.333    21410431.334
  23991250.705    -6325974.90249  -4908672.43645  23991249.584    23991260.335
 02  9  9 17 23 30.0000000  0  5G21G14G11G25G20
  22443430.956     7056889.17949   5500530.21246  22443430.337    22443440.448
  21272760.631    -2976104.60749  -2310337.95347  21272760.134    21272767.028
  21740613.299   -12539125.91849  -9758878.34147  21740612.867    21740619.861
  21398706.474   -16025880.32549 -12460789.76947  21398706.324    21398714.385
  23974674.229    -6413083.03849  -4976548.84045  23974673.230    23974684.680
 02  9  9 17 24  0.0000000  0  5G21G14G11G25G20
  22454356.216     7114300.89149   5545266.51546  22454355.573    22454365.713
  21284495.127    -2914440.71349  -2262288.20847  21284494.521    21284501.289
  21731306.539   -12588032.84749  -9796987.59247  21731306.080    21731313.173
  21387072.757   -16087016.24549 -12508428.09447  21387072.618    21387080.493
  23958101.134    -6500177.07749  -5044414.17445  23958100.062    23958111.134
 02  9  9 17 24 30.0000000  0  5G21G14G11G25G20
  22465326.574     7171950.03149   5590187.80946  22465325.998    22465336.024
  21296273.000    -2852547.86849  -2214060.05347  21296272.437    21296279.106
  21722092.032   -12636455.47049  -9834719.50647  21722091.639    21722098.522
  21375522.187   -16147715.27149 -12555725.98547  21375521.934    21375529.859
  23941530.240    -6587258.24649  -5112269.49145  23941529.115    23941539.660
 02  9  9 17 25  0.0000000  0  5G21G14G11G25G20
  22476342.927     7229840.78749   5635297.36946  22476342.312    22476352.308
  21308094.812    -2790424.56749  -2165652.31747  21308094.243    21308100.782
  21712970.695   -12684388.92649  -9872070.21447  21712970.283    21712977.160
  21364055.541   -16207972.75249 -12602679.84647  21364055.302    21364063.319
  23924962.025    -6674322.81749  -5180111.92545  23924961.115    23924971.915
 02  9  9 17 25 30.0000000  0  5G21G14G11G25G20
  22487405.230     7287973.94949   5680595.82146  22487404.723    22487414.760
  21319960.259    -2728072.09549  -2117066.00147  21319959.609    21319966.114
  21703942.852   -12731831.09749  -9909038.10947  21703942.453    21703949.281
  21352673.623   -16267785.93449 -12649287.46447  21352673.312    21352681.205
  23908397.451    -6761369.14549  -5247940.12545  23908396.502    23908407.611
 02  9  9 17 26  0.0000000  0  5G21G14G11G25G20
  22498512.965     7346344.61949   5726079.37246  22498512.404    22498522.450
  21331867.786    -2665497.11549  -2068306.32746  21331867.295    21331873.821
  21695007.799   -12778785.12849  -9945625.63447  21695007.389    21695014.309
  21341375.406   -16327158.37649 -12695551.66847  21341375.083    21341382.930
  23891836.149    -6848401.62849  -5315757.55445  23891834.707    23891845.787
 02  9  9 17 26 30.0000000  0  5G21G14G11G25G20
  22509666.329     7404955.73249   5771750.27046  22509665.753    22509675.857
  21343818.005    -2602698.69649  -2019372.54146  21343817.413    21343824.078
  21686166.491   -12825246.52549  -9981829.30447  21686166.060    21686172.881
  21330162.112   -16386084.89449 -12741468.39247  21330161.766    21330169.525
  23875277.823    -6935416.38949  -5383561.18045  23875276.430    23875287.133
 02  9  9 17 27  0.0000000  0  5G21G14G11G25G20
  22520865.560     7463807.86549   5817608.95846  22520864.969    22520875.000
  21355810.433    -2539677.61449  -1970265.26346  21355809.890    21355816.658
  21677419.213   -12871212.80549 -10017647.16447  21677418.845    21677425.553
  21319034.043   -16444563.18349 -12787035.85347  21319033.680    21319041.431
  23858722.713    -7022411.95449  -5451349.87745  23858721.562    23858732.213
 02  9  9 17 27 30.0000000  0  5G21G14G11G25G20
  22532110.983     7522902.42349   5863656.55346  22532110.434    22532120.356
  21367845.179    -2476434.90249  -1920985.28146  21367844.659    21367851.441
  21668766.752   -12916681.02249 -10053076.93047  21668766.465    21668773.106
  21307991.761   -16502590.31449 -12832251.74647  21307991.424    21307999.173
  23842171.593    -7109386.63449  -5519122.24345  23842170.579    23842181.460
 02  9  9 17 28  0.0000000  0  5G21G14G11G25G20
  22543402.459     7582238.17349   5909892.08746  22543401.798    22543411.608
  21379921.604    -2412973.73949  -1871535.08246  21379920.959    21379927.787
  21660209.179   -12961651.35249 -10088118.72747  21660208.820    21660215.499
  21297035.405   -16560166.24249 -12877116.05147  21297035.090    21297042.813
  23825624.600    -7196341.06349  -5586878.83645  23825623.694    23825634.207
 02  9  9 17 28 30.0000000  0  5G21G14G11G25G20
  22554739.495     7641815.09949   5956315.55846  22554738.869    22554748.841
  21392039.046    -2349296.12349  -1821916.22046  21392038.400    21392045.276
  21651746.595   -13006122.29449 -10122771.39747  21651746.248    21651753.056
  21286165.118   -16617289.38749 -12921627.56047  21286164.805    21286172.603
  23809081.445    -7283274.76849  -5654619.30545  23809080.587    23809091.166
 02  9  9 17 29  0.0000000  0  5G21G14G11G25G20
  22566122.517     7701632.87449   6002926.71346  22566121.938    22566131.910
  21404197.151    -2285404.25549  -1772130.38646  21404196.553    21404203.515
  21643379.172   -13050092.72549 -10157034.05647  21643378.851    21643385.835
  21275381.238   -16673958.65649 -12965785.38247  21275381.030    21275388.707
  23792542.538    -7370187.31049  -5722343.28945  23792541.815    23792552.403
 02  9  9 17 29 30.0000000  0  5G21G14G11G25G20
  22577551.371     7761691.10149   6049725.21246  22577550.628    22577560.786
  21416395.811    -2221300.35449  -1722179.31046  21416395.099    21416402.113
  21635107.303   -13093561.48849 -10190905.80847  21635106.997    21635113.996
  21264684.115   -16730172.97549 -13009588.69647  21264683.826    21264691.366
  23776008.046    -7457078.18149  -5790050.36545  23776007.113    23776017.176
 02  9  9 17 30  0.0000000  0  5G21G14G11G25G20
  22589025.987     7821991.61649   6096712.50646  22589025.404    22589035.682
  21428634.878    -2156984.17849  -1672062.84446  21428634.055    21428641.026
  21626931.579   -13136525.09549 -10224383.92347  21626931.277    21626938.224
  21254074.099   -16785928.58249 -13053034.58547  21254073.821    21254081.433
  23759477.648    -7543944.78549  -5857738.53645  23759476.918    23759486.520
 02  9  9 17 30 30.0000000  0  5G21G14G11G25G20
  22600547.317     7882536.16149   6143889.95346  22600546.727    22600557.182
  21440914.358    -2092455.63349  -1621780.91746  21440913.514    21440920.370
  21618852.694   -13178980.39849 -10257465.96847  21618852.350    21618859.096
  21243552.181   -16841221.83749 -13096120.18747  21243551.865    21243559.514
  23742952.629    -7630784.49049  -5925405.73745  23742951.886    23742961.208
 02  9  9 17 31  0.0000000  0  5G21G14G11G25G20
  22612114.288     7943320.19649   6191254.00646  22612113.620    22612124.185
  21453232.751    -2027721.58249  -1571338.83646  21453232.107    21453238.814
  21610869.871   -13220930.69849 -10290154.49847  21610869.486    21610876.230
  21233117.491   -16896055.97049 -13138848.03647  21233117.239    21233124.809
  23726431.963    -7717601.31949  -5993055.10545  23726431.074    23726440.433
 02  9  9 17 31 30.0000000  0  5G21G14G11G25G20
  22623727.359     8004346.83049   6238807.10146  22623726.700    22623737.347
  21465590.590    -1962780.66549  -1520735.59846  21465590.041    21465596.594
  21602984.058   -13262371.51949 -10322446.03647  21602983.665    21602990.358
  21222771.077   -16950426.86449 -13181214.91447  21222770.802    21222778.296
  23709916.214    -7804391.43049  -6060683.67445  23709915.307    23709925.005
 02  9  9 17 32  0.0000000  0  5G21G14G11G25G20
  22635386.394     8065617.17949   6286550.11646  22635385.848    22635396.862
  21477987.653    -1897633.44349  -1469971.60246  21477987.179    21477993.820
  21595195.830   -13303299.97749 -10354338.32347  21595195.337    21595201.994
  21212513.219   -17004331.56849 -13223218.53647  21212512.943    21212520.543
  23693405.800    -7891152.84349  -6128289.84945  23693404.888    23693414.979
 02  9  9 17 32 30.0000000  0  5G21G14G11G25G20
  22647092.114     8127130.79849   6334482.69446  22647091.574    22647102.658
  21490423.690    -1832282.20249  -1419048.63446  21490423.110    21490429.836
  21587505.093   -13343715.11549 -10385830.62347  21587504.561    21587511.367
  21202344.418   -17057768.85049 -13264857.92447  21202344.113    21202351.849
  23676900.583    -7977885.25849  -6195873.44445  23676899.843    23676910.275
 02  9  9 17 33  0.0000000  0  5G21G14G11G25G20
  22658844.122     8188886.81349   6382604.11846  22658843.499    22658854.503
  21502897.867    -1766729.92149  -1367968.99546  21502897.214    21502904.211
  21579911.878   -13383616.96549 -10416922.96747  21579911.399    21579918.343
  21192264.606   -17110738.15049 -13306132.66447  21192264.331    21192272.012
  23660401.568    -8064588.79349  -6263434.52645  23660400.715    23660410.974
 02  9  9 17 33 30.0000000  0  5G21G14G11G25G20
  22670641.607     8250883.35949   6430912.97946  22670640.982    22670652.051
  21515409.508    -1700980.21249  -1316735.51546  21515408.922    21515416.113
  21572416.280   -13423005.76949 -10447615.51447  21572415.817    21572422.981
  21182273.826   -17163240.23549 -13347043.32447  21182273.467    21182280.990
  23643907.559    -8151265.07149  -6330974.33845  23643906.605    23643917.028
 02  9  9 17 34  0.0000000  0  5G21G14G11G25G20
  22682485.711     8313124.42949   6479412.38946  22682485.102    22682496.392
  21527959.307    -1635030.75349  -1265346.37446  21527958.714    21527965.870
  21565019.382   -13461876.17149 -10477904.13347  21565018.898    21565026.058
  21172372.917   -17215269.60649 -13387585.66547  21172372.591    21172380.092
  23627419.573    -8237908.59749  -6398488.69046  23627418.829    23627429.554
 02  9  9 17 34 30.0000000  0  5G21G14G11G25G20
  22694375.836     8375606.17849   6528099.35346  22694375.051    22694386.532
  21540545.919    -1568887.08549  -1213805.89546  21540545.421    21540552.577
  21557720.666   -13500230.62849 -10507790.71047  21557720.281    21557727.412
  21162561.593   -17266828.37249 -13427761.28947  21162561.244    21162568.706
  23610937.468    -8324522.48849  -6465979.93646  23610936.828    23610947.609
 02  9  9 17 35  0.0000000  0  5G21G14G11G25G20
  22706311.974     8438331.34349   6576975.95146  22706311.328    22706322.778
  21553169.935    -1502548.38849  -1162113.46146  21553169.381    21553176.423
  21550521.081   -13538065.13749 -10537272.14847  21550520.605    21550527.686
  21152840.497   -17317912.38249 -13467566.98447  21152840.263    21152847.698
  23594461.775    -8411103.28749  -6533445.40245  23594461.214    23594471.604
 02  9  9 17 35 30.0000000  0  5G21G14G11G25G20
  22718294.418     8501298.43949   6626041.07346  22718293.742    22718305.046
  21565830.375    -1436017.55849  -1110271.30746  21565829.886    21565836.874
  21543420.436   -13575379.44049 -10566348.22047  21543420.010    21543427.078
  21143209.812   -17368521.51849 -13507002.63647  21143209.611    21143217.137
  23577992.372    -8497651.18049  -6600885.27145  23577991.666    23578002.075
 02  9  9 17 36  0.0000000  0  5G21G14G11G25G20
  22730323.152     8564509.33849   6675296.19146  22730322.565    22730333.912
  21578527.488    -1369294.77049  -1058279.58246  21578526.906    21578533.839
  21536419.391   -13612170.82649 -10595016.81447  21536418.848    21536425.998
  21133670.008   -17418653.16549 -13546066.23647  21133669.835    21133677.389
  23561529.569    -8584163.94349  -6668297.72745  23561528.933    23561539.005
 02  9  9 17 36 30.0000000  0  5G21G14G11G25G20
  22742398.360     8627963.06549   6724740.49446  22742397.605    22742408.979
  21591260.696    -1302382.63449  -1006140.31146  21591260.002    21591266.805
  21529517.655   -13648439.06449 -10623277.77247  21529517.116    21529524.308
  21124221.489   -17468306.51149 -13584757.11647  21124221.206    21124228.590
  23545073.476    -8670641.69349  -6735682.87745  23545072.716    23545082.823
 02  9  9 17 37  0.0000000  0  5G21G14G11G25G20
  22754519.795     8691660.74949   6774374.91546  22754519.084    22754530.355
  21604029.541    -1235281.81949   -953854.02646  21604028.912    21604035.791
  21522716.024   -13684181.76449 -10651129.21747  21522715.484    21522722.593
  21114864.286   -17517479.14549 -13623073.43147  21114863.914    21114871.329
  23528623.951    -8757082.50849  -6803039.28645  23528623.283    23528633.825
 02  9  9 17 37 30.0000000  0  5G21G14G11G25G20
  22766687.215     8755600.24849   6824197.74246  22766686.471    22766697.749
  21616833.475    -1167995.67049   -901423.30246  21616832.998    21616840.022
  21516014.498   -13719398.88049 -10678571.13347  21516013.983    21516020.911
  21105598.488   -17566171.08149 -13661015.17447  21105598.138    21105605.521
  23512181.791    -8843486.83049  -6870367.23145  23512181.025    23512191.502
 02  9  9 17 38  0.0000000  0  5G21G14G11G25G20
  22778900.953     8819784.34649   6874211.18146  22778900.285    22778911.857
  21629673.026    -1100523.23849   -848847.43646  21629672.580    21629679.728
  21509413.563   -13754086.97549 -10705600.81447  21509413.083    21509419.970
  21096424.785   -17614378.94149 -13698579.70847  21096424.429    21096431.932
  23495747.107    -8929851.34849  -6937664.15245  23495746.443    23495756.631
 02  9  9 17 38 30.0000000  0  5G21G14G11G25G20
  22791161.355     8884211.68749   6924414.18146  22791160.697    22791172.153
  21642547.548    -1032867.94749   -796129.07546  21642546.996    21642554.276
  21502913.313   -13788246.25549 -10732218.41847  21502912.863    21502919.655
  21087343.246   -17662102.73149 -13735767.05847  21087342.886    21087350.434
  23479319.892    -9016176.54749  -7004930.49445  23479319.236    23479329.223
 02  9  9 17 39  0.0000000  0  5G21G14G11G25G20
  22803467.697     8948881.92249   6974806.38946  22803467.208    22803478.659
  21655456.343     -965031.37649   -743269.47846  21655455.860    21655463.215
  21496513.923   -13821875.47649 -10758423.01247  21496513.483    21496520.201
  21078354.020   -17709341.00849 -13772576.08547  21078353.679    21078361.204
  23462900.399    -9102461.50149  -7072165.40845  23462899.803    23462909.507
 02  9  9 17 39 30.0000000  0  5G21G14G11G25G20
  22815820.378     9013794.50449   7025387.51446  22815819.795    22815831.269
  21668399.331     -897016.00849   -690270.53346  21668398.820    21668406.094
  21490215.376   -13854974.29049 -10784214.27447  21490215.013    21490221.675
  21069457.471   -17756093.24349 -13809006.37047  21069457.108    21069464.462
  23446488.848    -9188706.08049  -7139368.84045  23446487.963    23446497.446
 02  9  9 17 40  0.0000000  0  5G21G14G11G25G20
  22828219.357     9078951.18449   7076158.79646  22828218.902    22828230.238
  21681376.154     -828821.95149   -637132.36646  21681375.716    21681383.073
  21484018.400   -13887539.71049 -10809589.92347  21484018.054    21484024.577
  21060653.718   -17802356.94649 -13845055.99747  21060653.333    21060660.751
  23430084.952    -9274907.81849  -7206538.94645  23430084.250    23430093.414
 02  9  9 17 40 30.0000000  0  5G21G14G11G25G20
  22840664.805     9144351.64549   7127120.06146  22840664.277    22840675.388
  21694386.749     -760450.86149   -583856.26946  21694386.289    21694393.658
  21477922.953   -13919570.99049 -10834549.35247  21477922.664    21477929.340
  21051943.254   -17848130.44549 -13880723.63847  21051942.913    21051950.417
  23413689.479    -9361065.87049  -7273674.98345  23413688.911    23413697.783
 02  9  9 17 41  0.0000000  0  5G21G14G11G25G20
  22853156.746     9209995.94349   7178271.33846  22853156.189    22853167.052
  21707430.824     -691904.25949   -530443.40346  21707430.359    21707437.588
  21471929.494   -13951066.66049 -10859091.40747  21471929.203    21471936.058
  21043326.316   -17893412.25149 -13916008.15647  21043326.048    21043333.603
  23397302.747    -9447178.91149  -7340775.94745  23397302.105    23397311.147
 02  9  9 17 41 30.0000000  0  5G21G14G11G25G20
  22865694.571     9275881.42149   7229610.50346  22865693.960    22865704.801
  21720507.371     -623186.16049   -476896.89646  21720507.056    21720514.341
  21466037.884   -13982027.86149 -10883217.01647  21466037.541    21466044.286
  21034802.807   -17938203.73549 -13950910.59247  21034802.509    21034809.920
  23380924.297    -9533248.30449  -7407842.94645  23380923.543    23380932.933
 02  9  9 17 42  0.0000000  0  5G21G14G11G25G20
  22878278.634     9342010.26049   7281139.36146  22878278.027    22878288.737
  21733616.929     -554295.92349   -423216.25346  21733616.540    21733623.887
  21460248.461   -14012451.36749 -10906923.62947  21460248.099    21460254.842
  21026373.214   -17982501.52349 -13985428.32947  21026372.845    21026380.288
  23364554.940    -9619271.00949  -7474873.52145  23364553.946    23364563.120
 02  9  9 17 42 30.0000000  0  5G21G14G11G25G20
  22890909.086     9408383.14449   7332858.35846  22890908.553    22890919.108
  21746758.994     -485234.39849   -369402.17346  21746758.552    21746765.869
  21454561.695   -14042335.33849 -10930209.83347  21454561.356    21454568.038
  21018037.811   -18026303.65749 -14019559.85347  21018037.476    21018045.128
  23348194.883    -9705245.34349  -7541866.39845  23348193.602    23348202.391
 02  9  9 17 43  0.0000000  0  5G21G14G11G25G20
  22903586.026     9475000.38049   7384767.75746  22903585.438    22903596.228
  21759933.480     -416002.99949   -315455.70446  21759932.952    21759940.146
  21448977.816   -14071678.20849 -10953074.40047  21448977.512    21448984.225
  21009797.084   -18069608.76849 -14053304.08747  21009796.790    21009804.443
  23331843.799    -9791169.65749  -7608820.32445  23331842.553    23331851.379
 02  9  9 17 43 30.0000000  0  5G21G14G11G25G20
  22916309.251     9541860.11549   7436866.11146  22916308.619    22916319.597
  21773139.340     -346605.20849   -261379.58246  21773138.889    21773146.066
  21443496.801   -14100481.04249 -10975518.16347  21443496.437    21443503.257
  21001650.876   -18112417.21549 -14086661.29947  21001650.600    21001658.079
  23315502.164    -9877045.13549  -7675736.19746  23315500.954    23315509.734
 02  9  9 17 44  0.0000000  0  5G21G14G11G25G20
  22929078.673     9608963.05249   7489153.97346  22929077.970    22929088.987
  21786376.734     -277042.09249   -207174.63846  21786376.146    21786383.497
  21438118.766   -14128742.11749 -10997539.78247  21438118.430    21438125.344
  20993599.454   -18154727.75049 -14119630.54747  20993599.184    20993606.659
  23299170.415    -9962870.11249  -7742612.71046  23299169.071    23299177.757
 02  9  9 17 44 30.0000000  0  5G21G14G11G25G20
  22941894.485     9676309.64949   7541631.66446  22941893.807    22941904.892
  21799645.373     -207314.46149   -152841.49946  21799644.820    21799652.215
  21432844.250   -14156459.67549 -11019137.89347  21432843.931    21432850.859
  20985643.262   -18196538.16149 -14152210.08048  20985643.021    20985650.465
  23282848.340   -10048642.63349  -7809448.36346  23282847.031    23282855.776
 02  9  9 17 45  0.0000000  0  5G21G14G11G25G20
  22954756.519     9743899.57749   7594298.98046  22954755.853    22954766.918
  21812945.004     -137423.86749    -98381.37846  21812944.553    21812952.051
  21427673.493   -14183632.75949 -11040311.72747  21427673.110    21427680.104
  20977782.429   -18237847.13849 -14184398.88148  20977782.194    20977789.657
  23266536.112   -10134361.75549  -7876242.40046  23266534.994    23266544.006
 02  9  9 17 45 30.0000000  0  5G21G14G11G25G20
  22967665.070     9811733.84549   7647156.73746  22967664.446    22967675.401
  21826275.597      -67370.79349    -43794.64946  21826275.254    21826282.835
  21422606.701   -14210259.38849 -11061059.75847  21422606.288    21422613.397
  20970017.312   -18278653.01149 -14216195.66348  20970017.139    20970024.570
  23250234.328   -10220025.40349  -7942993.22046  23250233.359    23250242.697
 02  9  9 17 46  0.0000000  0  5G21G14G11G25G20
  22980620.011     9879810.97149   7700203.65246  22980619.337    22980630.092
  21839636.809        2841.51649     10916.15546  21839636.374    21839643.928
  21417643.583   -14236340.28449 -11081382.52747  21417643.214    21417650.404
  20962347.995   -18318956.23149 -14247600.75848  20962347.729    20962355.094
  23233943.593   -10305634.21849  -8009701.31346  23233942.526    23233952.041
 02  9  9 17 46 30.0000000  0  5G21G14G11G25G20
  22993621.012     9948131.16449   7753439.98446  22993620.328    22993631.226
  21853028.229       73212.19849     65750.36846  21853027.674    21853035.079
  21412784.733   -14261873.88249 -11101278.84347  21412784.338    21412791.417
  20954774.537   -18358755.05649 -14278612.83148  20954774.272    20954781.653
  23217663.335   -10391186.11949  -8076365.07946  23217662.357    23217672.243
 02  9  9 17 47  0.0000000  0  5G21G14G11G25G20
  23006668.468    10016694.67549   7806865.91846  23006667.785    23006678.647
  21866449.165      143739.64149    120706.73646  21866448.752    21866456.101
  21408030.306   -14286858.99949 -11120747.78147  21408029.859    21408036.719
  20947297.117   -18398048.48549 -14309231.08347  20947296.848    20947304.313
  23201394.189   -10476680.14349  -8142983.75846  23201393.300    23201403.261
 02  9  9 17 47 30.0000000  0  5G21G14G11G25G20
  23019761.778    10085500.70949   7860480.84446  23019761.121    23019772.067
  21879899.682      214421.29049    175783.24446  21879899.250    21879906.384
  21403380.042   -14311295.65949 -11139789.34147  21403379.659    21403386.399
  20939915.992   -18436836.35449 -14339455.38048  20939915.778    20939923.226
  23185136.073   -10562116.26949  -8209557.27646  23185135.245    23185145.353
 02  9  9 17 48  0.0000000  0  5G21G14G11G25G20
  23032901.480    10154550.50649   7914285.70746  23032900.865    23032911.994
  21893379.668      285257.68449    230980.36446  21893379.168    21893386.004
  21398834.728   -14335181.14049 -11158401.40047  21398834.345    21398841.125
  20932631.780   -18475115.71949 -14369283.43748  20932631.461    20932638.936
  23168889.604   -10647491.48249  -8276083.35946  23168888.733    23168898.880
 02  9  9 17 48 30.0000000  0  5G21G14G11G25G20
  23046087.214    10223842.97649   7968279.64446  23046086.686    23046098.167
  21906888.554      356246.40449    286296.16546  21906887.927    21906894.557
  21394394.179   -14358515.49849 -11176584.03747  21394393.929    21394400.734
  20925444.039   -18512886.27749 -14398715.03347  20925443.876    20925451.387
  23152654.613   -10732805.50049  -8342561.72546  23152653.771    23152664.249
 02  9  9 17 49  0.0000000  0  5G21G14G11G25G20
  23059319.380    10293377.80049   8022462.43746  23059318.795    23059330.292
  21920425.986      427385.62849    341729.26546  21920425.405    21920432.194
  21390058.786   -14381298.13649 -11194336.75647  21390058.511    21390065.488
  20918353.614   -18550147.64949 -14427749.83548  20918353.375    20918360.748
  23136431.758   -10818057.30149  -8408991.63546  23136431.042    23136441.347
 02  9  9 17 49 30.0000000  0  5G21G14G11G25G20
  23072597.701    10363154.84549   8076834.02345  23072597.043    23072608.484
  21933991.831      498674.04049    397278.58546  21933991.174    21933998.333
  21385828.602   -14403527.89749 -11211658.67347  21385828.319    21385835.490
  20911360.201   -18586898.45249 -14456386.82748  20911359.907    20911367.335
  23120220.581   -10903245.70749  -8475372.13646  23120220.125    23120230.477
 02  9  9 17 50  0.0000000  0  5G21G14G11G25G20
  23085921.911    10433173.55549   8131393.87245  23085921.319    23085932.899
  21947585.574      570109.45849    452942.45346  21947584.923    21947592.353
  21381703.754   -14425204.83349 -11228549.80247  21381703.345    21381710.671
  20904463.947   -18623138.73549 -14484625.99048  20904463.641    20904471.015
  23104021.974   -10988370.09949  -8541702.78146  23104021.489    23104031.745
 02  9  9 17 50 30.0000000  0  5G21G14G11G25G20
  23099292.021    10503433.86449   8186142.02245  23099291.483    23099302.943
  21961207.211      641690.57249    508719.86546  21961206.423    21961214.026
  21377684.275   -14446327.87849 -11245009.32947  21377683.838    21377691.250
  20897665.056   -18658867.08249 -14512466.24248  20897664.748    20897672.081
  23087836.051   -11073429.24349  -8607982.54446  23087835.413    23087845.438
 02  9  9 17 51  0.0000000  0  5G21G14G11G25G20
  23112708.226    10573935.72449   8241078.33545  23112707.675    23112718.971
  21974855.993      713415.86049    564609.57846  21974855.414    21974863.196
  21373770.192   -14466896.39349 -11261036.75847  21373769.827    21373777.266
  20890963.782   -18694082.97849 -14539907.18648  20890963.487    20890970.681
  23071662.512   -11158421.97349  -8674210.58146  23071661.841    23071671.679
 02  9  9 17 51 30.0000000  0  5G21G14G11G25G20
  23126170.411    10644680.32449   8296203.84945  23126169.906    23126181.367
  21988532.407      785285.37849    620611.69246  21988531.846    21988539.596
  21369962.092   -14486908.10249 -11276630.30247  21369961.773    21369969.134
  20884360.360   -18728784.13149 -14566947.03348  20884360.019    20884367.290
  23055501.798   -11243345.69949  -8740384.81946  23055501.179    23055511.227
 02  9  9 17 52  0.0000000  0  5G21G14G11G25G20
  23139678.598    10715666.39549   8351517.51245  23139678.184    23139689.904
  22002235.577      857296.68349    676724.30346  22002235.140    22002242.911
  21366259.991   -14506363.21849 -11291790.14447  21366259.686    21366266.735
  20877854.859   -18762970.55049 -14593585.79048  20877854.562    20877861.843
  23039354.673   -11328200.03749  -8806504.98546  23039353.957    23039364.071
 02  9  9 17 52 30.0000000  0  5G21G14G11G25G20
  23153232.750    10786894.07449   8407019.40946  23153232.320    23153244.436
  22015965.600      929448.31249    732946.23946  22015965.154    22015972.936
  21362663.931   -14525261.17649 -11306515.83747  21362663.635    21362670.411
  20871447.499   -18796641.36449 -14619822.76148  20871447.158    20871454.433
  23023220.777   -11412984.16949  -8872570.48346  23023220.097    23023230.100
 02  9  9 17 53  0.0000000  0  5G21G14G11G25G20
  23166833.225    10858363.79349   8462709.91945  23166832.725    23166844.829
  22029722.333     1001739.66449    789277.05146  22029721.731    22029729.579
  21359174.009   -14543600.54449 -11320806.26947  21359173.702    21359180.527
  20865138.389   -18829795.36849 -14645657.03347  20865138.106    20865145.362
  23007100.568   -11497695.88049  -8938579.51546  23007099.936    23007109.892
 02  9  9 17 53 30.0000000  0  5G21G14G11G25G20
  23180478.918    10930072.43749   8518586.59845  23180478.319    23180490.805
  22043504.686     1074166.50449    845713.44146  22043504.070    22043512.026
  21355789.961   -14561383.25749 -11334662.91947  21355789.704    21355796.750
  20858927.400   -18862433.93749 -14671089.66547  20858927.145    20858934.487
  22990994.070   -11582336.46449  -9004533.10746  22990993.357    22991003.073
 02  9  9 17 54  0.0000000  0  5G21G14G11G25G20
  23194170.745    11002022.56849   8574651.44445  23194170.190    23194182.668
  22057313.062     1146729.99949    902256.35346  22057312.490    22057320.541
  21352512.681   -14578605.84449 -11348083.12647  21352512.373    21352519.407
  20852815.232   -18894553.56549 -14696117.93448  20852814.966    20852822.428
  22974901.492   -11666902.21449  -9070428.44146  22974900.857    22974910.662
 02  9  9 17 54 30.0000000  0  5G21G14G11G25G20
  23207908.441    11074213.94749   8630904.25045  23207907.890    23207920.387
  22071147.091     1219428.49449    958904.46146  22071146.633    22071154.783
  21349342.250   -14595268.30149 -11361066.88347  21349341.868    21349348.666
  20846801.827   -18926154.02849 -14720741.64747  20846801.550    20846808.995
  22958823.553   -11751392.22249  -9136264.69946  22958822.957    22958832.778
 02  9  9 17 55  0.0000000  0  5G21G14G11G25G20
  23221692.056    11146646.11949   8687344.74845  23221691.556    23221703.928
  22085006.591     1292260.52549   1015656.63046  22085006.248    22085014.339
  21346278.290   -14611369.75249 -11373613.48847  21346277.929    21346284.687
  20840887.332   -18957234.55349 -14744960.21847  20840887.084    20840894.504
  22942760.517   -11835804.97249  -9202040.77946  22942759.618    22942769.446
 02  9  9 17 55 30.0000000  0  5G21G14G11G25G20
  23235521.138    11219316.61449   8743970.93845  23235520.514    23235532.948
  22098890.900     1365222.58849   1072510.11746  22098890.586    22098898.509
  21343320.515   -14626911.87249 -11385724.24347  21343320.207    21343327.247
  20835071.515   -18987796.72249 -14768774.86348  20835071.301    20835078.739
  22926711.469   -11920141.59149  -9267757.54946  22926710.738    22926720.549
 02  9  9 17 56  0.0000000  0  5G21G14G11G25G20
  23249395.241    11292229.06649   8800785.58245  23249394.809    23249407.692
  22112800.263     1438317.41749   1129467.04046  22112800.037    22112808.023
  21340470.111   -14641889.98749 -11397395.50747  21340469.820    21340477.079
  20829355.208   -19017835.49449 -14792181.69048  20829355.018    20829362.584
  22910678.291   -12004396.56449  -9333410.66746  22910677.508    22910687.334
 02  9  9 17 56 30.0000000  0  5G21G14G11G25G20
  23263316.180    11365383.15049   8857788.61445  23263315.651    23263328.690
  22126734.762     1511543.19049   1186525.98346  22126734.460    22126742.291
  21337727.143   -14656304.10549 -11408627.31747  21337726.859    21337734.146
  20823738.619   -19047350.89949 -14815180.68648  20823738.456    20823745.931
  22894660.464   -12088569.20049  -9398999.66946  22894659.748    22894669.749
 02  9  9 17 57  0.0000000  0  5G21G14G11G25G20
  23277282.583    11438776.96349   8914978.39445  23277282.252    23277295.402
  22140693.621     1584897.19149   1243684.85246  22140693.327    22140701.079
  21335091.583   -14670155.02049 -11419420.25347  21335091.244    21335098.308
  20818221.535   -19076343.69549 -14837772.45248  20818221.325    20818228.713
  22878658.424   -12172659.81749  -9464524.71546  22878657.506    22878667.589
 02  9  9 17 57 30.0000000  0  5G21G14G11G25G20
  23291294.391    11512409.02249   8972353.84445  23291293.952    23291307.088
  22154676.434     1658375.99049   1300940.98246  22154676.057    22154683.597
  21332562.775   -14683444.23149 -11429775.49447  21332562.385    21332569.438
  20812803.550   -19104814.81849 -14859957.73248  20812803.376    20812810.893
  22862672.005   -12256668.92349  -9529986.26646  22862671.192    22862681.235
 02  9  9 17 58  0.0000000  0  5G21G14G11G25G20
  23305352.029    11586280.46749   9029915.79745  23305351.499    23305364.539
  22168683.233     1731980.26949   1358294.86946  22168682.680    22168690.185
  21330141.208   -14696168.97749 -11439690.88547  21330140.871    21330148.143
  20807485.548   -19132761.59049 -14881734.42248  20807485.347    20807492.817
  22846701.843   -12340592.94449  -9595381.52446  22846700.988    22846710.944
 02  9  9 17 58 30.0000000  0  5G21G14G11G25G20
  23319454.805    11660389.62049   9087663.06345  23319454.367    23319467.278
  22182713.322     1805707.36249   1415744.46346  22182712.676    22182720.051
  21327826.917   -14708330.53149 -11449167.43447  21327826.613    21327833.897
  20802267.090   -19160185.12449 -14903103.39148  20802266.870    20802274.283
  22830747.518   -12424431.92249  -9660710.52846  22830746.704    22830756.744
 02  9  9 17 59  0.0000000  0  5G21G14G11G25G20
  23333603.315    11734739.17549   9145597.55545  23333602.653    23333615.604
  22196766.998     1879558.58449   1473290.76946  22196766.319    22196773.627
  21325620.537   -14719925.68549 -11458202.63047  21325620.240    21325627.428
  20797148.709   -19187082.25449 -14924062.17448  20797148.494    20797155.929
  22814810.363   -12508181.86549  -9725970.10346  22814809.755    22814819.328
 02  9  9 17 59 30.0000000  0  5G21G14G11G25G20
  23347796.562    11809324.64849   9203715.86745  23347795.777    23347808.785
  22210843.032     1953528.94749   1530929.87646  22210842.463    22210849.773
  21323521.296   -14730957.54849 -11466798.89447  21323520.974    21323527.982
  20792129.946   -19213456.04549 -14944613.16348  20792129.708    20792137.148
  22798890.022   -12591845.44749  -9791162.41246  22798889.277    22798898.723
 02  9  9 18  0  0.0000000  0  5G21G14G11G25G20
  23362035.407    11884149.40649   9262020.72745  23362034.759    23362047.969
  22224942.356     2027620.51849   1588663.46646  22224941.693    22224949.076
  21321529.832   -14741422.42049 -11474953.35347  21321529.522    21321536.568
  20787211.589   -19239302.35849 -14964753.13748  20787211.353    20787218.723
  22782986.697   -12675417.85949  -9856283.68846  22782985.947    22782995.478
 02  9  9 18  0 30.0000000  0  6G21G14G30G11G25G20
  23376319.213    11959210.28049   9320509.52645  23376318.552    23376332.121
  22239063.727     2101828.60149   1646487.83146  22239063.057    22239070.446
  24476976.965    -5499237.59449  -4128818.32645  24476976.912    24476990.045
  21319645.758   -14751323.42549 -11482668.43947  21319645.456    21319652.486
  20782393.025   -19264624.17349 -14984484.41048  20782392.779    20782400.150
  22767100.383   -12758900.76749  -9921335.23646  22767099.745    22767108.957
 02  9  9 18  1  0.0000000  0  6G21G14G30G11G25G20
  23390648.346    12034509.27649   9379183.84645  23390647.641    23390661.305
  22253207.303     2176154.56649   1704404.07746  22253206.695    22253214.297
  24472193.571    -5524375.59949  -4148406.25345  24472193.602    24472206.392
  21317869.699   -14760657.78249 -11489941.97647  21317869.346    21317876.277
  20777674.758   -19289418.40749 -15003804.57648  20777674.535    20777681.899
  22751231.852   -12842290.44549  -9986314.13946  22751231.170    22751240.164
 02  9  9 18  1 30.0000000  0  6G21G14G30G11G25G20
  23405022.601    12110044.65449   9438042.34145  23405021.980    23405035.388
  22267372.903     2250595.63749   1762410.01246  22267372.358    22267380.195
  24467499.591    -5549044.52949  -4167628.66245  24467499.532    24467512.164
  21316201.273   -14769426.11549 -11496774.47147  21316200.861    21316207.732
  20773056.755   -19313686.28149 -15022714.59248  20773056.542    20773063.916
  22735381.015   -12925586.99149 -10051220.47446  22735380.294    22735389.362
 02  9  9 18  2  0.0000000  0  6G21G14G30G11G25G20
  23419441.998    12185817.21349   9497085.72645  23419441.268    23419454.899
  22281560.582     2325151.85249   1820505.69246  22281559.937    22281567.817
  24462895.238    -5573241.24249  -4186483.13846  24462895.160    24462907.633
  21314640.504   -14777627.06049 -11503164.82647  21314640.132    21314647.240
  20768539.307   -19337425.65149 -15041212.80248  20768539.080    20768546.509
  22719548.291   -13008787.46749 -10116051.94346  22719547.575    22719556.812
 02  9  9 18  2 30.0000000  0  6G21G14G30G11G25G20
  23433906.338    12261827.03549   9556313.94045  23433905.823    23433919.405
  22295770.230     2399822.14549   1878690.26546  22295769.400    22295777.233
  24458380.752    -5596963.59649  -4204967.94245  24458380.656    24458393.142
  21313187.829   -14785259.96949 -11509112.56547  21313187.497    21313194.804
  20764122.618   -19360635.64149 -15059298.50548  20764122.407    20764129.797
  22703734.265   -13091890.61149 -10180807.56646  22703733.402    22703742.552
 02  9  9 18  3  0.0000000  0  6G21G14G30G11G25G20
  23448416.252    12338073.92049   9615726.88245  23448415.580    23448428.627
  22310000.983     2474605.68349   1936963.04546  22310000.208    22310008.255
  24453956.931    -5620209.60449  -4223081.60545  24453956.828    24453969.395
  21311843.578   -14792324.40849 -11514617.34547  21311843.248    21311850.545
  20759806.825   -19383315.57649 -15076971.17548  20759806.535    20759813.884
  22687938.891   -13174894.28649 -10245485.68446  22687938.257    22687947.287
 02  9  9 18  3 30.0000000  0  6G21G14G30G11G25G20
  23462970.276    12414555.85649   9675323.03345  23462969.834    23462982.903
  22324252.715     2549499.35449   1995321.66046  22324251.962    22324260.239
  24449623.712    -5642979.40349  -4240824.15645  24449623.817    24449636.546
  21310607.287   -14798821.75849 -11519680.23347  21310606.914    21310614.106
  20755591.483   -19405467.13749 -15094232.11948  20755591.223    20755598.535
  22672162.832   -13257798.92149 -10310086.61146  22672162.109    22672171.051
 02  9  9 18  4  0.0000000  0  6G21G14G30G11G25G20
  23477569.736    12491274.19749   9735103.32845  23477569.157    23477582.140
  22338525.585     2624503.61649   2053766.44646  22338524.890    22338533.204
  24445382.043    -5665269.84249  -4258193.22245  24445382.054    24445394.716
  21309479.239   -14804750.14249 -11524299.76947  21309478.875    21309485.932
  20751477.116   -19427088.37449 -15111079.83448  20751476.871    20751484.106
  22656406.042   -13340601.58849 -10374608.10746  22656405.227    22656414.019
 02  9  9 18  4 30.0000000  0  6G21G14G30G11G25G20
  23492213.464    12568225.95749   9795065.50245  23492212.869    23492225.716
  22352819.000     2699614.89449   2112294.66646  22352818.246    22352826.351
  24441231.508    -5687081.65649  -4275189.30845  24441231.408    24441244.027
  21308459.010   -14810112.13549 -11528477.95647  21308458.601    21308465.533
  20747463.398   -19448181.17849 -15127515.76448  20747463.080    20747470.332
  22640668.572   -13423303.40049 -10439050.98246  22640667.712    22640676.325
 02  9  9 18  5  0.0000000  0  6G21G14G30G11G25G20
  23506901.885    12645413.54949   9855211.48145  23506901.301    23506914.267
  22367132.836     2774834.44849   2170907.22546  22367132.187    22367140.209
  24437172.632    -5708410.57749  -4291809.13645  24437172.538    24437185.314
  21307546.954   -14814904.67049 -11532212.40347  21307546.613    21307553.600
  20743550.663   -19468742.29049 -15143537.40148  20743550.349    20743557.685
  22624950.745   -13505899.89749 -10503411.82546  22624950.003    22624958.800
 02  9  9 18  5 30.0000000  0  7G21G14G30G11G25G20G 1
  23521635.417    12722836.44249   9915540.78445  23521634.701    23521647.635
  22381466.960     2850160.93049   2229603.12346  22381466.403    22381474.425
  24433205.911    -5729255.16349  -4308051.61145  24433205.974    24433218.802
  21306743.212   -14819127.82049 -11535503.18447  21306742.969    21306749.938
  20739739.020   -19488771.91749 -15159144.89148  20739738.748    20739746.101
  22609253.286   -13588389.94949 -10567689.71846  22609252.620    22609261.637
                  -1532302.91049  -1174727.34744                  24248991.516
 02  9  9 18  6  0.0000000  0  7G21G14G30G11G25G20G 1
  23536412.676    12800493.75449   9976052.75045  23536412.232    23536425.175
  22395821.208     2925592.63649   2288381.00246  22395820.636    22395828.710
  24429331.784    -5749614.24949  -4323915.77545  24429331.616    24429344.686
  21306047.826   -14822781.93149 -11538350.55847  21306047.600    21306054.492
  20736028.657   -19508270.42449 -15174338.50448  20736028.346    20736035.565
  22593576.416   -13670772.89449 -10631884.15046  22593575.742    22593584.700
  24233451.046    -1613889.59349  -1238301.27944  24233450.501    24233469.417
 02  9  9 18  6 30.0000000  0  7G21G14G30G11G25G20G 1
  23551234.557    12878382.50749  10036745.06345  23551234.030    23551247.135
  22410194.764     3001125.42849   2347237.67846  22410194.086    22410202.305
  24425549.500    -5769489.26949  -4339402.75345  24425549.584    24425562.463
  21305460.371   -14825869.69049 -11540756.62347  21305460.136    21305466.850
  20732418.808   -19527240.08549 -15189120.05048  20732418.466    20732425.819
  22577919.978   -13753049.86249 -10695995.98746  22577919.122    22577927.826
  24217953.608    -1695332.78049  -1301763.41744  24217953.030    24217968.413
 02  9  9 18  7  0.0000000  0  7G21G14G30G11G25G20G 1
  23566100.748    12956503.90649  10097618.66145  23566100.178    23566113.519
  22424587.371     3076759.96349   2406173.59246  22424586.792    22424595.305
  24421860.086    -5788876.84949  -4354509.94945  24421860.257    24421872.996
  21304981.031   -14828389.39049 -11542720.04447  21304980.719    21304987.362
  20728909.923   -19545678.93649 -15203487.98348  20728909.654    20728917.013
  22562283.784   -13835217.53249 -10760022.65846  22562282.867    22562291.715
  24202482.736    -1776630.34348  -1365111.96244  24202480.813    24202496.373
 02  9  9 18  7 30.0000000  0  7G21G14G30G11G25G20G 1
  23581011.896    13034861.20449  10158676.07045  23581011.265    23581024.591
  22439000.024     3152498.22549   2465190.33446  22438999.433    22439008.062
  24418264.450    -5807772.00849  -4369233.40645  24418264.657    24418277.087
  21304610.345   -14830337.37849 -11544237.97947  21304610.036    21304616.857
  20725502.932   -19563583.26849 -15217439.39548  20725502.623    20725509.856
  22546669.120   -13917271.05249 -10823960.41846  22546668.317    22546677.351
  24187038.571    -1857778.52448  -1428344.12844  24187037.054    24187053.821
 02  9  9 18  8  0.0000000  0  7G21G14G30G11G25G20G 1
  23595966.947    13113450.50649  10219914.28145  23595966.422    23595979.907
  22453431.652     3228336.16849   2524284.75446  22453431.003    22453439.749
  24414762.277    -5826176.31949  -4383574.35345  24414762.352    24414774.695
  21304347.681   -14831716.95149 -11545312.97847  21304347.377    21304354.510
  20722197.043   -19580956.08949 -15230976.63548  20722196.712    20722203.907
  22531076.227   -13999211.98749 -10887810.44846  22531075.422    22531084.655
  24171624.617    -1938779.74248  -1491461.83144  24171622.563    24171640.267
 02  9  9 18  8 30.0000000  0  7G21G14G30G11G25G20G 1
  23610966.408    13192271.89849  10281333.31445  23610965.818    23610979.219
  22467882.243     3304273.37249   2583456.51146  22467881.529    22467890.345
  24411353.881    -5844087.68149  -4397531.19545  24411353.922    24411366.122
  21304193.320   -14832527.50949 -11545944.60147  21304193.074    21304200.200
  20718992.428   -19597796.15349 -15244098.75648  20718992.160    20718999.392
  22515504.937   -14081038.42049 -10951571.23846  22515504.122    22515513.637
  24156239.430    -2019633.37749  -1554464.54544  24156237.284    24156253.633
 02  9  9 18  9  0.0000000  0  7G21G14G30G11G25G20G 1
  23626009.906    13271323.94449  10342932.05645  23626009.284    23626022.529
  22482351.188     3380307.05749   2642703.47146  22482350.482    22482359.065
  24408039.274    -5861505.98949  -4411103.84445  24408039.395    24408051.492
  21304147.234   -14832770.48049 -11546133.95047  21304146.986    21304153.932
  20715888.950   -19614104.91049 -15256806.86548  20715888.709    20715895.905
  22499955.476   -14162750.02149 -11015242.52146  22499954.915    22499964.154
  24140880.833    -2100340.38148  -1617352.96344  24140879.328    24140895.280
 02  9  9 18  9 30.0000000  0  7G21G14G30G11G25G20G 1
  23641097.624    13350609.32649  10404712.64145  23641097.059    23641110.199
  22496838.800     3456439.62949   2702027.46245  22496838.193    22496846.761
  24404819.377    -5878426.58949  -4424288.68545  24404819.445    24404831.307
  21304209.977   -14832442.00749 -11545878.01947  21304209.572    21304216.480
  20712887.252   -19629878.91849 -15269098.28448  20712887.047    20712894.166
  22484429.374   -14244342.04649 -11078820.64146  22484428.604    22484437.598
  24125550.585    -2180896.93549  -1680124.19544  24125549.718    24125565.798
 02  9  9 18 10  0.0000000  0  7G21G14G30G11G25G20G 1
  23656229.185    13430124.26449  10466672.09745  23656228.374    23656241.684
  22511344.396     3532666.29549   2761424.75045  22511343.801    22511352.324
  24401693.587    -5894851.40349  -4437087.22645  24401693.718    24401705.898
  21304380.444   -14831546.41349 -11545180.16847  21304379.985    21304386.946
  20709986.752   -19645121.47349 -15280975.59348  20709986.515    20709993.667
  22468925.439   -14325816.40049 -11142307.11146  22468924.528    22468933.464
  24110249.645    -2261306.35848  -1742780.77344  24110248.873    24110264.172
 02  9  9 18 10 30.0000000  0  7G21G14G30G11G25G20G 1
  23671404.495    13509870.29349  10528811.67545  23671403.568    23671417.164
  22525867.930     3608988.01249   2820896.05845  22525867.426    22525875.949
  24398662.938    -5910777.16149  -4449496.85945  24398662.908    24398675.671
  21304658.934   -14830081.46349 -11544038.66247  21304658.582    21304665.778
  20707187.643   -19659830.86449 -15292437.45648  20707187.432    20707194.586
  22453444.308   -14407169.51849 -11205699.07646  22453443.415    22453452.318
  24094975.732    -2341566.39049  -1805321.00544  24094975.336    24094991.436
 02  9  9 18 11  0.0000000  0  7G21G14G30G11G25G20G 1
  23686623.378    13589846.54149  10591130.60245  23686622.781    23686636.356
  22540409.492     3685402.74049   2880439.93545  22540408.880    22540417.028
  24395727.323    -5926203.20549  -4461517.05745  24395727.409    24395740.475
  21305045.932   -14828047.92149 -11542454.10947  21305045.644    21305052.749
  20704489.826   -19674007.75549 -15303484.36748  20704489.640    20704496.775
  22437986.098   -14488400.71049 -11268996.04746  22437985.336    22437994.240
  24079731.552    -2421677.72248  -1867745.27444  24079731.090    24079746.018
 02  9  9 18 11 30.0000000  0  7G21G14G30G11G25G20G 1
  23701886.033    13670051.60549  10653627.79645  23701885.496    23701898.813
  22554968.027     3761909.12249   2940055.19345  22554967.550    22554975.871
  24392887.343    -5941128.76049  -4473147.32845  24392887.326    24392900.200
  21305541.212   -14825446.31149 -11540426.90847  21305540.821    21305547.811
  20701893.286   -19687652.46149 -15314116.60348  20701893.088    20701900.236
  22422551.737   -14569508.79749 -11332197.08046  22422550.901    22422559.579
  24064514.961    -2501640.25849  -1930053.54545  24064514.783    24064529.606
 02  9  9 18 12  0.0000000  0  7G21G14G30G11G25G20G 1
  23717192.111    13750485.36449  10716303.23745  23717191.559    23717204.979
  22569544.088     3838505.94349   2999740.94345  22569543.540    22569551.869
  24390142.818    -5955552.00249  -4484386.11045  24390142.885    24390155.818
  21306144.287   -14822276.79449 -11537957.16647  21306143.874    21306150.952
  20699398.189   -19700764.46049 -15324333.73948  20699398.025    20699405.152
  22407141.110   -14650492.06249 -11395300.83346  22407140.230    22407148.956
  24049326.900    -2581453.40849  -1992245.48945  24049326.499    24049341.686
 02  9  9 18 12 30.0000000  0  7G21G14G30G11G25G20G 1
  23732541.614    13831147.13649  10779156.31045  23732541.094    23732554.649
  22584136.667     3915192.48949   3059496.61445  22584136.417    22584145.064
  24387494.070    -5969471.61249  -4495232.42845  24387494.000    24387507.029
  21306855.404   -14818539.32949 -11535044.87647  21306855.091    21306862.138
  20697004.592   -19713343.42949 -15334135.53248  20697004.372    20697011.501
  22391754.426   -14731348.80049 -11458306.03146  22391753.491    22391762.590
  24034168.377    -2661116.91549  -2054320.75545  24034167.032    24034181.930
 02  9  9 18 13  0.0000000  0  7G21G14G30G11G25G20G 1
  23747933.985    13912035.92349  10842186.34445  23747933.536    23747946.953
  22598746.088     3991967.01149   3119320.82145  22598746.034    22598754.960
  24384941.040    -5982886.90149  -4505685.85745  24384940.848    24384953.929
  21307674.634   -14814235.02949 -11531690.91147  21307674.294    21307681.216
  20694712.048   -19725390.26149 -15343522.67648  20694711.809    20694719.024
  22376392.023   -14812078.00049 -11521211.83846  22376391.157    22376400.336
  24019037.526    -2740631.00449  -2116279.66445  24019035.937    24019050.818
 02  9  9 18 13 30.0000000  0  7G21G14G30G11G25G20G 1
  23763370.667    13993152.79149  10905394.04145  23763370.220    23763383.262
  22613372.842     4068829.31949   3179213.47445  22613372.578    22613381.347
  24382484.588    -5995795.43149  -4515744.38945  24382484.329    24382497.374
  21308601.939   -14809362.60749 -11527894.24647  21308601.492    21308608.452
  20692521.125   -19736903.70049 -15352494.16448  20692520.876    20692528.038
  22361054.293   -14892676.77149 -11584015.97746  22361053.585    22361062.848
  24003934.581    -2819994.08249  -2178120.90145  24003933.492    24003948.374
 02  9  9 18 14  0.0000000  0  7G21G14G30G11G25G20G 1
  23778850.113    14074497.22649  10968779.06245  23778849.626    23778863.104
  22628015.701     4145778.60249   3239173.85345  22628015.491    22628023.955
  24380124.897    -6008195.90549  -4525406.98044  24380124.800    24380136.691
  21309637.085   -14803922.26549 -11523655.04147  21309636.666    21309643.805
  20690431.609   -19747883.66849 -15361049.97748  20690431.343    20690438.604
  22345741.955   -14973143.67149 -11646717.38246  22345741.195    22345750.733
  23988860.999    -2899206.02949  -2239844.37145  23988860.048    23988874.997
 02  9  9 18 14 30.0000000  0  7G21G14G30G11G25G20G 1
  23794372.110    14156067.06749  11032339.71545  23794371.818    23794385.550
  22642674.886     4222812.68849   3299200.30346  22642674.623    22642682.976
  24377861.647    -6020088.27149  -4534673.73344  24377861.797    24377873.532
  21310779.970   -14797915.63849 -11518974.59147  21310779.674    21310786.881
  20688443.269   -19758331.75449 -15369191.34548  20688443.089    20688450.452
  22330454.814   -15053478.26249 -11709315.72446  22330454.047    22330463.588
  23973815.768    -2978267.63949  -2301450.65545  23973814.813    23973829.968
 02  9  9 18 15  0.0000000  0  7G21G14G30G11G25G20G 1
  23809937.578    14237863.43449  11096076.93945  23809937.133    23809951.054
  22657350.267     4299931.83249   3359293.02746  22657349.893    22657358.249
  24375696.000    -6031469.87749  -4543542.54445  24375696.157    24375707.527
  21312031.109   -14791341.57249 -11513851.97647  21312030.778    21312038.013
  20686556.649   -19768246.29549 -15376916.96148  20686556.485    20686563.788
  22315193.673   -15133677.39349 -11771808.46746  22315192.773    22315202.217
  23958799.607    -3057177.31049  -2362938.58045  23958798.769    23958814.038
 02  9  9 18 15 30.0000000  0  7G21G14G30G11G25G20G 1
  23825546.005    14319884.90049  11159989.52645  23825545.487    23825559.586
  22672041.556     4377133.70849   3419450.22646  22672041.102    22672049.306
  24373627.575    -6042340.89649  -4552013.52245  24373627.598    24373638.489
  21313389.944   -14784201.54049 -11508288.34947  21313389.558    21313396.792
  20684771.122   -19777628.96249 -15384228.12148  20684770.921    20684778.232
  22299958.081   -15213740.88649 -11834195.52546  22299957.221    22299966.482
  23943812.110    -3135936.09849  -2424308.91345  23943811.445    23943825.912
 02  9  9 18 16  0.0000000  0  7G21G14G30G11G25G20G 1
  23841197.321    14402130.43149  11224076.68045  23841196.643    23841210.538
  22686748.324     4454417.41249   3479671.18346  22686747.861    22686756.091
  24371656.451    -6052700.17049  -4560085.72945  24371656.494    24371666.941
  21314856.248   -14776495.88049 -11502283.97147  21314855.932    21314863.196
  20683086.950   -19786479.40249 -15391124.56548  20683086.757    20683094.088
  22284748.525   -15293666.91649 -11896475.47946  22284747.721    22284756.911
  23928853.899    -3214543.60749  -2485561.37945  23928852.938    23928867.216
 02  9  9 18 16 30.0000000  0  7G21G14G30G11G25G20G 1
  23856890.651    14484598.73949  11288337.45445  23856889.799    23856903.837
  22701470.291     4531780.83249   3539954.26246  22701469.819    22701478.064
  24369782.707    -6062547.42449  -4567758.93145  24369782.831    24369793.068
  21316429.929   -14768226.24349 -11495840.15247  21316429.683    21316436.770
  20681503.745   -19794799.07049 -15397607.42848  20681503.553    20681510.936
  22269565.159   -15373454.89149 -11958647.85546  22269564.541    22269573.739
  23913924.577    -3293000.81349  -2546696.69545  23913923.615    23913937.688
 02  9  9 18 17  0.0000000  0  7G21G14G30G11G25G20G 1
  23872626.688    14567291.96549  11352773.48145  23872626.094    23872640.250
  22716207.508     4609225.55349   3600300.67446  22716207.067    22716215.529
  24368007.021    -6071879.02449  -4575030.32845  24368006.971    24368017.425
  21318111.517   -14759390.13549 -11488954.91147  21318111.218    21318118.257
  20680022.045   -19802585.60649 -15403674.85148  20680021.869    20680029.217
  22254409.163   -15453100.64549 -12020709.43547  22254408.523    22254417.688
  23899023.855    -3371304.68348  -2607712.49545  23899022.930    23899037.367
 02  9  9 18 17 30.0000000  0  7G21G14G30G11G25G20G 1
  23888405.384    14650208.10149  11417383.19645  23888404.811    23888418.866
  22730959.837     4686748.90649   3660708.39146  22730959.345    22730967.899
  24366329.282    -6080695.25149  -4581900.06845  24366329.163    24366339.960
  21319900.449   -14749989.58549 -11481629.84347  21319900.110    21319907.184
  20678641.487   -19809840.73649 -15409328.18848  20678641.265    20678648.610
  22239280.394   -15532603.93349 -12082659.97747  22239279.717    22239288.574
  23884151.593    -3449456.32749  -2668609.75145  23884151.065    23884165.153
 02  9  9 18 18  0.0000000  0  7G21G14G30G11G25G20G 1
  23904226.151    14733346.02349  11482165.69945  23904225.718    23904239.683
  22745726.994     4764350.05249   3721176.74046  22745726.422    22745735.104
  24364749.481    -6088994.95449  -4588367.33445  24364749.386    24364760.675
  21321796.692   -14740024.69749 -11473865.02647  21321796.348    21321803.465
  20677362.023   -19816564.25449 -15414567.30848  20677361.800    20677369.185
  22224178.609   -15611963.06349 -12144498.20346  22224177.922    22224186.809
  23869309.269    -3527455.53849  -2729388.16145  23869308.203    23869322.392
 02  9  9 18 18 30.0000000  0  7G21G14G30G11G25G20G 1
  23920089.551    14816706.06949  11547121.32345  23920089.056    23920103.104
  22760508.753     4842028.72949   3781705.45846  22760508.248    22760516.984
  24363268.635    -6096776.58049  -4594430.92545  24363268.401    24363279.976
  21323800.309   -14729495.44949 -11465660.46047  21323799.991    21323807.127
  20676183.870   -19822755.85049 -15419391.93048  20676183.646    20676190.913
  22209104.758   -15691175.71749 -12206222.26546  22209104.078    22209113.131
  23854495.280    -3605301.42649  -2790047.14045  23854494.478    23854508.347
 02  9  9 18 19  0.0000000  0  7G21G14G30G11G25G20G 1
  23935995.107    14900287.70949  11612249.60145  23935994.515    23936008.588
  22775305.171     4919783.91749   3842293.79046  22775304.644    22775313.289
  24361886.126    -6104038.99449  -4600089.96445  24361885.988    24361898.132
  21325911.145   -14718402.64949 -11457016.76247  21325910.849    21325917.968
  20675106.928   -19828415.60449 -15423802.13148  20675106.672    20675113.843
  22194059.424   -15770240.14449 -12267830.85447  22194058.613    22194067.697
  23839711.079    -3682993.74449  -2850586.43545  23839710.142    23839723.272
 02  9  9 18 19 30.0000000  0  7G21G14G30G11G25G20G 1
  23951942.462    14984088.98349  11677549.00345  23951941.656    23951955.432
  22790115.637     4997612.76149   3902939.51046  22790115.091    22790123.557
  24360602.759    -6110783.12049  -4605345.11345  24360602.735    24360615.081
  21328128.894   -14706748.25149 -11447935.44747  21328128.653    21328135.766
  20674130.596   -19833545.86749 -15427799.74448  20674130.368    20674137.529
  22179041.918   -15849156.69949 -12329324.21147  22179041.120    22179050.447
  23824955.249    -3760534.10349  -2911007.35645  23824954.568    23824967.933
 02  9  9 18 20  0.0000000  0  7G21G14G30G11G25G20G 1
  23967931.626    15068111.81449  11743021.05945  23967930.856    23967944.673
  22804940.373     5075517.00649   3963644.00646  22804939.908    22804948.200
  24359418.912    -6117005.12749  -4610193.41845  24359418.885    24359431.271
  21330454.051   -14694530.23849 -11438414.96047  21330453.754    21330460.725
  20673255.533   -19838144.25349 -15431382.90948  20673255.333    20673262.489
  22164053.417   -15927920.79649 -12390698.79246  22164052.656    22164062.132
  23810228.850    -3837919.68549  -2971307.65945  23810228.243    23810242.042
 02  9  9 18 20 30.0000000  0  7G21G14G30G11G25G20G 1
  23983962.642    15152353.84549  11808663.92945  23983961.808    23983975.965
  22819779.249     5153494.24449   4024405.39346  22819778.666    22819786.872
  24358334.330    -6122705.57249  -4614635.35045  24358334.356    24358346.401
  21332885.840   -14681750.94249 -11428457.10147  21332885.551    21332892.554
  20672481.449   -19842212.37949 -15434552.88948  20672481.209    20672488.394
  22149094.065   -16006532.36149 -12451954.50547  22149093.332    22149102.891
  23795531.613    -3915151.82049  -3031488.42145  23795531.266    23795545.288
 02  9  9 18 21  0.0000000  0  7G21G14G30G11G25G20G 1
  24000035.051    15236814.38149  11874477.10545  24000034.342    24000048.470
  22834631.569     5231543.58549   4085222.97646  22834631.123    22834639.199
  24357349.123    -6127883.32649  -4618669.88745  24357349.017    24357360.929
  21335424.380   -14668410.12949 -11418061.70847  21335424.183    21335431.327
  20671808.129   -19845750.47249 -15437309.85248  20671807.935    20671815.094
  22134164.321   -16084989.39649 -12513089.80647  22134163.577    22134172.792
  23780864.430    -3992229.87349  -3091549.06645  23780863.960    23780877.677
 02  9  9 18 21 30.0000000  0  7G21G14G30G11G25G20G 1
  24016148.724    15321491.75949  11940459.17945  24016148.046    24016161.943
  22849497.185     5309662.59349   4146094.82546  22849496.812    22849504.773
  24356463.242    -6132538.82249  -4622297.56145  24356463.172    24356474.335
  21338069.590   -14654510.03549 -11407230.50347  21338069.372    21338076.555
  20671235.507   -19848760.10349 -15439655.02248  20671235.232    20671242.353
  22119263.890   -16163291.51149 -12574104.37647  22119263.143    22119272.255
  23766226.008    -4069155.03049  -3151490.61745  23766225.565    23766239.071
 02  9  9 18 22  0.0000000  0  7G21G14G30G11G25G20G 1
  24032304.064    15406387.30049  12006611.25045  24032303.512    24032317.487
  22864376.548     5387852.71049   4207022.07646  22864375.982    22864383.835
  24355677.098    -6136669.09649  -4625515.91145  24355676.906    24355688.127
  21340821.474   -14640049.22049 -11395962.37847  21340821.187    21340828.293
  20670763.626   -19851239.95149 -15441587.38648  20670763.328    20670770.508
  22104393.807   -16241434.95749 -12634995.33647  22104393.107    22104401.999
  23751616.745    -4145924.98549  -3211311.21345  23751616.249    23751629.836
 02  9  9 18 22 30.0000000  0  7G21G14G30G11G25G20G 1
  24048500.619    15491499.38649  12072932.04545  24048500.029    24048514.131
  22879268.740     5466111.70249   4268002.98546  22879268.192    22879276.106
  24354990.946    -6140274.35149  -4628325.21244  24354990.581    24355001.110
  21343679.563   -14625029.60249 -11384258.82447  21343679.298    21343686.401
  20670392.360   -19853190.76949 -15443107.51448  20670392.095    20670399.373
  22089553.996   -16319419.02549 -12695762.09647  22089553.261    22089562.008
  23737037.282    -4222540.75849  -3271011.65645  23737036.602    23737050.044
 02  9  9 18 23  0.0000000  0  7G21G14G30G11G25G20G 1
  24064738.177    15576827.03549  12139420.84445  24064737.599    24064751.623
  22894173.469     5544438.28749   4329036.57746  22894173.193    22894181.256
  24354404.785    -6143354.00649  -4630724.94145  24354404.565    24354414.896
  21346643.925   -14609452.01749 -11372120.49147  21346643.676    21346650.939
  20670121.570   -19854613.64849 -15444216.25848  20670121.323    20670128.590
  22074744.701   -16397242.17249 -12756403.46147  22074743.993    22074752.673
  23722487.189    -4299002.39849  -3330591.98145  23722486.315    23722499.886
 02  9  9 18 23 30.0000000  0  7G21G14G30G11G25G20G 1
  24081016.965    15662371.77349  12206078.73845  24081016.369    24081030.666
  22909091.647     5622833.59449   4390123.70046  22909091.316    22909099.593
  24353919.237    -6145905.58749  -4632713.15045  24353919.303    24353929.299
  21349714.660   -14593315.34249 -11359546.50747  21349714.390    21349721.896
  20669951.464   -19855507.33749 -15444912.64248  20669951.241    20669958.537
  22059966.598   -16474901.13149 -12816916.89447  22059965.953    22059974.594
  23707966.586    -4375307.88249  -3390050.64945  23707965.559    23707979.551
 02  9  9 18 24  0.0000000  0  7G21G14G30G11G25G20G 1
  24097336.921    15748131.55749  12272904.26345  24097336.122    24097350.622
  22924022.531     5701295.59649   4451262.82146  22924022.259    22924030.630
  24353534.314    -6147929.11849  -4634289.93645  24353534.399    24353544.568
  21352891.387   -14576621.24649 -11346538.16947  21352891.121    21352898.766
  20669881.895   -19855873.04749 -15445197.62348  20669881.689    20669889.024
  22045219.990   -16552395.08349 -12877301.73147  22045219.302    22045227.884
  23693474.335    -4451458.08149  -3449388.33245  23693474.219    23693488.853
 02  9  9 18 24 30.0000000  0  7G21G14G30G11G25G20G 1
  24113697.152    15834103.84449  12339895.34045  24113696.433    24113711.136
  22938965.564     5779821.65049   4512451.86745  22938965.175    22938973.831
  24353249.634    -6149425.57149  -4635456.01445  24353249.586    24353260.057
  21356173.820   -14559372.31949 -11333097.51347  21356173.568    21356181.095
  20669912.453   -19855712.97849 -15445072.89648  20669912.217    20669919.517
  22030504.587   -16629723.77649 -12937557.82147  22030503.920    22030512.774
  23679012.811    -4527454.50449  -3508606.11645  23679012.611    23679026.704
 02  9  9 18 25  0.0000000  0  7G21G14G30G11G25G20G 1
  24130098.044    15920289.73449  12407052.84645  24130097.172    24130111.750
  22953920.875     5858412.51849   4573691.41445  22953920.501    22953929.138
  24353065.541    -6150392.52849  -4636209.46645  24353065.653    24353076.314
  21359562.170   -14541567.55449 -11319223.72647  21359561.793    21359569.205
  20670043.135   -19855026.23749 -15444537.76448  20670042.867    20670050.166
  22015821.593   -16706883.76049 -12997682.45847  22015820.864    22015829.835
  23664581.254    -4603295.09449  -3567702.51045  23664580.771    23664594.406
 02  9  9 18 25 30.0000000  0  7G21G14G30G11G25G20G 1
  24146539.010    16006687.54249  12474375.50045  24146538.340    24146552.918
  22968888.373     5937066.21049   4634979.84646  22968887.909    22968896.589
  24352982.370    -6150830.22449  -4636550.51245  24352982.361    24352993.183
  21363055.676   -14523208.74249 -11304918.20847  21363055.364    21363062.903
  20670273.695   -19853814.07449 -15443593.22048  20670273.478    20670280.806
  22001170.818   -16783874.34449 -13057675.06347  22001170.027    22001179.070
  23650178.875    -4678980.87549  -3626678.28045  23650178.283    23650191.810
 02  9  9 18 26  0.0000000  0  7G21G14G30G11G25G20G 1
  24163020.252    16093297.70249  12541863.64445  24163019.560    24163034.688
  22983867.890     6015783.17149   4696317.60746  22983867.429    22983876.164
  24353000.005    -6150736.80249  -4636477.74245  24353000.120    24353010.860
  21366654.725   -14504295.57049 -11290180.72047  21366654.413    21366661.998
  20670604.453   -19852076.02149 -15442238.89048  20670604.228    20670611.585
  21986552.604   -16860692.76749 -13117533.51447  21986551.817    21986560.819
  23635805.895    -4754510.45349  -3685532.34945  23635805.244    23635818.913
 02  9  9 18 26 30.0000000  0  7G21G14G30G11G25G20G 1
  24179541.950    16180119.37949  12609516.62045  24179541.372    24179556.507
  22998859.063     6094562.09649   4757703.67746  22998858.601    22998867.528
  24353118.765    -6150112.00349  -4635990.90345  24353118.976    24353130.011
  21370359.147   -14484829.06049 -11275012.07147  21370358.868    21370366.337
  20671035.206   -19849812.52549 -15440475.12948  20671034.940    20671042.278
  21971967.466   -16937337.53849 -13177256.67547  21971966.844    21971975.652
  23621462.063    -4829884.20749  -3744264.98745  23621461.743    23621475.458
 02  9  9 18 27  0.0000000  0  7G21G14G30G11G25G20G 1
  24196104.082    16267152.07249  12677333.95245  24196103.555    24196118.336
  23013861.906     6173402.33849   4819137.55846  23013861.485    23013870.648
  24353339.005    -6148954.92649  -4635089.29645  24353339.224    24353350.425
  21374168.888   -14464810.17049 -11259412.99247  21374168.461    21374175.733
  20671565.644   -19847024.54249 -15438302.67648  20671565.423    20671572.783
  21957415.957   -17013806.58749 -13236842.89547  21957415.338    21957424.002
  23607148.546    -4905101.58949  -3802875.78445  23607148.341    23607161.884
 02  9  9 18 27 30.0000000  0  7G21G14G30G11G25G20G 1
  24212705.912    16354392.97749  12745313.54345  24212705.303    24212719.692
  23028875.941     6252301.28049   4880617.14846  23028875.411    23028884.755
  24353660.250    -6147266.54049  -4633773.68645  24353660.491    24353671.935
  21378082.886   -14444241.48849 -11243385.50247  21378082.512    21378089.685
  20672195.572   -19843714.35849 -15435723.31548  20672195.367    20672202.721
  21942897.815   -17090099.83149 -13296292.12347  21942897.258    21942905.792
  23592864.893    -4980164.07749  -3861365.88445  23592864.640    23592877.826
 02  9  9 18 28  0.0000000  0  7G21G14G30G11G25G20G 1
  24229347.164    16441843.39649  12813456.40845  24229346.642    24229361.331
  23043901.310     6331260.27349   4942143.56245  23043900.809    23043910.331
  24354083.409    -6145044.04149  -4632041.86845  24354083.649    24354094.797
  21382101.770   -14423121.36549 -11226928.31147  21382101.529    21382108.815
  20672925.177   -19839880.05849 -15432735.55948  20672925.002    20672932.388
  21928414.021   -17166213.27049 -13355601.25147  21928413.385    21928421.645
  23578611.100    -5055069.32449  -3919733.44145  23578610.738    23578623.639
 02  9  9 18 28 30.0000000  0  7G21G14G30G11G25G20G 1
  24246028.050    16529500.32549  12881760.18745  24246027.563    24246042.466
  23058937.394     6410275.92549   5003714.06145  23058937.040    23058946.771
  24354607.572    -6142289.40549  -4629895.41645  24354607.696    24354618.939
  21386225.218   -14401453.54349 -11210044.34747  21386224.934    21386232.228
  20673754.032   -19835524.68549 -15429341.76648  20673753.858    20673761.187
  21913964.023   -17242147.70149 -13414770.88647  21913963.399    21913971.659
  23564385.866    -5129819.73449  -3977980.39145  23564385.705    23564398.901
 02  9  9 18 29  0.0000000  0  7G21G14G30G11G25G20G 1
  24262748.397    16617366.15749  12950226.76845  24262747.960    24262763.317
  23073984.899     6489350.55249   5065330.55545  23073984.513    23073994.430
  24355233.443    -6138999.16749  -4627331.54045  24355233.633    24355244.916
  21390453.134   -14379236.09049 -11192732.09247  21390452.827    21390460.246
  20674682.503   -19830646.05449 -15425540.23848  20674682.315    20674689.544
  21899549.362   -17317898.06049 -13473797.09447  21899548.678    21899556.785
  23550191.781    -5204412.30549  -4036104.27445  23550191.302    23550203.970
 02  9  9 18 29 30.0000000  0  7G21G14G30G11G25G20G 1
  24279508.251    16705438.57849  13018854.26445  24279507.894    24279523.504
  23089043.255     6568481.82449   5126991.18746  23089042.808    23089052.902
  24355961.252    -6135173.98249  -4624350.84945  24355961.360    24355972.625
  21394785.185   -14356471.15949 -11174993.24547  21394784.928    21394792.296
  20675710.094   -19825246.28049 -15421332.63348  20675709.884    20675717.110
  21885169.658   -17393463.99349 -13532679.57447  21885168.973    21885177.058
  23536026.726    -5278848.10349  -4094106.08345  23536026.119    23536038.894
 02  9  9 18 30  0.0000000  0  7G21G14G30G11G25G20G 1
  24296307.657    16793716.75349  13087642.14745  24296306.866    24296322.478
  23104111.853     6647668.57849   5188695.04946  23104111.497    23104121.806
  24356790.748    -6130813.66949  -4620953.18345  24356790.664    24356802.276
  21399221.280   -14333159.87649 -11156828.66447  21399221.048    21399228.396
  20676836.647   -19819326.16849 -15416719.56748  20676836.434    20676843.665
  21870825.244   -17468844.09149 -13591417.27647  21870824.494    21870832.862
  23521891.637    -5353127.36249  -4151985.89445  23521891.204    23521903.915
 02  9  9 18 30 30.0000000  0  7G21G14G30G11G25G20G 1
  24313145.416    16882199.48149  13156589.36245  24313144.621    24313160.514
  23119190.926     6726909.74249   5250441.31145  23119190.637    23119200.814
  24357722.272    -6125918.00749  -4617138.32145  24357722.191    24357733.732
  21403760.818   -14309303.57249 -11138239.40247  21403760.685    21403768.161
  20678062.160   -19812886.42549 -15411701.58448  20678061.916    20678069.099
  21856516.250   -17544036.59549 -13650008.79747  21856515.609    21856524.180
  23507786.480    -5427249.95449  -4209743.61745  23507786.028    23507798.401
 02  9  9 18 31  0.0000000  0  6G14G30G11G25G20G 1
  23134281.067     6806207.69949   5312231.77945  23134280.670    23134290.683
  24358756.169    -6120483.50849  -4612903.56545  24358756.164    24358767.624
  21408404.544   -14284900.77249 -11119224.29647  21408404.430    21408411.906
  20679386.806   -19805925.26249 -15406277.30848  20679386.559    20679393.756
  21842244.159   -17619036.82049 -13708450.47947  21842243.490    21842251.920
  23493711.429    -5501212.74449  -4267376.82745  23493711.112    23493723.566
 02  9  9 18 31 30.0000000  0  6G14G30G11G25G20G 1
  23149380.914     6885557.38449   5374062.56345  23149380.368    23149390.166
  24359892.097    -6114513.92449  -4608251.90345  24359892.297    24359903.677
  21413151.438   -14259956.32249 -11099787.12347  21413151.214    21413158.805
  20680809.761   -19798447.25849 -15400450.30548  20680809.534    20680816.815
  21828008.114   -17693846.93949 -13766744.01447  21828007.505    21828015.902
  23479666.970    -5575019.87649  -4324888.70945  23479666.404    23479678.959
 02  9  9 18 32  0.0000000  0  6G14G30G11G25G20G 1
  23164490.654     6964959.15549   5435933.93645  23164490.177    23164499.889
  24361130.215    -6108007.84149  -4603182.22845  24361130.490    24361141.659
  21418001.399   -14234470.11349 -11079927.80747  21418001.076    21418008.861
  20682331.162   -19790452.16949 -15394220.37348  20682330.920    20682338.267
  21813808.955   -17768464.06049 -13824887.18847  21813808.374    21813816.764
  23465651.693    -5648670.35549  -4382278.55145  23465651.178    23465663.754
 02  9  9 18 32 30.0000000  0  6G14G30G11G25G20G 1
  23179610.173     7044411.82849   5497844.95246  23179609.620    23179619.326
  24362470.599    -6100964.93249  -4597694.24145  24362470.763    24362481.974
  21422954.021   -14208443.70749 -11059647.57047  21422953.747    21422961.540
  20683950.671   -19781941.19949 -15387588.44948  20683950.489    20683957.855
  21799646.857   -17842886.51349 -13882878.65247  21799646.199    21799654.779
  23451666.273    -5722163.93949  -4439546.14345  23451665.640    23451677.981
 02  9  9 18 33  0.0000000  0  6G14G30G11G25G20G 1
  23194739.285     7123914.87749   5559795.27846  23194738.765    23194748.279
  24363912.906    -6093384.78949  -4591787.63045  24363913.095    24363924.482
  21428009.353   -14181878.15449 -11038947.20147  21428009.028    21428016.660
  20685668.346   -19772914.72749 -15380554.83448  20685668.160    20685675.582
  21785522.109   -17917112.26849 -13940716.86747  21785521.478    21785530.210
  23437710.950    -5795500.52049  -4496691.39545  23437710.171    23437722.415
 02  9  9 18 33 30.0000000  0  6G14G30G11G25G20G 1
  23209877.828     7203468.28549   5621784.83645  23209877.376    23209886.970
  24365457.769    -6085266.10549  -4585461.32245  24365457.815    24365469.621
  21433167.168   -14154773.34749 -11017826.64947  21433166.957    21433174.590
  20687484.032   -19763372.96549 -15373119.70048  20687483.843    20687491.339
  21771435.324   -17991138.62849 -13998399.69947  21771434.709    21771443.486
  23423785.437    -5868679.06949  -4553713.49345  23423784.622    23423796.815
 02  9  9 18 34  0.0000000  0  6G14G30G11G25G20G 1
  23225025.882     7283072.38149   5683813.89245  23225025.520    23225035.292
  24367105.246    -6076607.54249  -4578714.37345  24367105.484    24367117.535
  21438427.779   -14127129.47549 -10996286.04347  21438427.545    21438435.207
  20689397.912   -19753315.50049 -15365282.73348  20689397.748    20689405.272
  21757387.024   -18064962.73349 -14055924.92647  21757386.395    21757395.171
  23409890.291    -5941698.64149  -4610611.74645  23409889.490    23409901.684
 02  9  9 18 34 30.0000000  0  6G14G30G11G25G20G 1
  23240182.890     7362722.65049   5745878.90345  23240182.426    23240192.530
  24368855.032    -6067412.63149  -4571549.56345  24368855.163    24368867.271
  21443789.995   -14098951.98549 -10974329.62347  21443789.633    21443797.382
  20691409.004   -19742747.24649 -15357047.73148  20691408.836    20691416.308
  21743376.944   -18138586.48549 -14113294.04747  21743376.244    21743384.878
  23396025.096    -6014562.79949  -4667388.85845  23396024.039    23396036.098
 02  9  9 18 35  0.0000000  0  6G14G30G11G25G20G 1
  23255349.047     7442422.20949   5807982.34345  23255348.746    23255359.154
  24370707.292    -6057677.12849  -4563963.39745  24370707.610    24370719.987
  21449254.066   -14070238.01349 -10951955.17647  21449253.780    21449261.406
  20693517.990   -19731664.64949 -15348411.94848  20693517.826    20693525.206
  21729406.094   -18212004.16649 -14170502.59547  21729405.396    21729413.796
  23382189.431    -6087267.54649  -4724041.81745  23382188.589    23382200.751
 02  9  9 18 35 30.0000000  0  6G14G30G11G25G20G 1
  23270524.822     7522169.38849   5870122.88746  23270524.411    23270534.856
  24372662.770    -6047401.53449  -4555956.47845  24372663.146    24372675.428
  21454819.917   -14040989.63749 -10929164.30747  21454819.617    21454827.133
  20695724.484   -19720069.61749 -15339376.87448  20695724.318    20695731.692
  21715474.533   -18285214.48449 -14227549.54547  21715473.880    21715482.245
  23368384.333    -6159813.50249  -4780570.99545  23368383.454    23368395.436
 02  9  9 18 36  0.0000000  0  6G14G30G11G25G20G 1
  23285709.161     7601962.44149   5932299.15245  23285708.639    23285719.038
  24374720.731    -6036587.08149  -4547529.58945  24374721.081    24374733.426
  21460486.913   -14011209.32549 -10905958.94547  21460486.654    21460494.277
  20698028.022   -19707964.39849 -15329944.25248  20698027.893    20698035.245
  21701582.693   -18358216.76949 -14284434.40547  21701582.087    21701590.414
  23354609.304    -6232202.02049  -4836977.46345  23354608.382    23354620.145
 02  9  9 18 36 30.0000000  0  6G14G30G11G25G20G 1
  23300902.186     7681800.95249   5994510.86646  23300901.671    23300912.032
  24376881.522    -6025233.11749  -4538682.34745  24376881.816    24376893.949
  21466255.125   -13980897.96549 -10882339.76947  21466254.821    21466262.460
  20700428.591   -19695349.49849 -15320114.46248  20700428.452    20700435.768
  21687730.926   -18431008.82749 -14341155.45747  21687730.247    21687738.496
  23340863.757    -6304432.36149  -4893260.72645  23340863.047    23340875.126
 02  9  9 18 37  0.0000000  0  6G14G30G11G25G20G 1
  23316103.578     7761683.81349   6056757.11246  23316103.087    23316113.475
  24379144.646    -6013339.75849  -4529414.82745  24379145.039    24379157.164
  21472124.084   -13950057.20749 -10858308.08047  21472123.728    21472131.256
  20702925.856   -19682226.30449 -15309888.60248  20702925.733    20702933.036
  21673919.251   -18503589.04249 -14397711.43047  21673918.579    21673926.917
  23327148.627    -6376504.94549  -4949421.03645  23327147.972    23327160.377
 02  9  9 18 37 30.0000000  0  6G14G30G11G25G20G 1
  23331313.406     7841611.12849   6119037.99246  23331312.918    23331323.249
  24381510.763    -6000905.92049  -4519726.09545  24381511.012    24381523.191
  21478093.552   -13918687.50149 -10833864.22447  21478093.265    21478100.788
  20705519.925   -19668594.91949 -15299266.75248  20705519.747    20705527.060
  21660148.380   -18575954.79049 -14454100.28547  21660147.732    21660156.004
  23313463.587    -6448418.83549  -5005457.70145  23313463.096    23313475.556
 02  9  9 18 38  0.0000000  0  6G14G30G11G25G20G 1
  23346531.597     7921582.42649   6181353.15446  23346531.063    23346541.173
  24383979.693    -5987931.33749  -4509616.01245  24383979.892    24383991.884
  21484163.427   -13886790.04049 -10809009.12547  21484163.183    21484170.797
  20708210.529   -19654456.00849 -15288249.42748  20708210.304    20708217.652
  21646418.929   -18648103.51349 -14510320.03447  21646418.267    21646426.539
  23299808.867    -6520173.66849  -5061370.41945  23299808.370    23299820.841
 02  9  9 18 38 30.0000000  0  6G14G30G11G25G20G 1
  23361757.782     8001596.61549   6243701.73345  23361757.271    23361767.412
  24386551.099    -5974416.22749  -4499084.73845  24386551.391    24386563.370
  21490333.421   -13854366.48249 -10783744.08547  21490333.222    21490340.833
  20710997.349   -19639811.04649 -15276837.78248  20710997.095    20711004.453
  21632730.932   -18720034.06649 -14566369.77647  21632730.332    21632738.673
  23286183.880    -6591769.82249  -5117159.54045  23286183.730    23286196.608
 02  9  9 18 39  0.0000000  0  6G14G30G11G25G20G 1
  23376991.813     8081651.86349   6306082.34945  23376991.316    23377001.560
  24389225.668    -5960361.49149  -4488133.02345  24389226.090    24389237.760
  21496603.185   -13821419.10649 -10758070.87147  21496602.961    21496610.499
  20713880.191   -19624661.83649 -15265033.20048  20713879.959    20713887.289
  21619084.694   -18791745.46849 -14622248.76547  21619084.050    21619092.473
  23272589.538    -6663208.20849  -5172825.64445  23272589.212    23272602.097
 02  9  9 18 39 30.0000000  0  6G14G30G11G25G20G 1
  23392233.937     8161749.59649   6368496.03345  23392233.513    23392243.843
  24392003.291    -5945765.32949  -4476759.39145  24392003.538    24392015.070
  21502972.778   -13787947.87349 -10731989.46447  21502972.482    21502979.970
  20716859.162   -19609007.45649 -15252834.98148  20716858.887    20716866.236
  21605480.799   -18863233.80249 -14677953.94047  21605480.208    21605488.671
  23259025.342    -6734486.72949  -5228367.23945  23259025.183    23259038.297
 02  9  9 18 40  0.0000000  0  6G14G30G11G25G20G 1
  23407483.569     8241886.34849   6430940.13945  23407483.077    23407493.468
  24394883.631    -5930630.27449  -4464965.87445  24394883.843    24394894.871
  21509441.063   -13753956.78449 -10705502.96147  21509440.764    21509448.505
  20719933.358   -19592851.69749 -15240246.09848  20719933.129    20719940.592
  21591919.291   -18934499.79049 -14733485.83547  21591918.666    21591927.203
  23245491.472    -6805608.26249  -5283786.49345  23245491.132    23245504.344
 02  9  9 18 40 30.0000000  0  6G14G30G11G25G20G 1
  23422740.608     8322063.38049   6493415.61645  23422740.174    23422750.777
  24397866.623    -5914954.58049  -4452751.06045  24397866.638    24397878.154
  21516008.437   -13719445.15549 -10678610.85547  21516008.157    21516016.014
  20723103.142   -19576194.02149 -15227266.10448  20723102.974    20723110.486
  21578400.752   -19005539.70949 -14788841.58147  21578400.174    21578408.570
  23231987.539    -6876570.63049  -5339081.73345  23231987.350    23232000.454
 02  9  9 18 41  0.0000000  0  6G14G30G11G25G20G 1
  23438005.133     8402279.18849   6555921.30345  23438004.766    23438015.463
  24400952.703    -5898738.71949  -4440115.37845  24400952.561    24400964.168
  21522674.492   -13684415.45249 -10651315.05947  21522674.153    21522681.910
  20726368.258   -19559036.19949 -15213896.37548  20726368.064    20726375.493
  21564925.661   -19076352.23849 -14844020.11947  21564924.963    21564933.294
  23218514.184    -6947374.56249  -5394253.49245  23218513.748    23218526.834
 02  9  9 18 41 30.0000000  0  6G14G30G11G25G20G 1
  23453277.815     8482534.85349   6618458.02945  23453277.224    23453287.675
  24404141.631    -5881981.26549  -4427057.66845  24404141.396    24404153.395
  21529439.063   -13648867.47949 -10623615.42547  21529438.710    21529446.440
  20729728.644   -19541377.23749 -15200136.15548  20729728.458    20729735.832
  21551494.407   -19146933.76649 -14899018.68247  21551493.731    21551502.006
  23205070.657    -7018018.41749  -5449300.55345  23205070.304    23205083.586
 02  9  9 18 42  0.0000000  0  6G14G30G11G25G20G 1
  23468556.746     8562825.79349   6681022.24945  23468556.187    23468566.541
  24407432.673    -5864686.09749  -4413580.93545  24407432.546    24407445.019
  21536301.242   -13612806.52549 -10595516.05947  21536300.939    21536308.782
  20733183.348   -19523222.41549 -15185989.55548  20733183.216    20733190.614
  21538106.850   -19217286.07249 -14953838.62447  21538106.179    21538114.478
  23191657.217    -7088505.89349  -5504225.74946  23191656.920    23191670.142
 02  9  9 18 42 30.0000000  0  6G14G30G11G25G20G 1
  23483842.834     8643155.86549   6743616.96945  23483842.255    23483852.970
  24410826.998    -5846848.78349  -4399681.77345  24410827.145    24410839.311
  21543261.578   -13576229.66349 -10567014.66847  21543261.271    21543269.432
  20736733.147   -19504568.40349 -15171453.97648  20736732.998    20736740.402
  21524764.192   -19287402.97649 -15008475.12847  21524763.436    21524771.783
  23178274.189    -7158832.42749  -5559025.52145  23178273.906    23178287.183
 02  9  9 18 43  0.0000000  0  6G14G30G11G25G20G 1
  23499136.303     8723522.58249   6806240.23645  23499135.696    23499146.395
  24414324.377    -5828471.48549  -4385361.78445  24414324.435    24414336.625
  21550319.161   -13539140.71149 -10538114.26547  21550319.014    21550327.213
  20740377.354   -19485418.38949 -15156531.89648  20740377.126    20740384.538
  21511466.263   -19357284.30049 -15062928.05947  21511465.492    21511473.883
  23164921.761    -7229000.09149  -5613701.46946  23164921.428    23164934.599
 02  9  9 18 43 30.0000000  0  6G14G30G11G25G20G 1
  23514436.537     8803924.68149   6868891.06446  23514436.044    23514446.578
  24417923.949    -5809554.80649  -4370621.55945  24417924.024    24417936.594
  21557474.239   -13501541.46249 -10508816.24547  21557473.991    21557481.888
  20744115.517   -19465773.87349 -15141224.49248  20744115.338    20744122.744
  21498213.280   -19426928.53749 -15117196.24847  21498212.477    21498220.948
  23151599.578    -7299009.21049  -5668253.91145  23151599.013    23151612.023
 02  9  9 18 44  0.0000000  0  6G14G30G11G25G20G 1
  23529743.555     8884362.87149   6931570.05146  23529743.098    23529753.658
  24421626.107    -5790097.59449  -4355460.14245  24421626.291    24421639.357
  21564726.386   -13463432.12649 -10479120.75747  21564726.111    21564734.067
  20747947.900   -19445634.85149 -15125531.75748  20747947.725    20747955.029
  21485005.978   -19496332.56349 -15171277.27047  21485005.251    21485013.727
  23138307.187    -7368858.56649  -5722681.84846  23138307.053    23138319.940
 02  9  9 18 44 30.0000000  0  6G14G30G11G25G20G 1
  23545057.059     8964834.78349   6994275.27246  23545056.626    23545067.262
  24425430.870    -5770101.84249  -4339879.03545  24425430.596    24425444.780
  21572074.807   -13424815.74149 -10449030.13047  21572074.593    21572082.922
  20751873.835   -19425004.16349 -15109455.90448  20751873.647    20751880.894
  21471844.624   -19565495.93049 -15225170.76147  21471843.852    21471852.337
  23125045.466    -7438549.86849  -5776986.66946  23125045.174    23125058.001
 02  9  9 18 45  0.0000000  0  6G14G30G11G25G20G 1
  23560377.031     9045341.11649   7057007.33245  23560376.670    23560387.096
  24429338.662    -5749566.19049  -4323877.24044  24429338.608    24429351.982
  21579519.703   -13385693.01949 -10418544.99147  21579519.499    21579527.808
  20755893.301   -19403881.52849 -15092996.73148  20755893.144    20755900.419
  21458729.647   -19634415.21349 -15278874.07547  21458728.921    21458737.399
  23111814.103    -7508081.51449  -5831167.03046  23111813.844    23111826.322
 02  9  9 18 45 30.0000000  0  6G14G30G11G25G20G 1
  23575703.139     9125878.20449   7119763.35045  23575702.571    23575712.883
  24433349.232    -5728493.84649  -4307457.23344  24433349.057    24433361.413
  21587060.152   -13346068.80349 -10387669.07447  21587059.909    21587067.979
  20760005.569   -19382271.06449 -15076157.43248  20760005.407    20760012.759
  21445660.970   -19703091.64649 -15332388.13447  21445660.288    21445668.619
  23098612.588    -7577456.46349  -5885225.31546  23098612.165    23098624.456
 02  9  9 18 46  0.0000000  0  6G14G30G11G25G20G 1
  23591035.742     9206450.17349   7182546.53545  23591035.086    23591045.238
  24437461.622    -5706880.86649  -4290616.05044  24437461.157    24437474.377
  21594696.434   -13305940.45149 -10356400.31647  21594696.143    21594704.237
  20764211.251   -19360170.07049 -15058935.89248  20764211.076    20764218.442
  21432639.733   -19771518.71949 -15385707.87847  21432639.073    21432647.268
  23085441.374    -7646670.23749  -5939158.01746  23085441.141    23085453.474
 02  9  9 18 46 30.0000000  0  6G14G30G11G25G20G 1
  23606374.071     9287053.86549   7245354.42345  23606373.656    23606383.513
  24441677.410    -5684730.00658  -4273355.67544  24441677.295    24441689.001
  21602427.873   -13265311.70149 -10324741.65847  21602427.660    21602435.706
  20768509.490   -19337582.40849 -15041335.13148  20768509.380    20768516.688
  21419665.878   -19839697.02249 -15438833.79947  21419665.175    21419673.259
  23072300.946    -7715725.47449  -5992967.18946  23072300.519    23072312.636
 02  9  9 18 47  0.0000000  0  6G14G30G11G25G20G 1
  23621719.157     9367689.95549   7308187.59445  23621718.594    23621728.225
  24445994.455    -5662040.89849  -4255676.13244  24445994.968    24446006.836
  21610254.301   -13224183.26149 -10292693.62247  21610254.083    21610262.112
  20772900.659   -19314507.12149 -15023354.40548  20772900.520    20772907.778
  21406739.902   -19907622.94749 -15491763.06147  21406739.253    21406747.345
  23059190.255    -7784620.47649  -6046651.51846  23059190.035    23059202.193
 02  9  9 18 47 30.0000000  0  5G14G11G25G20G 1
  23637069.531     9448355.48149   7371043.70645  23637068.897    23637078.614
  21618175.112   -13182558.82249 -10260259.08947  21618175.058    21618183.120
  20777383.796   -19290948.44349 -15004997.01748  20777383.617    20777390.874
  21393861.813   -19975297.04849 -15544496.09347  21393861.158    21393869.350
  23046110.250    -7853357.99149  -6100213.09246  23046109.860    23046121.840
 02  9  9 18 48  0.0000000  0  5G14G11G25G20G 1
  23652425.620     9529051.74849   7433923.81345  23652424.987    23652434.644
  21626190.882   -13140438.62849 -10227438.25947  21626190.619    21626198.438
  20781959.020   -19266905.59849 -14986262.36348  20781958.819    20781966.124
  21381032.565   -20042715.20949 -15597029.69547  21381031.939    21381040.063
  23033060.209    -7921935.95349  -6153650.35246  23033059.605    23033071.870
 02  9  9 18 48 30.0000000  0  5G14G11G25G20G 1
  23667787.267     9609778.59949   7496827.70245  23667786.832    23667796.627
  21634300.260   -13097823.78749 -10194231.98647  21634299.926    21634307.828
  20786626.153   -19242379.57549 -14967151.20248  20786625.988    20786633.354
  21368252.553   -20109875.17349 -15649362.09447  21368251.917    21368259.920
  23020040.479    -7990353.94249  -6206962.97546  23020039.898    23020052.284
 02  9  9 18 49  0.0000000  0  5G14G11G25G20G 1
  23683155.172     9690536.70449   7559755.92945  23683154.654    23683164.787
  21642503.346   -13054714.92949 -10160640.76747  21642503.207    21642511.308
  20791385.203   -19217370.56849 -14947663.68448  20791385.034    20791392.432
  21355522.217   -20176773.75449 -15701490.83747  21355521.480    21355529.527
  23007051.517    -8058610.67049  -6260149.92946  23007050.950    23007063.108
 02  9  9 18 49 30.0000000  0  5G14G11G25G20G 1
  23698528.346     9771323.59549   7622706.63145  23698527.881    23698538.191
  21650800.227   -13011116.16249 -10126667.80047  21650799.952    21650808.038
  20796235.499   -19191882.20749 -14927802.63648  20796235.326    20796242.756
  21342841.500   -20243410.84549 -15753415.83147  21342840.809    21342848.921
  22994092.970    -8126708.00349  -6313212.67946  22994092.361    22994104.545
 02  9  9 18 50  0.0000000  0  5G14G11G25G20G 1
  23713906.587     9852137.59949   7685678.45245  23713906.164    23713916.725
  21659189.630   -12967030.20349 -10092315.21947  21659189.335    21659197.311
  20801176.566   -19165916.76849 -14907569.84248  20801176.365    20801183.840
  21330210.818   -20309785.30249 -15805136.16647  21330210.133    21330218.180
  22981164.677    -8194647.07549  -6366152.12546  22981164.100    22981176.170
 02  9  9 18 50 30.0000000  0  5G14G11G25G20G 1
  23729290.108     9932979.72649   7748672.17345  23729289.755    23729300.551
  21667671.446   -12922457.22149 -10057583.13347  21667671.263    21667679.220
  20806208.548   -19139473.58149 -14886964.77748  20806208.412    20806215.890
  21317630.787   -20375893.71049 -15856649.15947  21317630.112    21317638.177
  22968266.944    -8262426.22049  -6418966.92246  22968266.270    22968278.187
 02  9  9 18 51  0.0000000  0  5G14G11G25G20G 1
  23744679.239    10013849.72149   7811687.60345  23744678.841    23744689.626
  21676245.554   -12877399.01749 -10022472.95647  21676245.487    21676253.642
  20811331.255   -19112554.12749 -14865988.59948  20811331.035    20811338.518
  21305101.764   -20441734.01549 -15907953.28047  21305101.066    21305109.189
  22955398.985    -8330045.39749  -6471657.10446  22955398.479    22955410.572
 02  9  9 18 51 30.0000000  0  5G14G11G25G20G 1
  23760073.587    10094746.35249   7874723.78645  23760073.063    23760083.724
  21684911.870   -12831858.11449  -9986986.64347  21684911.728    21684919.977
  20816544.040   -19085160.56749 -14844642.99248  20816543.867    20816551.342
  21292624.127   -20507304.38049 -15959047.03547  21292623.394    21292631.616
  22942561.517    -8397505.27449  -6524223.13846  22942561.155    22942573.049
 02  9  9 18 52  0.0000000  0  5G14G11G25G20G 1
  23775472.552    10175666.75949   7937778.53845  23775472.022    23775482.627
  21693669.418   -12785838.30549  -9951127.17947  21693669.135    21693677.364
  20821846.428   -19057296.39249 -14822930.66148  20821846.266    20821853.702
  21280197.881   -20572605.20949 -16009930.75747  21280197.166    21280205.374
  22929754.468    -8464807.90949  -6576666.64946  22929753.922    22929765.622
 02  9  9 18 52 30.0000000  0  5G14G11G25G20G 1
  23790876.419    10256613.93249   8000854.09245  23790875.929    23790886.612
  21702517.953   -12739338.51649  -9914893.68847  21702517.789    21702526.091
  20827238.821   -19028959.60549 -14800850.06848  20827238.643    20827246.032
  21267823.894   -20637631.04949 -16060600.20947  21267823.212    21267831.339
  22916977.669    -8531949.92849  -6628985.00046  22916977.047    22916988.911
 02  9  9 18 53  0.0000000  0  5G14G11G25G20G 1
  23806285.013    10337585.64849   8063948.75045  23806284.642    23806295.225
  21711457.508   -12692362.09649  -9878288.79747  21711457.241    21711465.527
  20832720.425   -19000153.51549 -14778403.78948  20832720.248    20832727.681
  21255502.302   -20702381.59249 -16111055.12947  21255501.613    21255509.738
  22904231.056    -8598932.99449  -6681179.50446  22904230.472    22904242.255
